Wetterdaten: Freitag, 20.01.2023
Datum Zeit Temp. 2m Temp +5 cm Feuchte A. Luftdruck Regen Wind Richtung Richtung Sonnenschein UV Solar Taupunkt Windchill Windben
20.01.2023 00:00 -1,7 C -2,2 C 90 % 1012,6 hPa 0,0 l/m 4,8 km/h (1 Bft) W-SW 247 0 min 0,0 UV-I 0 W/m -3,1 C -1,7 C 11,3 km/h (2 Bft)
20.01.2023 00:01 -1,7 C -2,2 C 90 % 1012,6 hPa 0,0 l/m 3,2 km/h (1 Bft) W-SW 247 0 min 0,0 UV-I 0 W/m -3,1 C -1,7 C 4,8 km/h (1 Bft)
20.01.2023 00:02 -1,7 C -2,2 C 90 % 1012,6 hPa 0,0 l/m 3,2 km/h (1 Bft) W-SW 247 0 min 0,0 UV-I 0 W/m -3,1 C -1,7 C 6,4 km/h (2 Bft)
20.01.2023 00:03 -1,7 C -2,2 C 90 % 1012,6 hPa 0,0 l/m 4,8 km/h (1 Bft) W-SW 247 0 min 0,0 UV-I 0 W/m -3,1 C -1,7 C 8,0 km/h (2 Bft)
20.01.2023 00:04 -1,7 C -2,2 C 90 % 1012,5 hPa 0,0 l/m 3,2 km/h (1 Bft) W 270 0 min 0,0 UV-I 0 W/m -3,1 C -1,7 C 4,8 km/h (1 Bft)
20.01.2023 00:05 -1,7 C -2,2 C 90 % 1012,6 hPa 0,0 l/m 3,2 km/h (1 Bft) W 270 0 min 0,0 UV-I 0 W/m -3,1 C -1,7 C 6,4 km/h (2 Bft)
20.01.2023 00:06 -1,7 C -2,2 C 90 % 1012,6 hPa 0,0 l/m 3,2 km/h (1 Bft) W-SW 247 0 min 0,0 UV-I 0 W/m -3,1 C -1,7 C 6,4 km/h (2 Bft)
20.01.2023 00:07 -1,7 C -2,2 C 90 % 1012,6 hPa 0,0 l/m 4,8 km/h (1 Bft) W-SW 247 0 min 0,0 UV-I 0 W/m -3,1 C -1,7 C 8,0 km/h (2 Bft)
20.01.2023 00:08 -1,7 C -2,2 C 90 % 1012,6 hPa 0,0 l/m 4,8 km/h (1 Bft) W-SW 247 0 min 0,0 UV-I 0 W/m -3,1 C -1,7 C 6,4 km/h (2 Bft)
20.01.2023 00:09 -1,8 C -2,2 C 90 % 1012,7 hPa 0,0 l/m 4,8 km/h (1 Bft) W-SW 247 0 min 0,0 UV-I 0 W/m -3,2 C -1,8 C 8,0 km/h (2 Bft)
20.01.2023 00:10 -1,7 C -2,2 C 90 % 1012,7 hPa 0,0 l/m 6,4 km/h (2 Bft) SW 225 0 min 0,0 UV-I 0 W/m -3,1 C -1,7 C 8,0 km/h (2 Bft)
20.01.2023 00:11 -1,7 C -2,2 C 90 % 1012,7 hPa 0,0 l/m 4,8 km/h (1 Bft) W-SW 247 0 min 0,0 UV-I 0 W/m -3,1 C -1,7 C 8,0 km/h (2 Bft)
20.01.2023 00:12 -1,7 C -2,2 C 90 % 1012,7 hPa 0,0 l/m 3,2 km/h (1 Bft) W-SW 247 0 min 0,0 UV-I 0 W/m -3,1 C -1,7 C 6,4 km/h (2 Bft)
20.01.2023 00:13 -1,7 C -2,2 C 90 % 1012,7 hPa 0,0 l/m 3,2 km/h (1 Bft) W-SW 247 0 min 0,0 UV-I 0 W/m -3,1 C -1,7 C 4,8 km/h (1 Bft)
20.01.2023 00:14 -1,7 C -2,2 C 90 % 1012,6 hPa 0,0 l/m 1,6 km/h (1 Bft) W-SW 247 0 min 0,0 UV-I 0 W/m -3,1 C -1,7 C 3,2 km/h (1 Bft)
20.01.2023 00:15 -1,8 C -2,2 C 90 % 1012,7 hPa 0,0 l/m 0,0 km/h (0 Bft) W-SW 247 0 min 0,0 UV-I 0 W/m -3,2 C -1,8 C 1,6 km/h (1 Bft)
20.01.2023 00:16 -1,8 C -2,2 C 90 % 1012,7 hPa 0,0 l/m 1,6 km/h (1 Bft) W-SW 247 0 min 0,0 UV-I 0 W/m -3,2 C -1,8 C 4,8 km/h (1 Bft)
20.01.2023 00:17 -1,8 C -2,2 C 90 % 1012,7 hPa 0,0 l/m 3,2 km/h (1 Bft) S-SW 202 0 min 0,0 UV-I 0 W/m -3,2 C -1,8 C 6,4 km/h (2 Bft)
20.01.2023 00:18 -1,8 C -2,2 C 90 % 1012,7 hPa 0,0 l/m 3,2 km/h (1 Bft) SW 225 0 min 0,0 UV-I 0 W/m -3,2 C -1,8 C 6,4 km/h (2 Bft)
20.01.2023 00:19 -1,8 C -2,2 C 90 % 1012,7 hPa 0,0 l/m 3,2 km/h (1 Bft) SW 225 0 min 0,0 UV-I 0 W/m -3,2 C -1,8 C 8,0 km/h (2 Bft)
20.01.2023 00:20 -1,8 C -2,2 C 90 % 1012,7 hPa 0,0 l/m 4,8 km/h (1 Bft) SW 225 0 min 0,0 UV-I 0 W/m -3,2 C -1,8 C 6,4 km/h (2 Bft)
20.01.2023 00:21 -1,7 C -2,2 C 90 % 1012,6 hPa 0,0 l/m 1,6 km/h (1 Bft) SW 225 0 min 0,0 UV-I 0 W/m -3,1 C -1,7 C 3,2 km/h (1 Bft)
20.01.2023 00:22 -1,8 C -2,2 C 90 % 1012,7 hPa 0,0 l/m 0,0 km/h (0 Bft) SW 225 0 min 0,0 UV-I 0 W/m -3,2 C -1,8 C 1,6 km/h (1 Bft)
20.01.2023 00:23 -1,8 C -2,2 C 90 % 1012,7 hPa 0,0 l/m 0,0 km/h (0 Bft) N 0 0 min 0,0 UV-I 0 W/m -3,2 C -1,8 C 0,0 km/h (0 Bft)
20.01.2023 00:24 -1,8 C -2,2 C 90 % 1012,6 hPa 0,0 l/m 0,0 km/h (0 Bft) SW 225 0 min 0,0 UV-I 0 W/m -3,2 C -1,8 C 1,6 km/h (1 Bft)
20.01.2023 00:25 -1,8 C -2,2 C 90 % 1012,7 hPa 0,0 l/m 0,0 km/h (0 Bft) N 0 0 min 0,0 UV-I 0 W/m -3,2 C -1,8 C 0,0 km/h (0 Bft)
20.01.2023 00:26 -1,8 C -2,8 C 90 % 1012,6 hPa 0,0 l/m 3,2 km/h (1 Bft) SW 225 0 min 0,0 UV-I 0 W/m -3,2 C -1,8 C 4,8 km/h (1 Bft)
20.01.2023 00:27 -1,8 C -2,8 C 90 % 1012,6 hPa 0,0 l/m 1,6 km/h (1 Bft) SW 225 0 min 0,0 UV-I 0 W/m -3,2 C -1,8 C 4,8 km/h (1 Bft)
20.01.2023 00:28 -1,8 C -2,8 C 90 % 1012,6 hPa 0,0 l/m 0,0 km/h (0 Bft) SW 225 0 min 0,0 UV-I 0 W/m -3,2 C -1,8 C 1,6 km/h (1 Bft)
20.01.2023 00:29 -1,8 C -2,8 C 90 % 1012,6 hPa 0,0 l/m 0,0 km/h (0 Bft) N 0 0 min 0,0 UV-I 0 W/m -3,2 C -1,8 C 0,0 km/h (0 Bft)
20.01.2023 00:30 -1,8 C -2,8 C 90 % 1012,6 hPa 0,0 l/m 0,0 km/h (0 Bft) SW 225 0 min 0,0 UV-I 0 W/m -3,2 C -1,8 C 1,6 km/h (1 Bft)
20.01.2023 00:31 -1,9 C -2,8 C 90 % 1012,6 hPa 0,0 l/m 0,0 km/h (0 Bft) SW 225 0 min 0,0 UV-I 0 W/m -3,3 C -1,9 C 1,6 km/h (1 Bft)
20.01.2023 00:32 -1,9 C -2,8 C 90 % 1012,6 hPa 0,0 l/m 1,6 km/h (1 Bft) S-SW 202 0 min 0,0 UV-I 0 W/m -3,3 C -1,9 C 6,4 km/h (2 Bft)
20.01.2023 00:33 -1,9 C -2,8 C 90 % 1012,7 hPa 0,0 l/m 0,0 km/h (0 Bft) S-SW 202 0 min 0,0 UV-I 0 W/m -3,3 C -1,9 C 3,2 km/h (1 Bft)
20.01.2023 00:34 -1,9 C -2,8 C 90 % 1012,6 hPa 0,0 l/m 0,0 km/h (0 Bft) S-SW 202 0 min 0,0 UV-I 0 W/m -3,3 C -1,9 C 1,6 km/h (1 Bft)
20.01.2023 00:35 -1,9 C -2,8 C 90 % 1012,7 hPa 0,0 l/m 0,0 km/h (0 Bft) S-SW 202 0 min 0,0 UV-I 0 W/m -3,3 C -1,9 C 1,6 km/h (1 Bft)
20.01.2023 00:36 -1,9 C -2,8 C 90 % 1012,7 hPa 0,0 l/m 0,0 km/h (0 Bft) SW 225 0 min 0,0 UV-I 0 W/m -3,3 C -1,9 C 3,2 km/h (1 Bft)
20.01.2023 00:37 -1,9 C -2,8 C 90 % 1012,7 hPa 0,0 l/m 1,6 km/h (1 Bft) SW 225 0 min 0,0 UV-I 0 W/m -3,3 C -1,9 C 4,8 km/h (1 Bft)
20.01.2023 00:38 -1,9 C -2,8 C 90 % 1012,7 hPa 0,0 l/m 1,6 km/h (1 Bft) SW 225 0 min 0,0 UV-I 0 W/m -3,3 C -1,9 C 4,8 km/h (1 Bft)
20.01.2023 00:39 -1,9 C -2,8 C 90 % 1012,7 hPa 0,0 l/m 0,0 km/h (0 Bft) SW 225 0 min 0,0 UV-I 0 W/m -3,3 C -1,9 C 3,2 km/h (1 Bft)
20.01.2023 00:40 -1,9 C -2,8 C 90 % 1012,7 hPa 0,0 l/m 1,6 km/h (1 Bft) W-SW 247 0 min 0,0 UV-I 0 W/m -3,3 C -1,9 C 4,8 km/h (1 Bft)
20.01.2023 00:41 -2,0 C -2,8 C 90 % 1012,7 hPa 0,0 l/m 0,0 km/h (0 Bft) W-SW 247 0 min 0,0 UV-I 0 W/m -3,4 C -2,0 C 1,6 km/h (1 Bft)
20.01.2023 00:42 -1,9 C -2,8 C 90 % 1012,7 hPa 0,0 l/m 0,0 km/h (0 Bft) W-SW 247 0 min 0,0 UV-I 0 W/m -3,3 C -1,9 C 3,2 km/h (1 Bft)
20.01.2023 00:43 -2,0 C -2,8 C 90 % 1012,7 hPa 0,0 l/m 1,6 km/h (1 Bft) W-SW 247 0 min 0,0 UV-I 0 W/m -3,4 C -2,0 C 4,8 km/h (1 Bft)
20.01.2023 00:44 -2,0 C -2,8 C 90 % 1012,7 hPa 0,0 l/m 0,0 km/h (0 Bft) W-SW 247 0 min 0,0 UV-I 0 W/m -3,4 C -2,0 C 3,2 km/h (1 Bft)
20.01.2023 00:45 -2,1 C -2,8 C 90 % 1012,7 hPa 0,0 l/m 0,0 km/h (0 Bft) N 0 0 min 0,0 UV-I 0 W/m -3,5 C -2,1 C 0,0 km/h (0 Bft)
20.01.2023 00:46 -2,1 C -3,3 C 90 % 1012,7 hPa 0,0 l/m 0,0 km/h (0 Bft) W-SW 247 0 min 0,0 UV-I 0 W/m -3,5 C -2,1 C 1,6 km/h (1 Bft)
20.01.2023 00:47 -2,1 C -3,3 C 90 % 1012,7 hPa 0,0 l/m 0,0 km/h (0 Bft) N 0 0 min 0,0 UV-I 0 W/m -3,5 C -2,1 C 0,0 km/h (0 Bft)
20.01.2023 00:48 -2,1 C -3,3 C 90 % 1012,7 hPa 0,0 l/m 0,0 km/h (0 Bft) W-SW 247 0 min 0,0 UV-I 0 W/m -3,5 C -2,1 C 1,6 km/h (1 Bft)
20.01.2023 00:49 -2,1 C -3,3 C 90 % 1012,7 hPa 0,0 l/m 0,0 km/h (0 Bft) N 0 0 min 0,0 UV-I 0 W/m -3,5 C -2,1 C 0,0 km/h (0 Bft)
20.01.2023 00:50 -2,2 C -3,3 C 90 % 1012,7 hPa 0,0 l/m 0,0 km/h (0 Bft) W-SW 247 0 min 0,0 UV-I 0 W/m -3,6 C -2,2 C 3,2 km/h (1 Bft)
20.01.2023 00:51 -2,2 C -3,3 C 90 % 1012,8 hPa 0,0 l/m 0,0 km/h (0 Bft) W-SW 247 0 min 0,0 UV-I 0 W/m -3,6 C -2,2 C 1,6 km/h (1 Bft)
20.01.2023 00:52 -2,2 C -3,3 C 90 % 1012,7 hPa 0,0 l/m 0,0 km/h (0 Bft) N 0 0 min 0,0 UV-I 0 W/m -3,6 C -2,2 C 0,0 km/h (0 Bft)
20.01.2023 00:53 -2,2 C -3,9 C 90 % 1012,8 hPa 0,0 l/m 0,0 km/h (0 Bft) W-SW 247 0 min 0,0 UV-I 0 W/m -3,6 C -2,2 C 1,6 km/h (1 Bft)
20.01.2023 00:54 -2,3 C -3,9 C 90 % 1012,8 hPa 0,0 l/m 1,6 km/h (1 Bft) W-SW 247 0 min 0,0 UV-I 0 W/m -3,7 C -2,3 C 3,2 km/h (1 Bft)
20.01.2023 00:55 -2,3 C -3,9 C 90 % 1012,8 hPa 0,0 l/m 1,6 km/h (1 Bft) W-SW 247 0 min 0,0 UV-I 0 W/m -3,7 C -2,3 C 3,2 km/h (1 Bft)
20.01.2023 00:56 -2,3 C -3,9 C 90 % 1012,8 hPa 0,0 l/m 0,0 km/h (0 Bft) W-SW 247 0 min 0,0 UV-I 0 W/m -3,7 C -2,3 C 3,2 km/h (1 Bft)
20.01.2023 00:57 -2,3 C -3,9 C 90 % 1012,8 hPa 0,0 l/m 0,0 km/h (0 Bft) W-SW 247 0 min 0,0 UV-I 0 W/m -3,7 C -2,3 C 1,6 km/h (1 Bft)
20.01.2023 00:58 -2,3 C -3,9 C 90 % 1012,8 hPa 0,0 l/m 0,0 km/h (0 Bft) W-SW 247 0 min 0,0 UV-I 0 W/m -3,7 C -2,3 C 1,6 km/h (1 Bft)
20.01.2023 00:59 -2,4 C -3,9 C 90 % 1012,8 hPa 0,0 l/m 1,6 km/h (1 Bft) W-SW 247 0 min 0,0 UV-I 0 W/m -3,8 C -2,4 C 3,2 km/h (1 Bft)
20.01.2023 01:00 -2,4 C -3,9 C 90 % 1012,7 hPa 0,0 l/m 0,0 km/h (0 Bft) W-SW 247 0 min 0,0 UV-I 0 W/m -3,8 C -2,4 C 1,6 km/h (1 Bft)
20.01.2023 01:01 -2,4 C -3,9 C 90 % 1012,8 hPa 0,0 l/m 0,0 km/h (0 Bft) N 0 0 min 0,0 UV-I 0 W/m -3,8 C -2,4 C 0,0 km/h (0 Bft)
20.01.2023 01:02 -2,4 C -3,9 C 90 % 1012,8 hPa 0,0 l/m 0,0 km/h (0 Bft) W-SW 247 0 min 0,0 UV-I 0 W/m -3,8 C -2,4 C 3,2 km/h (1 Bft)
20.01.2023 01:03 -2,4 C -3,9 C 90 % 1012,8 hPa 0,0 l/m 0,0 km/h (0 Bft) N 0 0 min 0,0 UV-I 0 W/m -3,8 C -2,4 C 0,0 km/h (0 Bft)
20.01.2023 01:04 -2,4 C -3,9 C 90 % 1012,8 hPa 0,0 l/m 0,0 km/h (0 Bft) N 0 0 min 0,0 UV-I 0 W/m -3,8 C -2,4 C 0,0 km/h (0 Bft)
20.01.2023 01:05 -2,4 C -3,9 C 90 % 1012,8 hPa 0,0 l/m 0,0 km/h (0 Bft) N 0 0 min 0,0 UV-I 0 W/m -3,8 C -2,4 C 0,0 km/h (0 Bft)
20.01.2023 01:06 -2,4 C -3,9 C 90 % 1012,8 hPa 0,0 l/m 0,0 km/h (0 Bft) W-SW 247 0 min 0,0 UV-I 0 W/m -3,8 C -2,4 C 1,6 km/h (1 Bft)
20.01.2023 01:07 -2,5 C -3,9 C 90 % 1012,9 hPa 0,0 l/m 0,0 km/h (0 Bft) N 0 0 min 0,0 UV-I 0 W/m -3,9 C -2,5 C 0,0 km/h (0 Bft)
20.01.2023 01:08 -2,5 C -3,9 C 90 % 1012,8 hPa 0,0 l/m 1,6 km/h (1 Bft) W-SW 247 0 min 0,0 UV-I 0 W/m -3,9 C -2,5 C 4,8 km/h (1 Bft)
20.01.2023 01:09 -2,6 C -3,9 C 90 % 1012,9 hPa 0,0 l/m 0,0 km/h (0 Bft) W-SW 247 0 min 0,0 UV-I 0 W/m -4,0 C -2,6 C 1,6 km/h (1 Bft)
20.01.2023 01:10 -2,6 C -3,9 C 90 % 1012,9 hPa 0,0 l/m 0,0 km/h (0 Bft) W-SW 247 0 min 0,0 UV-I 0 W/m -4,0 C -2,6 C 1,6 km/h (1 Bft)
20.01.2023 01:11 -2,6 C -3,9 C 90 % 1012,9 hPa 0,0 l/m 0,0 km/h (0 Bft) W-SW 247 0 min 0,0 UV-I 0 W/m -4,0 C -2,6 C 1,6 km/h (1 Bft)
20.01.2023 01:12 -2,6 C -3,9 C 90 % 1012,9 hPa 0,0 l/m 0,0 km/h (0 Bft) W-SW 247 0 min 0,0 UV-I 0 W/m -4,0 C -2,6 C 3,2 km/h (1 Bft)
20.01.2023 01:13 -2,6 C -3,9 C 90 % 1012,9 hPa 0,0 l/m 0,0 km/h (0 Bft) N 0 0 min 0,0 UV-I 0 W/m -4,0 C -2,6 C 0,0 km/h (0 Bft)
20.01.2023 01:14 -2,6 C -3,9 C 90 % 1012,9 hPa 0,0 l/m 0,0 km/h (0 Bft) W-SW 247 0 min 0,0 UV-I 0 W/m -4,0 C -2,6 C 1,6 km/h (1 Bft)
20.01.2023 01:15 -2,6 C -3,9 C 90 % 1012,9 hPa 0,0 l/m 0,0 km/h (0 Bft) W-SW 247 0 min 0,0 UV-I 0 W/m -4,0 C -2,6 C 1,6 km/h (1 Bft)
20.01.2023 01:16 -2,6 C -3,3 C 90 % 1012,8 hPa 0,0 l/m 0,0 km/h (0 Bft) W-SW 247 0 min 0,0 UV-I 0 W/m -4,0 C -2,6 C 3,2 km/h (1 Bft)
20.01.2023 01:17 -2,6 C -3,3 C 90 % 1012,8 hPa 0,0 l/m 0,0 km/h (0 Bft) W-SW 247 0 min 0,0 UV-I 0 W/m -4,0 C -2,6 C 1,6 km/h (1 Bft)
20.01.2023 01:18 -2,6 C -3,3 C 90 % 1013,0 hPa 0,0 l/m 1,6 km/h (1 Bft) W-SW 247 0 min 0,0 UV-I 0 W/m -4,0 C -2,6 C 6,4 km/h (2 Bft)
20.01.2023 01:19 -2,6 C -3,3 C 90 % 1012,9 hPa 0,0 l/m 4,8 km/h (1 Bft) W-SW 247 0 min 0,0 UV-I 0 W/m -4,0 C -2,6 C 11,3 km/h (2 Bft)
20.01.2023 01:20 -2,6 C -3,3 C 90 % 1012,9 hPa 0,0 l/m 3,2 km/h (1 Bft) W-SW 247 0 min 0,0 UV-I 0 W/m -4,0 C -2,6 C 8,0 km/h (2 Bft)
20.01.2023 01:21 -2,6 C -3,3 C 90 % 1013,0 hPa 0,0 l/m 0,0 km/h (0 Bft) W-SW 247 0 min 0,0 UV-I 0 W/m -4,0 C -2,6 C 1,6 km/h (1 Bft)
20.01.2023 01:22 -2,6 C -2,8 C 91 % 1012,8 hPa 0,0 l/m 0,0 km/h (0 Bft) W-SW 247 0 min 0,0 UV-I 0 W/m -3,9 C -2,6 C 3,2 km/h (1 Bft)
20.01.2023 01:23 -2,6 C -2,8 C 91 % 1012,8 hPa 0,0 l/m 0,0 km/h (0 Bft) W-SW 247 0 min 0,0 UV-I 0 W/m -3,9 C -2,6 C 3,2 km/h (1 Bft)
20.01.2023 01:24 -2,5 C -2,8 C 91 % 1012,9 hPa 0,0 l/m 1,6 km/h (1 Bft) W-SW 247 0 min 0,0 UV-I 0 W/m -3,8 C -2,5 C 3,2 km/h (1 Bft)
20.01.2023 01:25 -2,4 C -2,8 C 91 % 1012,9 hPa 0,0 l/m 1,6 km/h (1 Bft) W-SW 247 0 min 0,0 UV-I 0 W/m -3,7 C -2,4 C 3,2 km/h (1 Bft)
20.01.2023 01:26 -2,4 C -2,8 C 91 % 1012,9 hPa 0,0 l/m 0,0 km/h (0 Bft) W-SW 247 0 min 0,0 UV-I 0 W/m -3,7 C -2,4 C 3,2 km/h (1 Bft)
20.01.2023 01:27 -2,4 C -2,8 C 91 % 1012,9 hPa 0,0 l/m 1,6 km/h (1 Bft) W-SW 247 0 min 0,0 UV-I 0 W/m -3,7 C -2,4 C 4,8 km/h (1 Bft)
20.01.2023 01:28 -2,4 C -2,8 C 91 % 1012,8 hPa 0,0 l/m 3,2 km/h (1 Bft) W-SW 247 0 min 0,0 UV-I 0 W/m -3,7 C -2,4 C 9,7 km/h (2 Bft)
20.01.2023 01:29 -2,4 C -2,8 C 91 % 1012,9 hPa 0,0 l/m 1,6 km/h (1 Bft) W-SW 247 0 min 0,0 UV-I 0 W/m -3,7 C -2,4 C 4,8 km/h (1 Bft)
20.01.2023 01:30 -2,4 C -2,8 C 91 % 1012,9 hPa 0,0 l/m 0,0 km/h (0 Bft) N 0 0 min 0,0 UV-I 0 W/m -3,7 C -2,4 C 0,0 km/h (0 Bft)
20.01.2023 01:31 -2,4 C -2,8 C 91 % 1012,9 hPa 0,0 l/m 0,0 km/h (0 Bft) W-SW 247 0 min 0,0 UV-I 0 W/m -3,7 C -2,4 C 1,6 km/h (1 Bft)
20.01.2023 01:32 -2,4 C -3,3 C 91 % 1012,9 hPa 0,0 l/m 0,0 km/h (0 Bft) W-SW 247 0 min 0,0 UV-I 0 W/m -3,7 C -2,4 C 1,6 km/h (1 Bft)
20.01.2023 01:33 -2,4 C -3,3 C 91 % 1012,8 hPa 0,0 l/m 0,0 km/h (0 Bft) W-SW 247 0 min 0,0 UV-I 0 W/m -3,7 C -2,4 C 1,6 km/h (1 Bft)
20.01.2023 01:34 -2,4 C -3,3 C 91 % 1012,8 hPa 0,0 l/m 1,6 km/h (1 Bft) W-SW 247 0 min 0,0 UV-I 0 W/m -3,7 C -2,4 C 4,8 km/h (1 Bft)
20.01.2023 01:35 -2,4 C -3,3 C 91 % 1013,0 hPa 0,0 l/m 0,0 km/h (0 Bft) W-SW 247 0 min 0,0 UV-I 0 W/m -3,7 C -2,4 C 1,6 km/h (1 Bft)
20.01.2023 01:36 -2,4 C -3,3 C 91 % 1013,0 hPa 0,0 l/m 1,6 km/h (1 Bft) W-SW 247 0 min 0,0 UV-I 0 W/m -3,7 C -2,4 C 3,2 km/h (1 Bft)
20.01.2023 01:37 -2,4 C -3,3 C 91 % 1013,0 hPa 0,0 l/m 0,0 km/h (0 Bft) N 0 0 min 0,0 UV-I 0 W/m -3,7 C -2,4 C 0,0 km/h (0 Bft)
20.01.2023 01:38 -2,3 C -3,9 C 91 % 1013,0 hPa 0,0 l/m 0,0 km/h (0 Bft) W-SW 247 0 min 0,0 UV-I 0 W/m -3,6 C -2,3 C 4,8 km/h (1 Bft)
20.01.2023 01:39 -2,4 C -3,9 C 91 % 1013,0 hPa 0,0 l/m 1,6 km/h (1 Bft) W-SW 247 0 min 0,0 UV-I 0 W/m -3,7 C -2,4 C 3,2 km/h (1 Bft)
20.01.2023 01:40 -2,4 C -3,9 C 91 % 1013,0 hPa 0,0 l/m 1,6 km/h (1 Bft) W-SW 247 0 min 0,0 UV-I 0 W/m -3,7 C -2,4 C 3,2 km/h (1 Bft)
20.01.2023 01:41 -2,4 C -3,9 C 91 % 1013,0 hPa 0,0 l/m 0,0 km/h (0 Bft) W-SW 247 0 min 0,0 UV-I 0 W/m -3,7 C -2,4 C 1,6 km/h (1 Bft)
20.01.2023 01:42 -2,4 C -3,9 C 91 % 1013,0 hPa 0,0 l/m 0,0 km/h (0 Bft) N 0 0 min 0,0 UV-I 0 W/m -3,7 C -2,4 C 0,0 km/h (0 Bft)
20.01.2023 01:43 -2,4 C -4,4 C 91 % 1013,0 hPa 0,0 l/m 0,0 km/h (0 Bft) W-SW 247 0 min 0,0 UV-I 0 W/m -3,7 C -2,4 C 1,6 km/h (1 Bft)
20.01.2023 01:44 -2,4 C -4,4 C 90 % 1013,0 hPa 0,0 l/m 0,0 km/h (0 Bft) W-SW 247 0 min 0,0 UV-I 0 W/m -3,8 C -2,4 C 3,2 km/h (1 Bft)
20.01.2023 01:45 -2,4 C -4,4 C 90 % 1013,0 hPa 0,0 l/m 0,0 km/h (0 Bft) W-SW 247 0 min 0,0 UV-I 0 W/m -3,8 C -2,4 C 1,6 km/h (1 Bft)
20.01.2023 01:46 -2,4 C -4,4 C 90 % 1013,1 hPa 0,0 l/m 0,0 km/h (0 Bft) N 0 0 min 0,0 UV-I 0 W/m -3,8 C -2,4 C 0,0 km/h (0 Bft)
20.01.2023 01:47 -2,4 C -4,4 C 90 % 1013,0 hPa 0,0 l/m 0,0 km/h (0 Bft) N 0 0 min 0,0 UV-I 0 W/m -3,8 C -2,4 C 0,0 km/h (0 Bft)
20.01.2023 01:48 -2,4 C -4,4 C 90 % 1013,1 hPa 0,0 l/m 0,0 km/h (0 Bft) N 0 0 min 0,0 UV-I 0 W/m -3,8 C -2,4 C 0,0 km/h (0 Bft)
20.01.2023 01:49 -2,4 C -4,4 C 90 % 1013,0 hPa 0,0 l/m 0,0 km/h (0 Bft) N 0 0 min 0,0 UV-I 0 W/m -3,8 C -2,4 C 0,0 km/h (0 Bft)
20.01.2023 01:50 -2,4 C -4,4 C 90 % 1013,1 hPa 0,0 l/m 0,0 km/h (0 Bft) N 0 0 min 0,0 UV-I 0 W/m -3,8 C -2,4 C 0,0 km/h (0 Bft)
20.01.2023 01:51 -2,4 C -5,0 C 90 % 1013,1 hPa 0,0 l/m 0,0 km/h (0 Bft) N 0 0 min 0,0 UV-I 0 W/m -3,8 C -2,4 C 0,0 km/h (0 Bft)
20.01.2023 01:52 -2,5 C -5,0 C 90 % 1013,1 hPa 0,0 l/m 0,0 km/h (0 Bft) N 0 0 min 0,0 UV-I 0 W/m -3,9 C -2,5 C 0,0 km/h (0 Bft)
20.01.2023 01:53 -2,5 C -5,0 C 91 % 1013,1 hPa 0,0 l/m 0,0 km/h (0 Bft) N 0 0 min 0,0 UV-I 0 W/m -3,8 C -2,5 C 0,0 km/h (0 Bft)
20.01.2023 01:54 -2,5 C -5,0 C 91 % 1013,1 hPa 0,0 l/m 0,0 km/h (0 Bft) N 0 0 min 0,0 UV-I 0 W/m -3,8 C -2,5 C 0,0 km/h (0 Bft)
20.01.2023 01:55 -2,6 C -5,0 C 90 % 1013,1 hPa 0,0 l/m 0,0 km/h (0 Bft) N 0 0 min 0,0 UV-I 0 W/m -4,0 C -2,6 C 0,0 km/h (0 Bft)
20.01.2023 01:56 -2,6 C -5,0 C 90 % 1013,1 hPa 0,0 l/m 0,0 km/h (0 Bft) N 0 0 min 0,0 UV-I 0 W/m -4,0 C -2,6 C 0,0 km/h (0 Bft)
20.01.2023 01:57 -2,6 C -5,0 C 90 % 1013,1 hPa 0,0 l/m 0,0 km/h (0 Bft) N 0 0 min 0,0 UV-I 0 W/m -4,0 C -2,6 C 0,0 km/h (0 Bft)
20.01.2023 01:58 -2,7 C -5,0 C 90 % 1013,1 hPa 0,0 l/m 0,0 km/h (0 Bft) N 0 0 min 0,0 UV-I 0 W/m -4,1 C -2,7 C 0,0 km/h (0 Bft)
20.01.2023 01:59 -2,7 C -5,0 C 90 % 1013,2 hPa 0,0 l/m 0,0 km/h (0 Bft) N 0 0 min 0,0 UV-I 0 W/m -4,1 C -2,7 C 0,0 km/h (0 Bft)
20.01.2023 02:00 -2,7 C -5,0 C 90 % 1013,1 hPa 0,0 l/m 0,0 km/h (0 Bft) N 0 0 min 0,0 UV-I 0 W/m -4,1 C -2,7 C 0,0 km/h (0 Bft)
20.01.2023 02:01 -2,7 C -5,0 C 90 % 1013,1 hPa 0,0 l/m 0,0 km/h (0 Bft) N 0 0 min 0,0 UV-I 0 W/m -4,1 C -2,7 C 0,0 km/h (0 Bft)
20.01.2023 02:02 -2,7 C -5,0 C 90 % 1013,1 hPa 0,0 l/m 0,0 km/h (0 Bft) N 0 0 min 0,0 UV-I 0 W/m -4,1 C -2,7 C 0,0 km/h (0 Bft)
20.01.2023 02:03 -2,8 C -5,0 C 90 % 1013,1 hPa 0,0 l/m 0,0 km/h (0 Bft) N 0 0 min 0,0 UV-I 0 W/m -4,2 C -2,8 C 0,0 km/h (0 Bft)
20.01.2023 02:04 -2,8 C -5,0 C 90 % 1013,2 hPa 0,0 l/m 0,0 km/h (0 Bft) W-SW 247 0 min 0,0 UV-I 0 W/m -4,2 C -2,8 C 1,6 km/h (1 Bft)
20.01.2023 02:05 -2,8 C -5,0 C 90 % 1013,1 hPa 0,0 l/m 0,0 km/h (0 Bft) N 0 0 min 0,0 UV-I 0 W/m -4,2 C -2,8 C 0,0 km/h (0 Bft)
20.01.2023 02:06 -2,8 C -5,6 C 90 % 1013,1 hPa 0,0 l/m 0,0 km/h (0 Bft) N 0 0 min 0,0 UV-I 0 W/m -4,2 C -2,8 C 0,0 km/h (0 Bft)
20.01.2023 02:07 -2,9 C -5,0 C 90 % 1013,2 hPa 0,0 l/m 0,0 km/h (0 Bft) N 0 0 min 0,0 UV-I 0 W/m -4,3 C -2,9 C 0,0 km/h (0 Bft)
20.01.2023 02:08 -2,9 C -5,0 C 90 % 1013,2 hPa 0,0 l/m 0,0 km/h (0 Bft) N 0 0 min 0,0 UV-I 0 W/m -4,3 C -2,9 C 0,0 km/h (0 Bft)
20.01.2023 02:09 -3,0 C -5,6 C 90 % 1013,2 hPa 0,0 l/m 0,0 km/h (0 Bft) N 0 0 min 0,0 UV-I 0 W/m -4,4 C -3,0 C 0,0 km/h (0 Bft)
20.01.2023 02:10 -3,0 C -5,0 C 90 % 1013,2 hPa 0,0 l/m 0,0 km/h (0 Bft) W-SW 247 0 min 0,0 UV-I 0 W/m -4,4 C -3,0 C 1,6 km/h (1 Bft)
20.01.2023 02:11 -3,0 C -5,0 C 90 % 1013,2 hPa 0,0 l/m 0,0 km/h (0 Bft) N 0 0 min 0,0 UV-I 0 W/m -4,4 C -3,0 C 0,0 km/h (0 Bft)
20.01.2023 02:12 -3,1 C -5,0 C 90 % 1013,2 hPa 0,0 l/m 0,0 km/h (0 Bft) W-SW 247 0 min 0,0 UV-I 0 W/m -4,5 C -3,1 C 1,6 km/h (1 Bft)
20.01.2023 02:13 -3,1 C -5,0 C 90 % 1013,1 hPa 0,0 l/m 0,0 km/h (0 Bft) W-SW 247 0 min 0,0 UV-I 0 W/m -4,5 C -3,1 C 1,6 km/h (1 Bft)
20.01.2023 02:14 -3,1 C -5,0 C 90 % 1013,2 hPa 0,0 l/m 0,0 km/h (0 Bft) W-SW 247 0 min 0,0 UV-I 0 W/m -4,5 C -3,1 C 3,2 km/h (1 Bft)
20.01.2023 02:15 -3,1 C -5,0 C 90 % 1013,1 hPa 0,0 l/m 0,0 km/h (0 Bft) W-SW 247 0 min 0,0 UV-I 0 W/m -4,5 C -3,1 C 3,2 km/h (1 Bft)
20.01.2023 02:16 -3,2 C -5,0 C 90 % 1013,2 hPa 0,0 l/m 0,0 km/h (0 Bft) W-SW 247 0 min 0,0 UV-I 0 W/m -4,6 C -3,2 C 3,2 km/h (1 Bft)
20.01.2023 02:17 -3,2 C -4,4 C 90 % 1013,2 hPa 0,0 l/m 1,6 km/h (1 Bft) W-SW 247 0 min 0,0 UV-I 0 W/m -4,6 C -3,2 C 4,8 km/h (1 Bft)
20.01.2023 02:18 -3,2 C -4,4 C 90 % 1013,1 hPa 0,0 l/m 1,6 km/h (1 Bft) W-SW 247 0 min 0,0 UV-I 0 W/m -4,6 C -3,2 C 3,2 km/h (1 Bft)
20.01.2023 02:19 -3,2 C -4,4 C 90 % 1013,2 hPa 0,0 l/m 3,2 km/h (1 Bft) W-SW 247 0 min 0,0 UV-I 0 W/m -4,6 C -3,2 C 8,0 km/h (2 Bft)
20.01.2023 02:20 -3,2 C -4,4 C 90 % 1013,2 hPa 0,0 l/m 3,2 km/h (1 Bft) W-SW 247 0 min 0,0 UV-I 0 W/m -4,6 C -3,2 C 6,4 km/h (2 Bft)
20.01.2023 02:21 -3,2 C -3,9 C 90 % 1013,1 hPa 0,0 l/m 3,2 km/h (1 Bft) SW 225 0 min 0,0 UV-I 0 W/m -4,6 C -3,2 C 6,4 km/h (2 Bft)
20.01.2023 02:22 -3,1 C -3,9 C 91 % 1013,1 hPa 0,0 l/m 1,6 km/h (1 Bft) W-SW 247 0 min 0,0 UV-I 0 W/m -4,4 C -3,1 C 4,8 km/h (1 Bft)
20.01.2023 02:23 -3,1 C -3,3 C 91 % 1013,2 hPa 0,0 l/m 4,8 km/h (1 Bft) W-SW 247 0 min 0,0 UV-I 0 W/m -4,4 C -3,1 C 6,4 km/h (2 Bft)
20.01.2023 02:24 -3,1 C -3,3 C 91 % 1013,2 hPa 0,0 l/m 3,2 km/h (1 Bft) W-SW 247 0 min 0,0 UV-I 0 W/m -4,4 C -3,1 C 6,4 km/h (2 Bft)
20.01.2023 02:25 -3,1 C -3,3 C 91 % 1013,2 hPa 0,0 l/m 3,2 km/h (1 Bft) W-SW 247 0 min 0,0 UV-I 0 W/m -4,4 C -3,1 C 6,4 km/h (2 Bft)
20.01.2023 02:26 -3,1 C -3,3 C 91 % 1013,2 hPa 0,0 l/m 1,6 km/h (1 Bft) W-SW 247 0 min 0,0 UV-I 0 W/m -4,4 C -3,1 C 3,2 km/h (1 Bft)
20.01.2023 02:27 -3,1 C -3,3 C 91 % 1013,3 hPa 0,0 l/m 1,6 km/h (1 Bft) W-SW 247 0 min 0,0 UV-I 0 W/m -4,4 C -3,1 C 4,8 km/h (1 Bft)
20.01.2023 02:28 -3,0 C -3,3 C 91 % 1013,3 hPa 0,0 l/m 1,6 km/h (1 Bft) W-SW 247 0 min 0,0 UV-I 0 W/m -4,3 C -3,0 C 4,8 km/h (1 Bft)
20.01.2023 02:29 -3,0 C -3,3 C 91 % 1013,3 hPa 0,0 l/m 1,6 km/h (1 Bft) W-SW 247 0 min 0,0 UV-I 0 W/m -4,3 C -3,0 C 3,2 km/h (1 Bft)
20.01.2023 02:30 -3,0 C -3,3 C 91 % 1013,3 hPa 0,0 l/m 1,6 km/h (1 Bft) W-SW 247 0 min 0,0 UV-I 0 W/m -4,3 C -3,0 C 6,4 km/h (2 Bft)
20.01.2023 02:31 -2,9 C -3,9 C 91 % 1013,3 hPa 0,0 l/m 1,6 km/h (1 Bft) W-SW 247 0 min 0,0 UV-I 0 W/m -4,2 C -2,9 C 4,8 km/h (1 Bft)
20.01.2023 02:32 -3,0 C -3,9 C 91 % 1013,3 hPa 0,0 l/m 3,2 km/h (1 Bft) W-SW 247 0 min 0,0 UV-I 0 W/m -4,3 C -3,0 C 4,8 km/h (1 Bft)
20.01.2023 02:33 -2,9 C -3,9 C 91 % 1013,3 hPa 0,0 l/m 0,0 km/h (0 Bft) W-SW 247 0 min 0,0 UV-I 0 W/m -4,2 C -2,9 C 3,2 km/h (1 Bft)
20.01.2023 02:34 -2,9 C -3,9 C 91 % 1013,3 hPa 0,0 l/m 0,0 km/h (0 Bft) W-SW 247 0 min 0,0 UV-I 0 W/m -4,2 C -2,9 C 3,2 km/h (1 Bft)
20.01.2023 02:35 -2,9 C -3,9 C 91 % 1013,3 hPa 0,0 l/m 1,6 km/h (1 Bft) W-SW 247 0 min 0,0 UV-I 0 W/m -4,2 C -2,9 C 3,2 km/h (1 Bft)
20.01.2023 02:36 -2,9 C -3,9 C 91 % 1013,4 hPa 0,0 l/m 1,6 km/h (1 Bft) W-SW 247 0 min 0,0 UV-I 0 W/m -4,2 C -2,9 C 4,8 km/h (1 Bft)
20.01.2023 02:37 -2,9 C -3,9 C 91 % 1013,3 hPa 0,0 l/m 1,6 km/h (1 Bft) W-SW 247 0 min 0,0 UV-I 0 W/m -4,2 C -2,9 C 4,8 km/h (1 Bft)
20.01.2023 02:38 -2,9 C -3,9 C 91 % 1013,3 hPa 0,0 l/m 1,6 km/h (1 Bft) W-SW 247 0 min 0,0 UV-I 0 W/m -4,2 C -2,9 C 4,8 km/h (1 Bft)
20.01.2023 02:39 -2,9 C -3,9 C 91 % 1013,3 hPa 0,0 l/m 3,2 km/h (1 Bft) SW 225 0 min 0,0 UV-I 0 W/m -4,2 C -2,9 C 8,0 km/h (2 Bft)
20.01.2023 02:40 -2,9 C -3,9 C 91 % 1013,4 hPa 0,0 l/m 1,6 km/h (1 Bft) W-SW 247 0 min 0,0 UV-I 0 W/m -4,2 C -2,9 C 6,4 km/h (2 Bft)
20.01.2023 02:41 -2,9 C -3,9 C 91 % 1013,3 hPa 0,0 l/m 3,2 km/h (1 Bft) W-SW 247 0 min 0,0 UV-I 0 W/m -4,2 C -2,9 C 6,4 km/h (2 Bft)
20.01.2023 02:42 -2,9 C -3,9 C 91 % 1013,4 hPa 0,0 l/m 1,6 km/h (1 Bft) W-SW 247 0 min 0,0 UV-I 0 W/m -4,2 C -2,9 C 4,8 km/h (1 Bft)
20.01.2023 02:43 -2,9 C -3,9 C 91 % 1013,4 hPa 0,0 l/m 1,6 km/h (1 Bft) W-SW 247 0 min 0,0 UV-I 0 W/m -4,2 C -2,9 C 4,8 km/h (1 Bft)
20.01.2023 02:44 -2,9 C -3,9 C 91 % 1013,4 hPa 0,0 l/m 3,2 km/h (1 Bft) W 270 0 min 0,0 UV-I 0 W/m -4,2 C -2,9 C 9,7 km/h (2 Bft)
20.01.2023 02:45 -2,9 C -3,9 C 91 % 1013,4 hPa 0,0 l/m 3,2 km/h (1 Bft) W-SW 247 0 min 0,0 UV-I 0 W/m -4,2 C -2,9 C 6,4 km/h (2 Bft)
20.01.2023 02:46 -2,9 C -3,3 C 91 % 1013,4 hPa 0,0 l/m 1,6 km/h (1 Bft) W-SW 247 0 min 0,0 UV-I 0 W/m -4,2 C -2,9 C 4,8 km/h (1 Bft)
20.01.2023 02:47 -2,9 C -3,3 C 91 % 1013,5 hPa 0,0 l/m 3,2 km/h (1 Bft) W-SW 247 0 min 0,0 UV-I 0 W/m -4,2 C -2,9 C 8,0 km/h (2 Bft)
20.01.2023 02:48 -2,9 C -3,3 C 91 % 1013,5 hPa 0,0 l/m 3,2 km/h (1 Bft) W 270 0 min 0,0 UV-I 0 W/m -4,2 C -2,9 C 9,7 km/h (2 Bft)
20.01.2023 02:49 -2,9 C -3,3 C 91 % 1013,5 hPa 0,0 l/m 0,0 km/h (0 Bft) W 270 0 min 0,0 UV-I 0 W/m -4,2 C -2,9 C 1,6 km/h (1 Bft)
20.01.2023 02:50 -2,8 C -3,3 C 91 % 1013,5 hPa 0,0 l/m 1,6 km/h (1 Bft) SW 225 0 min 0,0 UV-I 0 W/m -4,1 C -2,8 C 6,4 km/h (2 Bft)
20.01.2023 02:51 -2,8 C -3,3 C 91 % 1013,5 hPa 0,0 l/m 1,6 km/h (1 Bft) W-SW 247 0 min 0,0 UV-I 0 W/m -4,1 C -2,8 C 6,4 km/h (2 Bft)
20.01.2023 02:52 -2,8 C -3,3 C 91 % 1013,5 hPa 0,0 l/m 0,0 km/h (0 Bft) W-SW 247 0 min 0,0 UV-I 0 W/m -4,1 C -2,8 C 3,2 km/h (1 Bft)
20.01.2023 02:53 -2,8 C -3,3 C 91 % 1013,5 hPa 0,0 l/m 4,8 km/h (1 Bft) W-SW 247 0 min 0,0 UV-I 0 W/m -4,1 C -2,8 C 14,5 km/h (3 Bft)
20.01.2023 02:54 -2,8 C -3,3 C 91 % 1013,5 hPa 0,0 l/m 4,8 km/h (1 Bft) W-SW 247 0 min 0,0 UV-I 0 W/m -4,1 C -2,8 C 12,9 km/h (3 Bft)
20.01.2023 02:55 -2,8 C -3,3 C 91 % 1013,4 hPa 0,0 l/m 3,2 km/h (1 Bft) W-SW 247 0 min 0,0 UV-I 0 W/m -4,1 C -2,8 C 12,9 km/h (3 Bft)
20.01.2023 02:56 -2,8 C -3,3 C 91 % 1013,5 hPa 0,0 l/m 4,8 km/h (1 Bft) SW 225 0 min 0,0 UV-I 0 W/m -4,1 C -2,8 C 9,7 km/h (2 Bft)
20.01.2023 02:57 -2,8 C -3,3 C 91 % 1013,6 hPa 0,0 l/m 3,2 km/h (1 Bft) S-SW 202 0 min 0,0 UV-I 0 W/m -4,1 C -2,8 C 8,0 km/h (2 Bft)
20.01.2023 02:58 -2,8 C -3,3 C 91 % 1013,6 hPa 0,0 l/m 0,0 km/h (0 Bft) N 0 0 min 0,0 UV-I 0 W/m -4,1 C -2,8 C 0,0 km/h (0 Bft)
20.01.2023 02:59 -2,8 C -3,3 C 91 % 1013,5 hPa 0,0 l/m 0,0 km/h (0 Bft) N 0 0 min 0,0 UV-I 0 W/m -4,1 C -2,8 C 0,0 km/h (0 Bft)
20.01.2023 03:00 -2,8 C -3,3 C 91 % 1013,6 hPa 0,0 l/m 0,0 km/h (0 Bft) N 0 0 min 0,0 UV-I 0 W/m -4,1 C -2,8 C 0,0 km/h (0 Bft)
20.01.2023 03:01 -2,8 C -3,3 C 91 % 1013,7 hPa 0,0 l/m 0,0 km/h (0 Bft) N 0 0 min 0,0 UV-I 0 W/m -4,1 C -2,8 C 0,0 km/h (0 Bft)
20.01.2023 03:02 -2,8 C -3,3 C 91 % 1013,7 hPa 0,0 l/m 0,0 km/h (0 Bft) N 0 0 min 0,0 UV-I 0 W/m -4,1 C -2,8 C 0,0 km/h (0 Bft)
20.01.2023 03:03 -2,8 C -3,3 C 91 % 1013,7 hPa 0,0 l/m 1,6 km/h (1 Bft) W 270 0 min 0,0 UV-I 0 W/m -4,1 C -2,8 C 4,8 km/h (1 Bft)
20.01.2023 03:04 -2,8 C -3,3 C 91 % 1013,6 hPa 0,0 l/m 11,3 km/h (2 Bft) W-SW 247 0 min 0,0 UV-I 0 W/m -4,1 C -7,7 C 16,1 km/h (3 Bft)
20.01.2023 03:05 -2,8 C -3,3 C 91 % 1013,7 hPa 0,0 l/m 11,3 km/h (2 Bft) SW 225 0 min 0,0 UV-I 0 W/m -4,1 C -7,7 C 19,3 km/h (3 Bft)
20.01.2023 03:06 -2,8 C -3,3 C 91 % 1013,7 hPa 0,0 l/m 8,0 km/h (2 Bft) W-SW 247 0 min 0,0 UV-I 0 W/m -4,1 C -4,6 C 19,3 km/h (3 Bft)
20.01.2023 03:07 -2,8 C -3,3 C 91 % 1013,7 hPa 0,0 l/m 4,8 km/h (1 Bft) W-SW 247 0 min 0,0 UV-I 0 W/m -4,1 C -2,8 C 8,0 km/h (2 Bft)
20.01.2023 03:08 -2,7 C -3,3 C 91 % 1013,8 hPa 0,0 l/m 3,2 km/h (1 Bft) SW 225 0 min 0,0 UV-I 0 W/m -4,0 C -2,7 C 4,8 km/h (1 Bft)
20.01.2023 03:09 -2,8 C -3,3 C 91 % 1013,7 hPa 0,0 l/m 4,8 km/h (1 Bft) W-SW 247 0 min 0,0 UV-I 0 W/m -4,1 C -2,8 C 14,5 km/h (3 Bft)
20.01.2023 03:10 -2,8 C -3,3 C 91 % 1013,7 hPa 0,0 l/m 3,2 km/h (1 Bft) SW 225 0 min 0,0 UV-I 0 W/m -4,1 C -2,8 C 6,4 km/h (2 Bft)
20.01.2023 03:11 -2,7 C -3,3 C 91 % 1013,7 hPa 0,0 l/m 6,4 km/h (2 Bft) W 270 0 min 0,0 UV-I 0 W/m -4,0 C -2,7 C 12,9 km/h (3 Bft)
20.01.2023 03:12 -2,8 C -3,3 C 91 % 1013,9 hPa 0,0 l/m 3,2 km/h (1 Bft) W-SW 247 0 min 0,0 UV-I 0 W/m -4,1 C -2,8 C 8,0 km/h (2 Bft)
20.01.2023 03:13 -2,7 C -3,3 C 91 % 1013,8 hPa 0,0 l/m 3,2 km/h (1 Bft) W-SW 247 0 min 0,0 UV-I 0 W/m -4,0 C -2,7 C 8,0 km/h (2 Bft)
20.01.2023 03:14 -2,7 C -3,3 C 91 % 1013,8 hPa 0,0 l/m 3,2 km/h (1 Bft) W-SW 247 0 min 0,0 UV-I 0 W/m -4,0 C -2,7 C 8,0 km/h (2 Bft)
20.01.2023 03:15 -2,7 C -2,8 C 91 % 1013,9 hPa 0,0 l/m 3,2 km/h (1 Bft) W-SW 247 0 min 0,0 UV-I 0 W/m -4,0 C -2,7 C 4,8 km/h (1 Bft)
20.01.2023 03:16 -2,7 C -2,8 C 91 % 1013,9 hPa 0,0 l/m 1,6 km/h (1 Bft) W-SW 247 0 min 0,0 UV-I 0 W/m -4,0 C -2,7 C 3,2 km/h (1 Bft)
20.01.2023 03:17 -2,7 C -2,8 C 91 % 1013,9 hPa 0,0 l/m 0,0 km/h (0 Bft) W-SW 247 0 min 0,0 UV-I 0 W/m -4,0 C -2,7 C 3,2 km/h (1 Bft)
20.01.2023 03:18 -2,7 C -2,8 C 91 % 1013,8 hPa 0,0 l/m 1,6 km/h (1 Bft) W-SW 247 0 min 0,0 UV-I 0 W/m -4,0 C -2,7 C 3,2 km/h (1 Bft)
20.01.2023 03:19 -2,7 C -2,8 C 91 % 1013,9 hPa 0,0 l/m 3,2 km/h (1 Bft) W-SW 247 0 min 0,0 UV-I 0 W/m -4,0 C -2,7 C 4,8 km/h (1 Bft)
20.01.2023 03:20 -2,7 C -2,8 C 91 % 1013,9 hPa 0,0 l/m 4,8 km/h (1 Bft) W-SW 247 0 min 0,0 UV-I 0 W/m -4,0 C -2,7 C 11,3 km/h (2 Bft)
20.01.2023 03:21 -2,7 C -2,8 C 91 % 1013,9 hPa 0,0 l/m 6,4 km/h (2 Bft) W 270 0 min 0,0 UV-I 0 W/m -4,0 C -2,7 C 14,5 km/h (3 Bft)
20.01.2023 03:22 -2,7 C -2,8 C 91 % 1013,8 hPa 0,0 l/m 6,4 km/h (2 Bft) SW 225 0 min 0,0 UV-I 0 W/m -4,0 C -2,7 C 12,9 km/h (3 Bft)
20.01.2023 03:23 -2,6 C -2,8 C 91 % 1013,9 hPa 0,0 l/m 6,4 km/h (2 Bft) W-SW 247 0 min 0,0 UV-I 0 W/m -3,9 C -2,6 C 9,7 km/h (2 Bft)
20.01.2023 03:24 -2,6 C -2,8 C 91 % 1013,9 hPa 0,0 l/m 9,7 km/h (2 Bft) W 270 0 min 0,0 UV-I 0 W/m -3,9 C -6,0 C 16,1 km/h (3 Bft)
20.01.2023 03:25 -2,6 C -2,8 C 91 % 1013,9 hPa 0,0 l/m 12,9 km/h (3 Bft) W-SW 247 0 min 0,0 UV-I 0 W/m -3,9 C -8,7 C 17,7 km/h (3 Bft)
20.01.2023 03:26 -2,6 C -2,8 C 91 % 1013,9 hPa 0,0 l/m 12,9 km/h (3 Bft) W 270 0 min 0,0 UV-I 0 W/m -3,9 C -8,7 C 19,3 km/h (3 Bft)
20.01.2023 03:27 -2,6 C -2,8 C 91 % 1013,8 hPa 0,0 l/m 12,9 km/h (3 Bft) W-SW 247 0 min 0,0 UV-I 0 W/m -3,9 C -8,7 C 19,3 km/h (3 Bft)
20.01.2023 03:28 -2,6 C -2,8 C 91 % 1013,9 hPa 0,0 l/m 12,9 km/h (3 Bft) W-SW 247 0 min 0,0 UV-I 0 W/m -3,9 C -8,7 C 17,7 km/h (3 Bft)
20.01.2023 03:29 -2,6 C -2,8 C 91 % 1013,9 hPa 0,0 l/m 9,7 km/h (2 Bft) W-SW 247 0 min 0,0 UV-I 0 W/m -3,9 C -6,0 C 17,7 km/h (3 Bft)
20.01.2023 03:30 -2,5 C -2,8 C 91 % 1013,9 hPa 0,0 l/m 11,3 km/h (2 Bft) W-SW 247 0 min 0,0 UV-I 0 W/m -3,8 C -7,3 C 17,7 km/h (3 Bft)
20.01.2023 03:31 -2,5 C -2,8 C 91 % 1013,9 hPa 0,0 l/m 9,7 km/h (2 Bft) W-SW 247 0 min 0,0 UV-I 0 W/m -3,8 C -5,9 C 12,9 km/h (3 Bft)
20.01.2023 03:32 -2,4 C -2,8 C 91 % 1014,0 hPa 0,0 l/m 6,4 km/h (2 Bft) W 270 0 min 0,0 UV-I 0 W/m -3,7 C -2,4 C 9,7 km/h (2 Bft)
20.01.2023 03:33 -2,4 C -2,8 C 91 % 1013,9 hPa 0,0 l/m 9,7 km/h (2 Bft) W 270 0 min 0,0 UV-I 0 W/m -3,7 C -5,8 C 14,5 km/h (3 Bft)
20.01.2023 03:34 -2,5 C -2,8 C 91 % 1014,0 hPa 0,0 l/m 3,2 km/h (1 Bft) W 270 0 min 0,0 UV-I 0 W/m -3,8 C -2,5 C 6,4 km/h (2 Bft)
20.01.2023 03:35 -2,4 C -2,8 C 91 % 1013,9 hPa 0,0 l/m 4,8 km/h (1 Bft) SW 225 0 min 0,0 UV-I 0 W/m -3,7 C -2,4 C 9,7 km/h (2 Bft)
20.01.2023 03:36 -2,4 C -2,8 C 91 % 1014,0 hPa 0,0 l/m 3,2 km/h (1 Bft) SW 225 0 min 0,0 UV-I 0 W/m -3,7 C -2,4 C 6,4 km/h (2 Bft)
20.01.2023 03:37 -2,4 C -2,8 C 91 % 1013,9 hPa 0,0 l/m 1,6 km/h (1 Bft) W-SW 247 0 min 0,0 UV-I 0 W/m -3,7 C -2,4 C 4,8 km/h (1 Bft)
20.01.2023 03:38 -2,4 C -2,8 C 91 % 1014,0 hPa 0,0 l/m 1,6 km/h (1 Bft) SW 225 0 min 0,0 UV-I 0 W/m -3,7 C -2,4 C 4,8 km/h (1 Bft)
20.01.2023 03:39 -2,4 C -2,8 C 91 % 1014,1 hPa 0,0 l/m 6,4 km/h (2 Bft) SW 225 0 min 0,0 UV-I 0 W/m -3,7 C -2,4 C 12,9 km/h (3 Bft)
20.01.2023 03:40 -2,4 C -2,8 C 91 % 1014,1 hPa 0,0 l/m 6,4 km/h (2 Bft) W-SW 247 0 min 0,0 UV-I 0 W/m -3,7 C -2,4 C 11,3 km/h (2 Bft)
20.01.2023 03:41 -2,4 C -2,8 C 91 % 1014,1 hPa 0,0 l/m 9,7 km/h (2 Bft) W-SW 247 0 min 0,0 UV-I 0 W/m -3,7 C -5,8 C 16,1 km/h (3 Bft)
20.01.2023 03:42 -2,3 C -2,8 C 91 % 1014,2 hPa 0,0 l/m 4,8 km/h (1 Bft) SW 225 0 min 0,0 UV-I 0 W/m -3,6 C -2,3 C 11,3 km/h (2 Bft)
20.01.2023 03:43 -2,4 C -2,8 C 91 % 1014,1 hPa 0,0 l/m 8,0 km/h (2 Bft) W-SW 247 0 min 0,0 UV-I 0 W/m -3,7 C -4,2 C 11,3 km/h (2 Bft)
20.01.2023 03:44 -2,3 C -2,8 C 91 % 1014,1 hPa 0,0 l/m 4,8 km/h (1 Bft) W 270 0 min 0,0 UV-I 0 W/m -3,6 C -2,3 C 9,7 km/h (2 Bft)
20.01.2023 03:45 -2,3 C -2,8 C 91 % 1014,1 hPa 0,0 l/m 8,0 km/h (2 Bft) W-SW 247 0 min 0,0 UV-I 0 W/m -3,6 C -4,1 C 14,5 km/h (3 Bft)
20.01.2023 03:46 -2,3 C -2,8 C 91 % 1014,1 hPa 0,0 l/m 4,8 km/h (1 Bft) SW 225 0 min 0,0 UV-I 0 W/m -3,6 C -2,3 C 9,7 km/h (2 Bft)
20.01.2023 03:47 -2,3 C -2,8 C 91 % 1014,1 hPa 0,0 l/m 8,0 km/h (2 Bft) W-SW 247 0 min 0,0 UV-I 0 W/m -3,6 C -4,1 C 14,5 km/h (3 Bft)
20.01.2023 03:48 -2,3 C -2,8 C 91 % 1014,1 hPa 0,0 l/m 8,0 km/h (2 Bft) W-SW 247 0 min 0,0 UV-I 0 W/m -3,6 C -4,1 C 17,7 km/h (3 Bft)
20.01.2023 03:49 -2,3 C -2,8 C 91 % 1014,1 hPa 0,0 l/m 11,3 km/h (2 Bft) SW 225 0 min 0,0 UV-I 0 W/m -3,6 C -7,1 C 19,3 km/h (3 Bft)
20.01.2023 03:50 -2,3 C -2,8 C 91 % 1014,1 hPa 0,0 l/m 12,9 km/h (3 Bft) SW 225 0 min 0,0 UV-I 0 W/m -3,6 C -8,3 C 22,5 km/h (4 Bft)
20.01.2023 03:51 -2,3 C -2,8 C 91 % 1014,1 hPa 0,0 l/m 12,9 km/h (3 Bft) W-SW 247 0 min 0,0 UV-I 0 W/m -3,6 C -8,3 C 22,5 km/h (4 Bft)
20.01.2023 03:52 -2,3 C -2,8 C 91 % 1014,1 hPa 0,0 l/m 11,3 km/h (2 Bft) W-SW 247 0 min 0,0 UV-I 0 W/m -3,6 C -7,1 C 14,5 km/h (3 Bft)
20.01.2023 03:53 -2,3 C -2,8 C 91 % 1014,1 hPa 0,0 l/m 9,7 km/h (2 Bft) W 270 0 min 0,0 UV-I 0 W/m -3,6 C -5,7 C 12,9 km/h (3 Bft)
20.01.2023 03:54 -2,3 C -2,8 C 91 % 1014,2 hPa 0,0 l/m 8,0 km/h (2 Bft) W-SW 247 0 min 0,0 UV-I 0 W/m -3,6 C -4,1 C 12,9 km/h (3 Bft)
20.01.2023 03:55 -2,3 C -2,8 C 90 % 1014,2 hPa 0,0 l/m 11,3 km/h (2 Bft) W-SW 247 0 min 0,0 UV-I 0 W/m -3,7 C -7,1 C 14,5 km/h (3 Bft)
20.01.2023 03:56 -2,3 C -2,8 C 90 % 1014,1 hPa 0,0 l/m 8,0 km/h (2 Bft) S-SW 202 0 min 0,0 UV-I 0 W/m -3,7 C -4,1 C 12,9 km/h (3 Bft)
20.01.2023 03:57 -2,3 C -2,8 C 90 % 1014,1 hPa 0,0 l/m 3,2 km/h (1 Bft) SW 225 0 min 0,0 UV-I 0 W/m -3,7 C -2,3 C 4,8 km/h (1 Bft)
20.01.2023 03:58 -2,3 C -2,8 C 90 % 1014,2 hPa 0,0 l/m 3,2 km/h (1 Bft) SW 225 0 min 0,0 UV-I 0 W/m -3,7 C -2,3 C 4,8 km/h (1 Bft)
20.01.2023 03:59 -2,3 C -2,8 C 90 % 1014,2 hPa 0,0 l/m 1,6 km/h (1 Bft) SW 225 0 min 0,0 UV-I 0 W/m -3,7 C -2,3 C 4,8 km/h (1 Bft)
20.01.2023 04:00 -2,3 C -2,8 C 90 % 1014,2 hPa 0,0 l/m 1,6 km/h (1 Bft) W-SW 247 0 min 0,0 UV-I 0 W/m -3,7 C -2,3 C 4,8 km/h (1 Bft)
20.01.2023 04:01 -2,3 C -2,8 C 90 % 1014,2 hPa 0,0 l/m 4,8 km/h (1 Bft) W-SW 247 0 min 0,0 UV-I 0 W/m -3,7 C -2,3 C 8,0 km/h (2 Bft)
20.01.2023 04:02 -2,3 C -2,8 C 90 % 1014,1 hPa 0,0 l/m 8,0 km/h (2 Bft) W-SW 247 0 min 0,0 UV-I 0 W/m -3,7 C -4,1 C 12,9 km/h (3 Bft)
20.01.2023 04:03 -2,3 C -2,8 C 90 % 1014,1 hPa 0,0 l/m 6,4 km/h (2 Bft) W 270 0 min 0,0 UV-I 0 W/m -3,7 C -2,3 C 12,9 km/h (3 Bft)
20.01.2023 04:04 -2,3 C -2,8 C 90 % 1014,2 hPa 0,0 l/m 6,4 km/h (2 Bft) W 270 0 min 0,0 UV-I 0 W/m -3,7 C -2,3 C 14,5 km/h (3 Bft)
20.01.2023 04:05 -2,3 C -2,8 C 90 % 1014,2 hPa 0,0 l/m 4,8 km/h (1 Bft) W 270 0 min 0,0 UV-I 0 W/m -3,7 C -2,3 C 9,7 km/h (2 Bft)
20.01.2023 04:06 -2,3 C -2,8 C 90 % 1014,2 hPa 0,0 l/m 11,3 km/h (2 Bft) W 270 0 min 0,0 UV-I 0 W/m -3,7 C -7,1 C 16,1 km/h (3 Bft)
20.01.2023 04:07 -2,3 C -2,8 C 90 % 1014,2 hPa 0,0 l/m 9,7 km/h (2 Bft) W-SW 247 0 min 0,0 UV-I 0 W/m -3,7 C -5,7 C 16,1 km/h (3 Bft)
20.01.2023 04:08 -2,3 C -2,8 C 90 % 1014,2 hPa 0,0 l/m 4,8 km/h (1 Bft) W-SW 247 0 min 0,0 UV-I 0 W/m -3,7 C -2,3 C 6,4 km/h (2 Bft)
20.01.2023 04:09 -2,3 C -2,8 C 90 % 1014,2 hPa 0,0 l/m 6,4 km/h (2 Bft) W-SW 247 0 min 0,0 UV-I 0 W/m -3,7 C -2,3 C 11,3 km/h (2 Bft)
20.01.2023 04:10 -2,3 C -2,8 C 90 % 1014,3 hPa 0,0 l/m 4,8 km/h (1 Bft) W 270 0 min 0,0 UV-I 0 W/m -3,7 C -2,3 C 9,7 km/h (2 Bft)
20.01.2023 04:11 -2,3 C -2,8 C 90 % 1014,3 hPa 0,0 l/m 1,6 km/h (1 Bft) W-SW 247 0 min 0,0 UV-I 0 W/m -3,7 C -2,3 C 4,8 km/h (1 Bft)
20.01.2023 04:12 -2,3 C -2,8 C 90 % 1014,2 hPa 0,0 l/m 4,8 km/h (1 Bft) W 270 0 min 0,0 UV-I 0 W/m -3,7 C -2,3 C 11,3 km/h (2 Bft)
20.01.2023 04:13 -2,3 C -2,8 C 90 % 1014,4 hPa 0,0 l/m 9,7 km/h (2 Bft) W 270 0 min 0,0 UV-I 0 W/m -3,7 C -5,7 C 16,1 km/h (3 Bft)
20.01.2023 04:14 -2,3 C -2,8 C 90 % 1014,3 hPa 0,0 l/m 4,8 km/h (1 Bft) W-SW 247 0 min 0,0 UV-I 0 W/m -3,7 C -2,3 C 8,0 km/h (2 Bft)
20.01.2023 04:15 -2,3 C -2,8 C 90 % 1014,3 hPa 0,0 l/m 4,8 km/h (1 Bft) W-SW 247 0 min 0,0 UV-I 0 W/m -3,7 C -2,3 C 9,7 km/h (2 Bft)
20.01.2023 04:16 -2,3 C -2,8 C 90 % 1014,3 hPa 0,0 l/m 8,0 km/h (2 Bft) W-SW 247 0 min 0,0 UV-I 0 W/m -3,7 C -4,1 C 14,5 km/h (3 Bft)
20.01.2023 04:17 -2,3 C -2,8 C 90 % 1014,3 hPa 0,0 l/m 6,4 km/h (2 Bft) SW 225 0 min 0,0 UV-I 0 W/m -3,7 C -2,3 C 11,3 km/h (2 Bft)
20.01.2023 04:18 -2,3 C -2,8 C 90 % 1014,4 hPa 0,0 l/m 4,8 km/h (1 Bft) W-SW 247 0 min 0,0 UV-I 0 W/m -3,7 C -2,3 C 14,5 km/h (3 Bft)
20.01.2023 04:19 -2,3 C -2,8 C 90 % 1014,4 hPa 0,0 l/m 8,0 km/h (2 Bft) W-SW 247 0 min 0,0 UV-I 0 W/m -3,7 C -4,1 C 11,3 km/h (2 Bft)
20.01.2023 04:20 -2,3 C -2,8 C 90 % 1014,4 hPa 0,0 l/m 3,2 km/h (1 Bft) W-SW 247 0 min 0,0 UV-I 0 W/m -3,7 C -2,3 C 6,4 km/h (2 Bft)
20.01.2023 04:21 -2,3 C -2,8 C 90 % 1014,4 hPa 0,0 l/m 9,7 km/h (2 Bft) W-SW 247 0 min 0,0 UV-I 0 W/m -3,7 C -5,7 C 14,5 km/h (3 Bft)
20.01.2023 04:22 -2,3 C -2,8 C 90 % 1014,4 hPa 0,0 l/m 4,8 km/h (1 Bft) W-SW 247 0 min 0,0 UV-I 0 W/m -3,7 C -2,3 C 9,7 km/h (2 Bft)
20.01.2023 04:23 -2,3 C -2,8 C 90 % 1014,5 hPa 0,0 l/m 9,7 km/h (2 Bft) W-SW 247 0 min 0,0 UV-I 0 W/m -3,7 C -5,7 C 16,1 km/h (3 Bft)
20.01.2023 04:24 -2,3 C -2,8 C 90 % 1014,5 hPa 0,0 l/m 8,0 km/h (2 Bft) W-SW 247 0 min 0,0 UV-I 0 W/m -3,7 C -4,1 C 11,3 km/h (2 Bft)
20.01.2023 04:25 -2,3 C -2,8 C 90 % 1014,5 hPa 0,0 l/m 8,0 km/h (2 Bft) W-SW 247 0 min 0,0 UV-I 0 W/m -3,7 C -4,1 C 12,9 km/h (3 Bft)
20.01.2023 04:26 -2,3 C -2,8 C 90 % 1014,6 hPa 0,0 l/m 8,0 km/h (2 Bft) W-SW 247 0 min 0,0 UV-I 0 W/m -3,7 C -4,1 C 14,5 km/h (3 Bft)
20.01.2023 04:27 -2,3 C -2,8 C 90 % 1014,5 hPa 0,0 l/m 6,4 km/h (2 Bft) SW 225 0 min 0,0 UV-I 0 W/m -3,7 C -2,3 C 11,3 km/h (2 Bft)
20.01.2023 04:28 -2,3 C -2,8 C 90 % 1014,5 hPa 0,0 l/m 3,2 km/h (1 Bft) W-SW 247 0 min 0,0 UV-I 0 W/m -3,7 C -2,3 C 6,4 km/h (2 Bft)
20.01.2023 04:29 -2,3 C -2,8 C 90 % 1014,6 hPa 0,0 l/m 8,0 km/h (2 Bft) W-SW 247 0 min 0,0 UV-I 0 W/m -3,7 C -4,1 C 14,5 km/h (3 Bft)
20.01.2023 04:30 -2,3 C -2,8 C 90 % 1014,6 hPa 0,0 l/m 4,8 km/h (1 Bft) W-SW 247 0 min 0,0 UV-I 0 W/m -3,7 C -2,3 C 8,0 km/h (2 Bft)
20.01.2023 04:31 -2,3 C -2,8 C 90 % 1014,6 hPa 0,0 l/m 1,6 km/h (1 Bft) W-SW 247 0 min 0,0 UV-I 0 W/m -3,7 C -2,3 C 4,8 km/h (1 Bft)
20.01.2023 04:32 -2,3 C -2,8 C 90 % 1014,6 hPa 0,0 l/m 1,6 km/h (1 Bft) W-SW 247 0 min 0,0 UV-I 0 W/m -3,7 C -2,3 C 3,2 km/h (1 Bft)
20.01.2023 04:33 -2,3 C -2,8 C 90 % 1014,5 hPa 0,0 l/m 1,6 km/h (1 Bft) W-SW 247 0 min 0,0 UV-I 0 W/m -3,7 C -2,3 C 4,8 km/h (1 Bft)
20.01.2023 04:34 -2,3 C -2,8 C 90 % 1014,6 hPa 0,0 l/m 0,0 km/h (0 Bft) W-SW 247 0 min 0,0 UV-I 0 W/m -3,7 C -2,3 C 1,6 km/h (1 Bft)
20.01.2023 04:35 -2,3 C -2,8 C 90 % 1014,6 hPa 0,0 l/m 0,0 km/h (0 Bft) SW 225 0 min 0,0 UV-I 0 W/m -3,7 C -2,3 C 3,2 km/h (1 Bft)
20.01.2023 04:36 -2,3 C -2,8 C 90 % 1014,5 hPa 0,0 l/m 3,2 km/h (1 Bft) S-SW 202 0 min 0,0 UV-I 0 W/m -3,7 C -2,3 C 6,4 km/h (2 Bft)
20.01.2023 04:37 -2,3 C -2,8 C 90 % 1014,5 hPa 0,0 l/m 3,2 km/h (1 Bft) S-SW 202 0 min 0,0 UV-I 0 W/m -3,7 C -2,3 C 6,4 km/h (2 Bft)
20.01.2023 04:38 -2,3 C -2,8 C 90 % 1014,6 hPa 0,0 l/m 4,8 km/h (1 Bft) S-SW 202 0 min 0,0 UV-I 0 W/m -3,7 C -2,3 C 6,4 km/h (2 Bft)
20.01.2023 04:39 -2,3 C -2,8 C 90 % 1014,5 hPa 0,0 l/m 3,2 km/h (1 Bft) S-SW 202 0 min 0,0 UV-I 0 W/m -3,7 C -2,3 C 6,4 km/h (2 Bft)
20.01.2023 04:40 -2,3 C -2,8 C 90 % 1014,5 hPa 0,0 l/m 1,6 km/h (1 Bft) S-SW 202 0 min 0,0 UV-I 0 W/m -3,7 C -2,3 C 4,8 km/h (1 Bft)
20.01.2023 04:41 -2,3 C -2,8 C 90 % 1014,5 hPa 0,0 l/m 1,6 km/h (1 Bft) S-SW 202 0 min 0,0 UV-I 0 W/m -3,7 C -2,3 C 3,2 km/h (1 Bft)
20.01.2023 04:42 -2,3 C -2,8 C 90 % 1014,5 hPa 0,0 l/m 0,0 km/h (0 Bft) S-SW 202 0 min 0,0 UV-I 0 W/m -3,7 C -2,3 C 1,6 km/h (1 Bft)
20.01.2023 04:43 -2,3 C -2,8 C 90 % 1014,4 hPa 0,0 l/m 1,6 km/h (1 Bft) S-SW 202 0 min 0,0 UV-I 0 W/m -3,7 C -2,3 C 3,2 km/h (1 Bft)
20.01.2023 04:44 -2,3 C -3,3 C 90 % 1014,5 hPa 0,0 l/m 1,6 km/h (1 Bft) S-SW 202 0 min 0,0 UV-I 0 W/m -3,7 C -2,3 C 3,2 km/h (1 Bft)
20.01.2023 04:45 -2,3 C -3,3 C 90 % 1014,5 hPa 0,0 l/m 1,6 km/h (1 Bft) S-SW 202 0 min 0,0 UV-I 0 W/m -3,7 C -2,3 C 3,2 km/h (1 Bft)
20.01.2023 04:46 -2,3 C -3,3 C 90 % 1014,4 hPa 0,0 l/m 1,6 km/h (1 Bft) S-SW 202 0 min 0,0 UV-I 0 W/m -3,7 C -2,3 C 3,2 km/h (1 Bft)
20.01.2023 04:47 -2,3 C -3,3 C 90 % 1014,5 hPa 0,0 l/m 3,2 km/h (1 Bft) S-SW 202 0 min 0,0 UV-I 0 W/m -3,7 C -2,3 C 8,0 km/h (2 Bft)
20.01.2023 04:48 -2,4 C -3,3 C 90 % 1014,5 hPa 0,0 l/m 3,2 km/h (1 Bft) S-SW 202 0 min 0,0 UV-I 0 W/m -3,8 C -2,4 C 6,4 km/h (2 Bft)
20.01.2023 04:49 -2,4 C -3,3 C 90 % 1014,4 hPa 0,0 l/m 4,8 km/h (1 Bft) S-SW 202 0 min 0,0 UV-I 0 W/m -3,8 C -2,4 C 8,0 km/h (2 Bft)
20.01.2023 04:50 -2,4 C -3,3 C 90 % 1014,5 hPa 0,0 l/m 3,2 km/h (1 Bft) S-SW 202 0 min 0,0 UV-I 0 W/m -3,8 C -2,4 C 6,4 km/h (2 Bft)
20.01.2023 04:51 -2,4 C -3,3 C 90 % 1014,5 hPa 0,0 l/m 1,6 km/h (1 Bft) S-SW 202 0 min 0,0 UV-I 0 W/m -3,8 C -2,4 C 3,2 km/h (1 Bft)
20.01.2023 04:52 -2,4 C -3,3 C 90 % 1014,5 hPa 0,0 l/m 1,6 km/h (1 Bft) S-SW 202 0 min 0,0 UV-I 0 W/m -3,8 C -2,4 C 3,2 km/h (1 Bft)
20.01.2023 04:53 -2,4 C -2,8 C 90 % 1014,6 hPa 0,0 l/m 0,0 km/h (0 Bft) S-SW 202 0 min 0,0 UV-I 0 W/m -3,8 C -2,4 C 1,6 km/h (1 Bft)
20.01.2023 04:54 -2,4 C -2,8 C 90 % 1014,6 hPa 0,0 l/m 1,6 km/h (1 Bft) S-SW 202 0 min 0,0 UV-I 0 W/m -3,8 C -2,4 C 4,8 km/h (1 Bft)
20.01.2023 04:55 -2,4 C -2,8 C 90 % 1014,5 hPa 0,0 l/m 3,2 km/h (1 Bft) S-SW 202 0 min 0,0 UV-I 0 W/m -3,8 C -2,4 C 6,4 km/h (2 Bft)
20.01.2023 04:56 -2,4 C -2,8 C 90 % 1014,6 hPa 0,0 l/m 6,4 km/h (2 Bft) SW 225 0 min 0,0 UV-I 0 W/m -3,8 C -2,4 C 12,9 km/h (3 Bft)
20.01.2023 04:57 -2,4 C -2,8 C 90 % 1014,6 hPa 0,0 l/m 8,0 km/h (2 Bft) SW 225 0 min 0,0 UV-I 0 W/m -3,8 C -4,2 C 12,9 km/h (3 Bft)
20.01.2023 04:58 -2,4 C -2,8 C 90 % 1014,6 hPa 0,0 l/m 11,3 km/h (2 Bft) SW 225 0 min 0,0 UV-I 0 W/m -3,8 C -7,2 C 16,1 km/h (3 Bft)
20.01.2023 04:59 -2,4 C -2,8 C 90 % 1014,7 hPa 0,0 l/m 9,7 km/h (2 Bft) SW 225 0 min 0,0 UV-I 0 W/m -3,8 C -5,8 C 14,5 km/h (3 Bft)
20.01.2023 05:00 -2,4 C -2,8 C 90 % 1014,6 hPa 0,0 l/m 6,4 km/h (2 Bft) W-SW 247 0 min 0,0 UV-I 0 W/m -3,8 C -2,4 C 9,7 km/h (2 Bft)
20.01.2023 05:01 -2,4 C -2,8 C 90 % 1014,6 hPa 0,0 l/m 6,4 km/h (2 Bft) W-SW 247 0 min 0,0 UV-I 0 W/m -3,8 C -2,4 C 8,0 km/h (2 Bft)
20.01.2023 05:02 -2,4 C -2,8 C 90 % 1014,6 hPa 0,0 l/m 3,2 km/h (1 Bft) W-SW 247 0 min 0,0 UV-I 0 W/m -3,8 C -2,4 C 4,8 km/h (1 Bft)
20.01.2023 05:03 -2,4 C -2,8 C 90 % 1014,6 hPa 0,0 l/m 4,8 km/h (1 Bft) W-SW 247 0 min 0,0 UV-I 0 W/m -3,8 C -2,4 C 8,0 km/h (2 Bft)
20.01.2023 05:04 -2,4 C -2,8 C 90 % 1014,6 hPa 0,0 l/m 3,2 km/h (1 Bft) W-SW 247 0 min 0,0 UV-I 0 W/m -3,8 C -2,4 C 9,7 km/h (2 Bft)
20.01.2023 05:05 -2,4 C -2,8 C 90 % 1014,6 hPa 0,0 l/m 4,8 km/h (1 Bft) W-SW 247 0 min 0,0 UV-I 0 W/m -3,8 C -2,4 C 8,0 km/h (2 Bft)
20.01.2023 05:06 -2,4 C -2,8 C 90 % 1014,6 hPa 0,0 l/m 4,8 km/h (1 Bft) W 270 0 min 0,0 UV-I 0 W/m -3,8 C -2,4 C 9,7 km/h (2 Bft)
20.01.2023 05:07 -2,4 C -2,8 C 90 % 1014,6 hPa 0,0 l/m 4,8 km/h (1 Bft) W-SW 247 0 min 0,0 UV-I 0 W/m -3,8 C -2,4 C 11,3 km/h (2 Bft)
20.01.2023 05:08 -2,4 C -2,8 C 90 % 1014,6 hPa 0,0 l/m 4,8 km/h (1 Bft) W-SW 247 0 min 0,0 UV-I 0 W/m -3,8 C -2,4 C 8,0 km/h (2 Bft)
20.01.2023 05:09 -2,4 C -2,8 C 90 % 1014,6 hPa 0,0 l/m 3,2 km/h (1 Bft) W-SW 247 0 min 0,0 UV-I 0 W/m -3,8 C -2,4 C 4,8 km/h (1 Bft)
20.01.2023 05:10 -2,4 C -2,8 C 90 % 1014,6 hPa 0,0 l/m 4,8 km/h (1 Bft) W 270 0 min 0,0 UV-I 0 W/m -3,8 C -2,4 C 6,4 km/h (2 Bft)
20.01.2023 05:11 -2,4 C -2,8 C 90 % 1014,7 hPa 0,0 l/m 4,8 km/h (1 Bft) W-SW 247 0 min 0,0 UV-I 0 W/m -3,8 C -2,4 C 11,3 km/h (2 Bft)
20.01.2023 05:12 -2,4 C -2,8 C 90 % 1014,7 hPa 0,0 l/m 4,8 km/h (1 Bft) W-SW 247 0 min 0,0 UV-I 0 W/m -3,8 C -2,4 C 8,0 km/h (2 Bft)
20.01.2023 05:13 -2,4 C -2,8 C 90 % 1014,6 hPa 0,0 l/m 3,2 km/h (1 Bft) W-SW 247 0 min 0,0 UV-I 0 W/m -3,8 C -2,4 C 8,0 km/h (2 Bft)
20.01.2023 05:14 -2,4 C -2,8 C 90 % 1014,6 hPa 0,0 l/m 3,2 km/h (1 Bft) W 270 0 min 0,0 UV-I 0 W/m -3,8 C -2,4 C 6,4 km/h (2 Bft)
20.01.2023 05:15 -2,4 C -2,8 C 90 % 1014,6 hPa 0,0 l/m 4,8 km/h (1 Bft) W-SW 247 0 min 0,0 UV-I 0 W/m -3,8 C -2,4 C 8,0 km/h (2 Bft)
20.01.2023 05:16 -2,4 C -2,8 C 90 % 1014,7 hPa 0,0 l/m 4,8 km/h (1 Bft) W-SW 247 0 min 0,0 UV-I 0 W/m -3,8 C -2,4 C 6,4 km/h (2 Bft)
20.01.2023 05:17 -2,4 C -2,8 C 90 % 1014,6 hPa 0,0 l/m 1,6 km/h (1 Bft) W-SW 247 0 min 0,0 UV-I 0 W/m -3,8 C -2,4 C 3,2 km/h (1 Bft)
20.01.2023 05:18 -2,4 C -2,8 C 90 % 1014,6 hPa 0,0 l/m 0,0 km/h (0 Bft) W-SW 247 0 min 0,0 UV-I 0 W/m -3,8 C -2,4 C 3,2 km/h (1 Bft)
20.01.2023 05:19 -2,4 C -2,8 C 90 % 1014,6 hPa 0,0 l/m 1,6 km/h (1 Bft) W-SW 247 0 min 0,0 UV-I 0 W/m -3,8 C -2,4 C 3,2 km/h (1 Bft)
20.01.2023 05:20 -2,4 C -2,8 C 90 % 1014,7 hPa 0,0 l/m 3,2 km/h (1 Bft) SW 225 0 min 0,0 UV-I 0 W/m -3,8 C -2,4 C 6,4 km/h (2 Bft)
20.01.2023 05:21 -2,4 C -2,8 C 90 % 1014,6 hPa 0,0 l/m 3,2 km/h (1 Bft) SW 225 0 min 0,0 UV-I 0 W/m -3,8 C -2,4 C 4,8 km/h (1 Bft)
20.01.2023 05:22 -2,4 C -2,8 C 90 % 1014,6 hPa 0,0 l/m 4,8 km/h (1 Bft) SW 225 0 min 0,0 UV-I 0 W/m -3,8 C -2,4 C 6,4 km/h (2 Bft)
20.01.2023 05:23 -2,4 C -2,8 C 90 % 1014,6 hPa 0,0 l/m 4,8 km/h (1 Bft) SW 225 0 min 0,0 UV-I 0 W/m -3,8 C -2,4 C 8,0 km/h (2 Bft)
20.01.2023 05:24 -2,4 C -2,8 C 90 % 1014,7 hPa 0,0 l/m 4,8 km/h (1 Bft) SW 225 0 min 0,0 UV-I 0 W/m -3,8 C -2,4 C 9,7 km/h (2 Bft)
20.01.2023 05:25 -2,4 C -2,8 C 90 % 1014,6 hPa 0,0 l/m 8,0 km/h (2 Bft) S-SW 202 0 min 0,0 UV-I 0 W/m -3,8 C -4,2 C 9,7 km/h (2 Bft)
20.01.2023 05:26 -2,4 C -2,8 C 90 % 1014,6 hPa 0,0 l/m 6,4 km/h (2 Bft) W-SW 247 0 min 0,0 UV-I 0 W/m -3,8 C -2,4 C 9,7 km/h (2 Bft)
20.01.2023 05:27 -2,4 C -2,8 C 90 % 1014,6 hPa 0,0 l/m 6,4 km/h (2 Bft) S-SW 202 0 min 0,0 UV-I 0 W/m -3,8 C -2,4 C 9,7 km/h (2 Bft)
20.01.2023 05:28 -2,5 C -2,8 C 89 % 1014,6 hPa 0,0 l/m 9,7 km/h (2 Bft) S-SW 202 0 min 0,0 UV-I 0 W/m -4,1 C -5,9 C 11,3 km/h (2 Bft)
20.01.2023 05:29 -2,5 C -2,8 C 90 % 1014,7 hPa 0,0 l/m 6,4 km/h (2 Bft) SW 225 0 min 0,0 UV-I 0 W/m -3,9 C -2,5 C 9,7 km/h (2 Bft)
20.01.2023 05:30 -2,5 C -2,8 C 90 % 1014,6 hPa 0,0 l/m 6,4 km/h (2 Bft) W-SW 247 0 min 0,0 UV-I 0 W/m -3,9 C -2,5 C 11,3 km/h (2 Bft)
20.01.2023 05:31 -2,5 C -2,8 C 90 % 1014,6 hPa 0,0 l/m 6,4 km/h (2 Bft) S-SW 202 0 min 0,0 UV-I 0 W/m -3,9 C -2,5 C 8,0 km/h (2 Bft)
20.01.2023 05:32 -2,5 C -2,8 C 90 % 1014,6 hPa 0,0 l/m 6,4 km/h (2 Bft) S-SW 202 0 min 0,0 UV-I 0 W/m -3,9 C -2,5 C 9,7 km/h (2 Bft)
20.01.2023 05:33 -2,5 C -2,8 C 90 % 1014,7 hPa 0,0 l/m 4,8 km/h (1 Bft) S-SW 202 0 min 0,0 UV-I 0 W/m -3,9 C -2,5 C 8,0 km/h (2 Bft)
20.01.2023 05:34 -2,5 C -2,8 C 90 % 1014,6 hPa 0,0 l/m 6,4 km/h (2 Bft) S-SW 202 0 min 0,0 UV-I 0 W/m -3,9 C -2,5 C 8,0 km/h (2 Bft)
20.01.2023 05:35 -2,5 C -2,8 C 90 % 1014,7 hPa 0,0 l/m 4,8 km/h (1 Bft) S-SW 202 0 min 0,0 UV-I 0 W/m -3,9 C -2,5 C 8,0 km/h (2 Bft)
20.01.2023 05:36 -2,5 C -2,8 C 90 % 1014,8 hPa 0,0 l/m 4,8 km/h (1 Bft) S-SW 202 0 min 0,0 UV-I 0 W/m -3,9 C -2,5 C 8,0 km/h (2 Bft)
20.01.2023 05:37 -2,5 C -2,8 C 90 % 1014,6 hPa 0,0 l/m 6,4 km/h (2 Bft) S-SW 202 0 min 0,0 UV-I 0 W/m -3,9 C -2,5 C 9,7 km/h (2 Bft)
20.01.2023 05:38 -2,5 C -2,8 C 90 % 1014,7 hPa 0,0 l/m 3,2 km/h (1 Bft) S-SW 202 0 min 0,0 UV-I 0 W/m -3,9 C -2,5 C 6,4 km/h (2 Bft)
20.01.2023 05:39 -2,5 C -2,8 C 90 % 1014,8 hPa 0,0 l/m 8,0 km/h (2 Bft) S-SW 202 0 min 0,0 UV-I 0 W/m -3,9 C -4,3 C 11,3 km/h (2 Bft)
20.01.2023 05:40 -2,5 C -2,8 C 90 % 1014,7 hPa 0,0 l/m 8,0 km/h (2 Bft) S-SW 202 0 min 0,0 UV-I 0 W/m -3,9 C -4,3 C 12,9 km/h (3 Bft)
20.01.2023 05:41 -2,5 C -2,8 C 90 % 1014,6 hPa 0,0 l/m 8,0 km/h (2 Bft) S-SW 202 0 min 0,0 UV-I 0 W/m -3,9 C -4,3 C 11,3 km/h (2 Bft)
20.01.2023 05:42 -2,5 C -2,8 C 90 % 1014,8 hPa 0,0 l/m 9,7 km/h (2 Bft) S-SW 202 0 min 0,0 UV-I 0 W/m -3,9 C -5,9 C 14,5 km/h (3 Bft)
20.01.2023 05:43 -2,5 C -2,8 C 90 % 1014,7 hPa 0,0 l/m 8,0 km/h (2 Bft) S-SW 202 0 min 0,0 UV-I 0 W/m -3,9 C -4,3 C 9,7 km/h (2 Bft)
20.01.2023 05:44 -2,6 C -2,8 C 90 % 1014,7 hPa 0,0 l/m 4,8 km/h (1 Bft) S-SW 202 0 min 0,0 UV-I 0 W/m -4,0 C -2,6 C 11,3 km/h (2 Bft)
20.01.2023 05:45 -2,6 C -2,8 C 90 % 1014,7 hPa 0,0 l/m 6,4 km/h (2 Bft) S-SW 202 0 min 0,0 UV-I 0 W/m -4,0 C -2,6 C 9,7 km/h (2 Bft)
20.01.2023 05:46 -2,6 C -2,8 C 90 % 1014,8 hPa 0,0 l/m 6,4 km/h (2 Bft) S-SW 202 0 min 0,0 UV-I 0 W/m -4,0 C -2,6 C 9,7 km/h (2 Bft)
20.01.2023 05:47 -2,6 C -2,8 C 90 % 1014,8 hPa 0,0 l/m 9,7 km/h (2 Bft) S-SW 202 0 min 0,0 UV-I 0 W/m -4,0 C -6,0 C 14,5 km/h (3 Bft)
20.01.2023 05:48 -2,6 C -2,8 C 90 % 1014,9 hPa 0,0 l/m 4,8 km/h (1 Bft) S-SW 202 0 min 0,0 UV-I 0 W/m -4,0 C -2,6 C 9,7 km/h (2 Bft)
20.01.2023 05:49 -2,6 C -2,8 C 90 % 1014,8 hPa 0,0 l/m 4,8 km/h (1 Bft) W-SW 247 0 min 0,0 UV-I 0 W/m -4,0 C -2,6 C 6,4 km/h (2 Bft)
20.01.2023 05:50 -2,6 C -2,8 C 90 % 1014,9 hPa 0,0 l/m 3,2 km/h (1 Bft) SW 225 0 min 0,0 UV-I 0 W/m -4,0 C -2,6 C 6,4 km/h (2 Bft)
20.01.2023 05:51 -2,6 C -2,8 C 90 % 1014,8 hPa 0,0 l/m 4,8 km/h (1 Bft) SW 225 0 min 0,0 UV-I 0 W/m -4,0 C -2,6 C 9,7 km/h (2 Bft)
20.01.2023 05:52 -2,6 C -2,8 C 90 % 1014,8 hPa 0,0 l/m 9,7 km/h (2 Bft) S-SW 202 0 min 0,0 UV-I 0 W/m -4,0 C -6,0 C 12,9 km/h (3 Bft)
20.01.2023 05:53 -2,6 C -2,8 C 90 % 1014,9 hPa 0,0 l/m 9,7 km/h (2 Bft) S-SW 202 0 min 0,0 UV-I 0 W/m -4,0 C -6,0 C 14,5 km/h (3 Bft)
20.01.2023 05:54 -2,6 C -2,8 C 90 % 1014,8 hPa 0,0 l/m 8,0 km/h (2 Bft) S-SW 202 0 min 0,0 UV-I 0 W/m -4,0 C -4,4 C 11,3 km/h (2 Bft)
20.01.2023 05:55 -2,5 C -2,8 C 90 % 1014,8 hPa 0,0 l/m 6,4 km/h (2 Bft) S-SW 202 0 min 0,0 UV-I 0 W/m -3,9 C -2,5 C 9,7 km/h (2 Bft)
20.01.2023 05:56 -2,6 C -2,8 C 90 % 1014,8 hPa 0,0 l/m 4,8 km/h (1 Bft) S-SW 202 0 min 0,0 UV-I 0 W/m -4,0 C -2,6 C 8,0 km/h (2 Bft)
20.01.2023 05:57 -2,6 C -2,8 C 90 % 1014,8 hPa 0,0 l/m 8,0 km/h (2 Bft) S-SW 202 0 min 0,0 UV-I 0 W/m -4,0 C -4,4 C 12,9 km/h (3 Bft)
20.01.2023 05:58 -2,6 C -2,8 C 90 % 1014,8 hPa 0,0 l/m 9,7 km/h (2 Bft) SW 225 0 min 0,0 UV-I 0 W/m -4,0 C -6,0 C 12,9 km/h (3 Bft)
20.01.2023 05:59 -2,6 C -2,8 C 90 % 1014,9 hPa 0,0 l/m 8,0 km/h (2 Bft) SW 225 0 min 0,0 UV-I 0 W/m -4,0 C -4,4 C 11,3 km/h (2 Bft)
20.01.2023 06:00 -2,6 C -2,8 C 90 % 1014,8 hPa 0,0 l/m 4,8 km/h (1 Bft) SW 225 0 min 0,0 UV-I 0 W/m -4,0 C -2,6 C 8,0 km/h (2 Bft)
20.01.2023 06:01 -2,6 C -2,8 C 90 % 1014,9 hPa 0,0 l/m 3,2 km/h (1 Bft) SW 225 0 min 0,0 UV-I 0 W/m -4,0 C -2,6 C 4,8 km/h (1 Bft)
20.01.2023 06:02 -2,6 C -2,8 C 90 % 1014,9 hPa 0,0 l/m 0,0 km/h (0 Bft) SW 225 0 min 0,0 UV-I 0 W/m -4,0 C -2,6 C 1,6 km/h (1 Bft)
20.01.2023 06:03 -2,6 C -2,8 C 90 % 1015,0 hPa 0,0 l/m 1,6 km/h (1 Bft) SW 225 0 min 0,0 UV-I 0 W/m -4,0 C -2,6 C 4,8 km/h (1 Bft)
20.01.2023 06:04 -2,6 C -2,8 C 90 % 1015,0 hPa 0,0 l/m 3,2 km/h (1 Bft) SW 225 0 min 0,0 UV-I 0 W/m -4,0 C -2,6 C 4,8 km/h (1 Bft)
20.01.2023 06:05 -2,6 C -2,8 C 90 % 1015,0 hPa 0,0 l/m 3,2 km/h (1 Bft) SW 225 0 min 0,0 UV-I 0 W/m -4,0 C -2,6 C 6,4 km/h (2 Bft)
20.01.2023 06:06 -2,6 C -2,8 C 90 % 1015,0 hPa 0,0 l/m 4,8 km/h (1 Bft) W-SW 247 0 min 0,0 UV-I 0 W/m -4,0 C -2,6 C 6,4 km/h (2 Bft)
20.01.2023 06:07 -2,6 C -2,8 C 90 % 1015,1 hPa 0,0 l/m 4,8 km/h (1 Bft) SW 225 0 min 0,0 UV-I 0 W/m -4,0 C -2,6 C 6,4 km/h (2 Bft)
20.01.2023 06:08 -2,6 C -2,8 C 90 % 1015,1 hPa 0,0 l/m 3,2 km/h (1 Bft) SW 225 0 min 0,0 UV-I 0 W/m -4,0 C -2,6 C 6,4 km/h (2 Bft)
20.01.2023 06:09 -2,6 C -2,8 C 90 % 1015,1 hPa 0,0 l/m 3,2 km/h (1 Bft) SW 225 0 min 0,0 UV-I 0 W/m -4,0 C -2,6 C 6,4 km/h (2 Bft)
20.01.2023 06:10 -2,6 C -2,8 C 90 % 1015,1 hPa 0,0 l/m 1,6 km/h (1 Bft) SW 225 0 min 0,0 UV-I 0 W/m -4,0 C -2,6 C 4,8 km/h (1 Bft)
20.01.2023 06:11 -2,6 C -2,8 C 90 % 1015,0 hPa 0,0 l/m 1,6 km/h (1 Bft) SW 225 0 min 0,0 UV-I 0 W/m -4,0 C -2,6 C 3,2 km/h (1 Bft)
20.01.2023 06:12 -2,6 C -3,3 C 90 % 1015,1 hPa 0,0 l/m 3,2 km/h (1 Bft) SW 225 0 min 0,0 UV-I 0 W/m -4,0 C -2,6 C 4,8 km/h (1 Bft)
20.01.2023 06:13 -2,6 C -3,3 C 90 % 1015,1 hPa 0,0 l/m 1,6 km/h (1 Bft) SW 225 0 min 0,0 UV-I 0 W/m -4,0 C -2,6 C 4,8 km/h (1 Bft)
20.01.2023 06:14 -2,6 C -3,3 C 90 % 1015,1 hPa 0,0 l/m 1,6 km/h (1 Bft) SW 225 0 min 0,0 UV-I 0 W/m -4,0 C -2,6 C 3,2 km/h (1 Bft)
20.01.2023 06:15 -2,6 C -3,3 C 90 % 1015,1 hPa 0,0 l/m 1,6 km/h (1 Bft) SW 225 0 min 0,0 UV-I 0 W/m -4,0 C -2,6 C 6,4 km/h (2 Bft)
20.01.2023 06:16 -2,6 C -3,3 C 90 % 1015,1 hPa 0,0 l/m 4,8 km/h (1 Bft) S-SW 202 0 min 0,0 UV-I 0 W/m -4,0 C -2,6 C 8,0 km/h (2 Bft)
20.01.2023 06:17 -2,6 C -2,8 C 90 % 1015,1 hPa 0,0 l/m 3,2 km/h (1 Bft) S-SW 202 0 min 0,0 UV-I 0 W/m -4,0 C -2,6 C 6,4 km/h (2 Bft)
20.01.2023 06:18 -2,6 C -2,8 C 90 % 1015,1 hPa 0,0 l/m 1,6 km/h (1 Bft) S 180 0 min 0,0 UV-I 0 W/m -4,0 C -2,6 C 4,8 km/h (1 Bft)
20.01.2023 06:19 -2,6 C -2,8 C 90 % 1015,1 hPa 0,0 l/m 1,6 km/h (1 Bft) S-SW 202 0 min 0,0 UV-I 0 W/m -4,0 C -2,6 C 6,4 km/h (2 Bft)
20.01.2023 06:20 -2,6 C -2,8 C 90 % 1015,1 hPa 0,0 l/m 4,8 km/h (1 Bft) S-SW 202 0 min 0,0 UV-I 0 W/m -4,0 C -2,6 C 8,0 km/h (2 Bft)
20.01.2023 06:21 -2,6 C -2,8 C 90 % 1015,0 hPa 0,0 l/m 1,6 km/h (1 Bft) S-SW 202 0 min 0,0 UV-I 0 W/m -4,0 C -2,6 C 3,2 km/h (1 Bft)
20.01.2023 06:22 -2,6 C -2,8 C 90 % 1015,1 hPa 0,0 l/m 1,6 km/h (1 Bft) S-SW 202 0 min 0,0 UV-I 0 W/m -4,0 C -2,6 C 4,8 km/h (1 Bft)
20.01.2023 06:23 -2,6 C -2,8 C 90 % 1015,0 hPa 0,0 l/m 0,0 km/h (0 Bft) S-SW 202 0 min 0,0 UV-I 0 W/m -4,0 C -2,6 C 3,2 km/h (1 Bft)
20.01.2023 06:24 -2,6 C -2,8 C 90 % 1015,1 hPa 0,0 l/m 1,6 km/h (1 Bft) S-SW 202 0 min 0,0 UV-I 0 W/m -4,0 C -2,6 C 6,4 km/h (2 Bft)
20.01.2023 06:25 -2,5 C -2,8 C 90 % 1015,1 hPa 0,0 l/m 0,0 km/h (0 Bft) N 0 0 min 0,0 UV-I 0 W/m -3,9 C -2,5 C 0,0 km/h (0 Bft)
20.01.2023 06:26 -2,6 C -2,8 C 90 % 1015,1 hPa 0,0 l/m 0,0 km/h (0 Bft) N 0 0 min 0,0 UV-I 0 W/m -4,0 C -2,6 C 0,0 km/h (0 Bft)
20.01.2023 06:27 -2,6 C -2,8 C 90 % 1015,1 hPa 0,0 l/m 0,0 km/h (0 Bft) S-SW 202 0 min 0,0 UV-I 0 W/m -4,0 C -2,6 C 1,6 km/h (1 Bft)
20.01.2023 06:28 -2,6 C -2,8 C 90 % 1015,0 hPa 0,0 l/m 0,0 km/h (0 Bft) S-SW 202 0 min 0,0 UV-I 0 W/m -4,0 C -2,6 C 3,2 km/h (1 Bft)
20.01.2023 06:29 -2,6 C -2,8 C 90 % 1015,1 hPa 0,0 l/m 0,0 km/h (0 Bft) S 180 0 min 0,0 UV-I 0 W/m -4,0 C -2,6 C 3,2 km/h (1 Bft)
20.01.2023 06:30 -2,6 C -3,3 C 90 % 1015,1 hPa 0,0 l/m 0,0 km/h (0 Bft) S 180 0 min 0,0 UV-I 0 W/m -4,0 C -2,6 C 3,2 km/h (1 Bft)
20.01.2023 06:31 -2,6 C -3,3 C 90 % 1015,0 hPa 0,0 l/m 0,0 km/h (0 Bft) S 180 0 min 0,0 UV-I 0 W/m -4,0 C -2,6 C 1,6 km/h (1 Bft)
20.01.2023 06:32 -2,6 C -3,3 C 90 % 1015,0 hPa 0,0 l/m 0,0 km/h (0 Bft) S 180 0 min 0,0 UV-I 0 W/m -4,0 C -2,6 C 1,6 km/h (1 Bft)
20.01.2023 06:33 -2,6 C -3,3 C 90 % 1015,0 hPa 0,0 l/m 1,6 km/h (1 Bft) S-SW 202 0 min 0,0 UV-I 0 W/m -4,0 C -2,6 C 4,8 km/h (1 Bft)
20.01.2023 06:34 -2,6 C -3,3 C 90 % 1015,1 hPa 0,0 l/m 0,0 km/h (0 Bft) S-SW 202 0 min 0,0 UV-I 0 W/m -4,0 C -2,6 C 1,6 km/h (1 Bft)
20.01.2023 06:35 -2,6 C -3,3 C 90 % 1015,0 hPa 0,0 l/m 3,2 km/h (1 Bft) S-SW 202 0 min 0,0 UV-I 0 W/m -4,0 C -2,6 C 4,8 km/h (1 Bft)
20.01.2023 06:36 -2,6 C -3,3 C 90 % 1015,0 hPa 0,0 l/m 1,6 km/h (1 Bft) S-SW 202 0 min 0,0 UV-I 0 W/m -4,0 C -2,6 C 4,8 km/h (1 Bft)
20.01.2023 06:37 -2,6 C -3,3 C 90 % 1015,2 hPa 0,0 l/m 0,0 km/h (0 Bft) S-SW 202 0 min 0,0 UV-I 0 W/m -4,0 C -2,6 C 3,2 km/h (1 Bft)
20.01.2023 06:38 -2,6 C -3,3 C 90 % 1015,0 hPa 0,0 l/m 0,0 km/h (0 Bft) S-SW 202 0 min 0,0 UV-I 0 W/m -4,0 C -2,6 C 3,2 km/h (1 Bft)
20.01.2023 06:39 -2,7 C -3,3 C 90 % 1015,1 hPa 0,0 l/m 3,2 km/h (1 Bft) S-SW 202 0 min 0,0 UV-I 0 W/m -4,1 C -2,7 C 8,0 km/h (2 Bft)
20.01.2023 06:40 -2,7 C -3,3 C 90 % 1015,1 hPa 0,0 l/m 1,6 km/h (1 Bft) S-SW 202 0 min 0,0 UV-I 0 W/m -4,1 C -2,7 C 4,8 km/h (1 Bft)
20.01.2023 06:41 -2,7 C -3,3 C 90 % 1015,2 hPa 0,0 l/m 0,0 km/h (0 Bft) S-SW 202 0 min 0,0 UV-I 0 W/m -4,1 C -2,7 C 1,6 km/h (1 Bft)
20.01.2023 06:42 -2,7 C -3,3 C 90 % 1015,2 hPa 0,0 l/m 0,0 km/h (0 Bft) N 0 0 min 0,0 UV-I 0 W/m -4,1 C -2,7 C 0,0 km/h (0 Bft)
20.01.2023 06:43 -2,7 C -3,3 C 90 % 1015,2 hPa 0,0 l/m 0,0 km/h (0 Bft) S-SW 202 0 min 0,0 UV-I 0 W/m -4,1 C -2,7 C 3,2 km/h (1 Bft)
20.01.2023 06:44 -2,7 C -3,3 C 90 % 1015,2 hPa 0,0 l/m 0,0 km/h (0 Bft) N 0 0 min 0,0 UV-I 0 W/m -4,1 C -2,7 C 0,0 km/h (0 Bft)
20.01.2023 06:45 -2,7 C -3,3 C 90 % 1015,1 hPa 0,0 l/m 0,0 km/h (0 Bft) N 0 0 min 0,0 UV-I 0 W/m -4,1 C -2,7 C 0,0 km/h (0 Bft)
20.01.2023 06:46 -2,7 C -3,3 C 90 % 1015,2 hPa 0,0 l/m 1,6 km/h (1 Bft) SW 225 0 min 0,0 UV-I 0 W/m -4,1 C -2,7 C 6,4 km/h (2 Bft)
20.01.2023 06:47 -2,7 C -3,3 C 90 % 1015,2 hPa 0,0 l/m 0,0 km/h (0 Bft) SW 225 0 min 0,0 UV-I 0 W/m -4,1 C -2,7 C 3,2 km/h (1 Bft)
20.01.2023 06:48 -2,7 C -3,3 C 90 % 1015,2 hPa 0,0 l/m 1,6 km/h (1 Bft) SW 225 0 min 0,0 UV-I 0 W/m -4,1 C -2,7 C 3,2 km/h (1 Bft)
20.01.2023 06:49 -2,7 C -3,3 C 90 % 1015,2 hPa 0,0 l/m 3,2 km/h (1 Bft) W-SW 247 0 min 0,0 UV-I 0 W/m -4,1 C -2,7 C 4,8 km/h (1 Bft)
20.01.2023 06:50 -2,7 C -3,3 C 90 % 1015,3 hPa 0,0 l/m 3,2 km/h (1 Bft) W-SW 247 0 min 0,0 UV-I 0 W/m -4,1 C -2,7 C 6,4 km/h (2 Bft)
20.01.2023 06:51 -2,7 C -3,3 C 90 % 1015,3 hPa 0,0 l/m 1,6 km/h (1 Bft) W-SW 247 0 min 0,0 UV-I 0 W/m -4,1 C -2,7 C 3,2 km/h (1 Bft)
20.01.2023 06:52 -2,8 C -3,3 C 90 % 1015,4 hPa 0,0 l/m 3,2 km/h (1 Bft) W-SW 247 0 min 0,0 UV-I 0 W/m -4,2 C -2,8 C 4,8 km/h (1 Bft)
20.01.2023 06:53 -2,8 C -3,3 C 90 % 1015,3 hPa 0,0 l/m 1,6 km/h (1 Bft) W 270 0 min 0,0 UV-I 0 W/m -4,2 C -2,8 C 4,8 km/h (1 Bft)
20.01.2023 06:54 -2,8 C -3,3 C 90 % 1015,3 hPa 0,0 l/m 0,0 km/h (0 Bft) W-SW 247 0 min 0,0 UV-I 0 W/m -4,2 C -2,8 C 1,6 km/h (1 Bft)
20.01.2023 06:55 -2,7 C -3,3 C 90 % 1015,3 hPa 0,0 l/m 3,2 km/h (1 Bft) W-SW 247 0 min 0,0 UV-I 0 W/m -4,1 C -2,7 C 9,7 km/h (2 Bft)
20.01.2023 06:56 -2,8 C -3,3 C 90 % 1015,3 hPa 0,0 l/m 0,0 km/h (0 Bft) N 0 0 min 0,0 UV-I 0 W/m -4,2 C -2,8 C 0,0 km/h (0 Bft)
20.01.2023 06:57 -2,8 C -3,3 C 90 % 1015,3 hPa 0,0 l/m 0,0 km/h (0 Bft) W-SW 247 0 min 0,0 UV-I 0 W/m -4,2 C -2,8 C 1,6 km/h (1 Bft)
20.01.2023 06:58 -2,8 C -3,3 C 90 % 1015,3 hPa 0,0 l/m 0,0 km/h (0 Bft) W-SW 247 0 min 0,0 UV-I 0 W/m -4,2 C -2,8 C 1,6 km/h (1 Bft)
20.01.2023 06:59 -2,8 C -3,3 C 90 % 1015,3 hPa 0,0 l/m 3,2 km/h (1 Bft) W-SW 247 0 min 0,0 UV-I 0 W/m -4,2 C -2,8 C 8,0 km/h (2 Bft)
20.01.2023 07:00 -2,8 C -3,3 C 90 % 1015,3 hPa 0,0 l/m 4,8 km/h (1 Bft) SW 225 0 min 0,0 UV-I 0 W/m -4,2 C -2,8 C 8,0 km/h (2 Bft)
20.01.2023 07:01 -2,8 C -3,3 C 90 % 1015,4 hPa 0,0 l/m 1,6 km/h (1 Bft) SW 225 0 min 0,0 UV-I 0 W/m -4,2 C -2,8 C 4,8 km/h (1 Bft)
20.01.2023 07:02 -2,8 C -3,3 C 90 % 1015,4 hPa 0,0 l/m 9,7 km/h (2 Bft) W-SW 247 0 min 0,0 UV-I 0 W/m -4,2 C -6,3 C 16,1 km/h (3 Bft)
20.01.2023 07:03 -2,8 C -3,3 C 90 % 1015,3 hPa 0,0 l/m 4,8 km/h (1 Bft) W-SW 247 0 min 0,0 UV-I 0 W/m -4,2 C -2,8 C 6,4 km/h (2 Bft)
20.01.2023 07:04 -2,7 C -3,3 C 90 % 1015,4 hPa 0,0 l/m 4,8 km/h (1 Bft) W-SW 247 0 min 0,0 UV-I 0 W/m -4,1 C -2,7 C 9,7 km/h (2 Bft)
20.01.2023 07:05 -2,8 C -3,3 C 90 % 1015,4 hPa 0,0 l/m 3,2 km/h (1 Bft) SW 225 0 min 0,0 UV-I 0 W/m -4,2 C -2,8 C 6,4 km/h (2 Bft)
20.01.2023 07:06 -2,7 C -2,8 C 90 % 1015,3 hPa 0,0 l/m 4,8 km/h (1 Bft) SW 225 0 min 0,0 UV-I 0 W/m -4,1 C -2,7 C 6,4 km/h (2 Bft)
20.01.2023 07:07 -2,7 C -2,8 C 90 % 1015,3 hPa 0,0 l/m 3,2 km/h (1 Bft) SW 225 0 min 0,0 UV-I 0 W/m -4,1 C -2,7 C 9,7 km/h (2 Bft)
20.01.2023 07:08 -2,7 C -2,8 C 90 % 1015,4 hPa 0,0 l/m 6,4 km/h (2 Bft) S-SW 202 0 min 0,0 UV-I 0 W/m -4,1 C -2,7 C 11,3 km/h (2 Bft)
20.01.2023 07:09 -2,7 C -2,8 C 90 % 1015,4 hPa 0,0 l/m 1,6 km/h (1 Bft) SW 225 0 min 0,0 UV-I 0 W/m -4,1 C -2,7 C 4,8 km/h (1 Bft)
20.01.2023 07:10 -2,7 C -2,8 C 90 % 1015,4 hPa 0,0 l/m 1,6 km/h (1 Bft) SW 225 0 min 0,0 UV-I 0 W/m -4,1 C -2,7 C 9,7 km/h (2 Bft)
20.01.2023 07:11 -2,7 C -2,8 C 90 % 1015,5 hPa 0,0 l/m 6,4 km/h (2 Bft) SW 225 0 min 0,0 UV-I 0 W/m -4,1 C -2,7 C 11,3 km/h (2 Bft)
20.01.2023 07:12 -2,7 C -2,8 C 90 % 1015,5 hPa 0,0 l/m 3,2 km/h (1 Bft) S-SW 202 0 min 0,0 UV-I 0 W/m -4,1 C -2,7 C 8,0 km/h (2 Bft)
20.01.2023 07:13 -2,6 C -2,8 C 90 % 1015,5 hPa 0,0 l/m 6,4 km/h (2 Bft) S-SW 202 0 min 0,0 UV-I 0 W/m -4,0 C -2,6 C 11,3 km/h (2 Bft)
20.01.2023 07:14 -2,6 C -2,8 C 90 % 1015,4 hPa 0,0 l/m 11,3 km/h (2 Bft) S-SW 202 0 min 0,0 UV-I 0 W/m -4,0 C -7,4 C 12,9 km/h (3 Bft)
20.01.2023 07:15 -2,6 C -2,8 C 90 % 1015,4 hPa 0,0 l/m 8,0 km/h (2 Bft) SW 225 0 min 0,0 UV-I 0 W/m -4,0 C -4,4 C 11,3 km/h (2 Bft)
20.01.2023 07:16 -2,5 C -2,8 C 90 % 1015,5 hPa 0,0 l/m 6,4 km/h (2 Bft) SW 225 0 min 0,0 UV-I 0 W/m -3,9 C -2,5 C 9,7 km/h (2 Bft)
20.01.2023 07:17 -2,5 C -2,8 C 90 % 1015,5 hPa 0,0 l/m 6,4 km/h (2 Bft) S-SW 202 0 min 0,0 UV-I 0 W/m -3,9 C -2,5 C 9,7 km/h (2 Bft)
20.01.2023 07:18 -2,5 C -2,8 C 90 % 1015,5 hPa 0,0 l/m 3,2 km/h (1 Bft) S-SW 202 0 min 0,0 UV-I 0 W/m -3,9 C -2,5 C 4,8 km/h (1 Bft)
20.01.2023 07:19 -2,5 C -2,8 C 90 % 1015,5 hPa 0,0 l/m 3,2 km/h (1 Bft) S-SW 202 0 min 0,0 UV-I 0 W/m -3,9 C -2,5 C 4,8 km/h (1 Bft)
20.01.2023 07:20 -2,5 C -2,8 C 90 % 1015,6 hPa 0,0 l/m 3,2 km/h (1 Bft) S 180 0 min 0,0 UV-I 0 W/m -3,9 C -2,5 C 4,8 km/h (1 Bft)
20.01.2023 07:21 -2,4 C -2,8 C 90 % 1015,5 hPa 0,0 l/m 0,0 km/h (0 Bft) S 180 0 min 0,0 UV-I 0 W/m -3,8 C -2,4 C 1,6 km/h (1 Bft)
20.01.2023 07:22 -2,4 C -2,8 C 90 % 1015,6 hPa 0,0 l/m 1,6 km/h (1 Bft) S 180 0 min 0,0 UV-I 0 W/m -3,8 C -2,4 C 3,2 km/h (1 Bft)
20.01.2023 07:23 -2,4 C -2,8 C 90 % 1015,5 hPa 0,0 l/m 3,2 km/h (1 Bft) S 180 0 min 0,0 UV-I 0 W/m -3,8 C -2,4 C 4,8 km/h (1 Bft)
20.01.2023 07:24 -2,4 C -2,8 C 90 % 1015,5 hPa 0,0 l/m 4,8 km/h (1 Bft) S-SW 202 0 min 0,0 UV-I 0 W/m -3,8 C -2,4 C 6,4 km/h (2 Bft)
20.01.2023 07:25 -2,4 C -2,8 C 90 % 1015,6 hPa 0,0 l/m 3,2 km/h (1 Bft) W-SW 247 0 min 0,0 UV-I 0 W/m -3,8 C -2,4 C 6,4 km/h (2 Bft)
20.01.2023 07:26 -2,4 C -2,8 C 90 % 1015,6 hPa 0,0 l/m 4,8 km/h (1 Bft) S-SW 202 0 min 0,0 UV-I 0 W/m -3,8 C -2,4 C 8,0 km/h (2 Bft)
20.01.2023 07:27 -2,4 C -2,8 C 90 % 1015,5 hPa 0,0 l/m 3,2 km/h (1 Bft) S-SW 202 0 min 0,0 UV-I 0 W/m -3,8 C -2,4 C 4,8 km/h (1 Bft)
20.01.2023 07:28 -2,4 C -2,8 C 90 % 1015,6 hPa 0,0 l/m 3,2 km/h (1 Bft) S-SW 202 0 min 0,0 UV-I 0 W/m -3,8 C -2,4 C 6,4 km/h (2 Bft)
20.01.2023 07:29 -2,4 C -2,8 C 90 % 1015,6 hPa 0,0 l/m 1,6 km/h (1 Bft) SW 225 0 min 0,0 UV-I 0 W/m -3,8 C -2,4 C 3,2 km/h (1 Bft)
20.01.2023 07:30 -2,4 C -2,8 C 90 % 1015,5 hPa 0,0 l/m 4,8 km/h (1 Bft) SW 225 0 min 0,0 UV-I 0 W/m -3,8 C -2,4 C 8,0 km/h (2 Bft)
20.01.2023 07:31 -2,4 C -2,8 C 90 % 1015,5 hPa 0,0 l/m 4,8 km/h (1 Bft) S-SW 202 0 min 0,0 UV-I 0 W/m -3,8 C -2,4 C 8,0 km/h (2 Bft)
20.01.2023 07:32 -2,4 C -2,8 C 90 % 1015,6 hPa 0,0 l/m 4,8 km/h (1 Bft) SW 225 0 min 0,0 UV-I 0 W/m -3,8 C -2,4 C 8,0 km/h (2 Bft)
20.01.2023 07:33 -2,4 C -2,8 C 90 % 1015,6 hPa 0,0 l/m 8,0 km/h (2 Bft) S-SW 202 0 min 0,0 UV-I 0 W/m -3,8 C -4,2 C 12,9 km/h (3 Bft)
20.01.2023 07:34 -2,4 C -2,8 C 90 % 1015,7 hPa 0,0 l/m 8,0 km/h (2 Bft) S-SW 202 0 min 0,0 UV-I 0 W/m -3,8 C -4,2 C 12,9 km/h (3 Bft)
20.01.2023 07:35 -2,4 C -2,8 C 90 % 1015,6 hPa 0,0 l/m 9,7 km/h (2 Bft) S-SW 202 0 min 0,0 UV-I 0 W/m -3,8 C -5,8 C 12,9 km/h (3 Bft)
20.01.2023 07:39 -2,4 C -2,8 C 90 % 1015,6 hPa 0,0 l/m 8,4 km/h (2 Bft) SW 226 0 min 0,0 UV-I 0 W/m -3,8 C -4,6 C 16,1 km/h (3 Bft)
20.01.2023 07:42 -2,3 C -2,8 C 90 % 1015,7 hPa 0,0 l/m 7,8 km/h (2 Bft) S-SW 203 0 min 0,0 UV-I 0 W/m -3,7 C -3,8 C 12,9 km/h (3 Bft)
20.01.2023 07:45 -2,3 C -2,8 C 90 % 1015,7 hPa 0,0 l/m 8,2 km/h (2 Bft) S 182 0 min 0,0 UV-I 0 W/m -3,7 C -4,3 C 12,9 km/h (3 Bft)
20.01.2023 07:48 -2,3 C -2,8 C 90 % 1015,8 hPa 0,0 l/m 8,7 km/h (2 Bft) S-SW 199 0 min 0,0 UV-I 0 W/m -3,7 C -4,8 C 14,5 km/h (3 Bft)
20.01.2023 07:51 -2,3 C -2,8 C 90 % 1015,8 hPa 0,0 l/m 11,1 km/h (2 Bft) S-SW 207 0 min 0,0 UV-I 0 W/m -3,7 C -6,9 C 16,1 km/h (3 Bft)
20.01.2023 07:54 -2,3 C -2,8 C 90 % 1015,9 hPa 0,0 l/m 11,1 km/h (2 Bft) S-SW 202 0 min 0,0 UV-I 0 W/m -3,7 C -6,9 C 17,7 km/h (3 Bft)
20.01.2023 07:57 -2,3 C -2,8 C 90 % 1015,9 hPa 0,0 l/m 10,1 km/h (2 Bft) S 171 0 min 0,0 UV-I 0 W/m -3,7 C -6,1 C 16,1 km/h (3 Bft)
20.01.2023 08:00 -2,3 C -2,8 C 90 % 1016,0 hPa 0,0 l/m 8,5 km/h (2 Bft) S-SW 204 0 min 0,0 UV-I 0 W/m -3,7 C -4,6 C 12,9 km/h (3 Bft)
20.01.2023 08:03 -2,4 C -2,8 C 90 % 1016,0 hPa 0,0 l/m 9,0 km/h (2 Bft) S-SW 209 0 min 0,0 UV-I 0 W/m -3,8 C -5,2 C 12,9 km/h (3 Bft)
20.01.2023 08:04 -2,3 C -2,8 C 90 % 1016,1 hPa 0,0 l/m 9,7 km/h (2 Bft) S-SW 202 0 min 0,0 UV-I 0 W/m -3,7 C -5,7 C 12,9 km/h (3 Bft)
20.01.2023 08:06 -2,3 C -2,8 C 90 % 1016,2 hPa 0,0 l/m 8,9 km/h (2 Bft) S-SW 203 0 min 0,0 UV-I 0 W/m -3,7 C -5,0 C 11,3 km/h (2 Bft)
20.01.2023 08:09 -2,4 C -2,8 C 90 % 1016,2 hPa 0,0 l/m 10,7 km/h (2 Bft) S-SW 213 0 min 0,0 UV-I 0 W/m -3,8 C -6,7 C 16,1 km/h (3 Bft)
20.01.2023 08:12 -2,4 C -2,8 C 90 % 1016,2 hPa 0,0 l/m 9,5 km/h (2 Bft) S-SW 205 0 min 0,0 UV-I 0 W/m -3,8 C -5,6 C 14,5 km/h (3 Bft)
20.01.2023 08:15 -2,4 C -2,8 C 90 % 1016,3 hPa 0,0 l/m 11,3 km/h (2 Bft) S 178 0 min 0,0 UV-I 0 W/m -3,8 C -7,2 C 16,1 km/h (3 Bft)
20.01.2023 08:18 -2,4 C -2,8 C 90 % 1016,2 hPa 0,0 l/m 8,5 km/h (2 Bft) SW 227 0 min 0,0 UV-I 0 W/m -3,8 C -4,7 C 12,9 km/h (3 Bft)
20.01.2023 08:21 -2,4 C -2,8 C 90 % 1016,3 hPa 0,0 l/m 9,2 km/h (2 Bft) S-SW 196 0 min 0,0 UV-I 0 W/m -3,8 C -5,4 C 14,5 km/h (3 Bft)
20.01.2023 08:24 -2,4 C -2,8 C 90 % 1016,3 hPa 0,0 l/m 7,6 km/h (2 Bft) S 171 0 min 0,0 UV-I 0 W/m -3,8 C -3,7 C 12,9 km/h (3 Bft)
20.01.2023 08:27 -2,4 C -2,8 C 90 % 1016,4 hPa 0,0 l/m 8,5 km/h (2 Bft) S-SW 192 0 min 0,0 UV-I 0 W/m -3,8 C -4,7 C 12,9 km/h (3 Bft)
20.01.2023 08:30 -2,4 C -2,8 C 90 % 1016,3 hPa 0,0 l/m 10,1 km/h (2 Bft) S 189 0 min 0,0 UV-I 1 W/m -3,8 C -6,2 C 17,7 km/h (3 Bft)
20.01.2023 08:33 -2,4 C -2,8 C 90 % 1016,4 hPa 0,0 l/m 8,2 km/h (2 Bft) S-SW 200 0 min 0,0 UV-I 6 W/m -3,8 C -4,4 C 12,9 km/h (3 Bft)
20.01.2023 08:36 -2,5 C -2,8 C 90 % 1016,4 hPa 0,0 l/m 7,8 km/h (2 Bft) S 184 0 min 0,0 UV-I 8 W/m -3,9 C -4,1 C 12,9 km/h (3 Bft)
20.01.2023 08:39 -2,5 C -2,8 C 90 % 1016,4 hPa 0,0 l/m 8,2 km/h (2 Bft) S 188 0 min 0,0 UV-I 11 W/m -3,9 C -4,5 C 12,9 km/h (3 Bft)
20.01.2023 08:42 -2,5 C -2,8 C 90 % 1016,5 hPa 0,0 l/m 6,3 km/h (2 Bft) S-SW 206 0 min 0,0 UV-I 12 W/m -3,9 C -2,5 C 8,0 km/h (2 Bft)
20.01.2023 08:45 -2,5 C -2,8 C 91 % 1016,5 hPa 0,0 l/m 5,0 km/h (1 Bft) S-SW 203 0 min 0,0 UV-I 11 W/m -3,8 C -2,5 C 9,7 km/h (2 Bft)
20.01.2023 08:48 -2,4 C -2,8 C 91 % 1016,7 hPa 0,0 l/m 5,9 km/h (2 Bft) S-SW 199 0 min 0,0 UV-I 14 W/m -3,7 C -2,4 C 9,7 km/h (2 Bft)
20.01.2023 08:51 -2,4 C -2,8 C 91 % 1016,6 hPa 0,0 l/m 5,3 km/h (1 Bft) S 178 0 min 0,0 UV-I 17 W/m -3,7 C -2,4 C 9,7 km/h (2 Bft)
20.01.2023 08:54 -2,4 C -2,8 C 91 % 1016,7 hPa 0,0 l/m 6,3 km/h (2 Bft) S-SO 167 0 min 0,0 UV-I 20 W/m -3,7 C -2,4 C 14,5 km/h (3 Bft)
20.01.2023 08:57 -2,4 C -2,8 C 91 % 1016,8 hPa 0,0 l/m 7,0 km/h (2 Bft) S-SO 158 0 min 0,0 UV-I 20 W/m -3,7 C -3,1 C 11,3 km/h (2 Bft)
20.01.2023 09:00 -2,4 C -2,8 C 91 % 1016,8 hPa 0,0 l/m 8,0 km/h (2 Bft) S 176 0 min 0,0 UV-I 26 W/m -3,7 C -4,2 C 14,5 km/h (3 Bft)
20.01.2023 09:03 -2,4 C -2,2 C 91 % 1016,8 hPa 0,0 l/m 6,7 km/h (2 Bft) S-SO 165 0 min 0,0 UV-I 35 W/m -3,7 C -2,7 C 11,3 km/h (2 Bft)
20.01.2023 09:06 -2,4 C -2,2 C 91 % 1016,8 hPa 0,0 l/m 7,4 km/h (2 Bft) S-SO 160 0 min 0,0 UV-I 44 W/m -3,7 C -3,5 C 11,3 km/h (2 Bft)
20.01.2023 09:09 -2,3 C -2,2 C 91 % 1016,8 hPa 0,0 l/m 7,9 km/h (2 Bft) S-SO 166 0 min 0,0 UV-I 44 W/m -3,6 C -4,0 C 14,5 km/h (3 Bft)
20.01.2023 09:12 -2,3 C -2,2 C 90 % 1016,7 hPa 0,0 l/m 10,7 km/h (2 Bft) S 174 0 min 0,0 UV-I 37 W/m -3,7 C -6,6 C 17,7 km/h (3 Bft)
20.01.2023 09:15 -2,3 C -2,2 C 91 % 1016,8 hPa 0,0 l/m 9,3 km/h (2 Bft) S-SO 163 0 min 0,0 UV-I 33 W/m -3,6 C -5,4 C 14,5 km/h (3 Bft)
20.01.2023 09:18 -2,3 C -2,8 C 91 % 1016,8 hPa 0,0 l/m 11,9 km/h (2 Bft) S-SO 168 0 min 0,0 UV-I 35 W/m -3,6 C -7,6 C 19,3 km/h (3 Bft)
20.01.2023 09:21 -2,4 C -2,8 C 91 % 1016,9 hPa 0,0 l/m 10,1 km/h (2 Bft) S-SW 202 0 min 0,0 UV-I 37 W/m -3,7 C -6,2 C 16,1 km/h (3 Bft)
20.01.2023 09:24 -2,4 C -2,2 C 91 % 1016,9 hPa 0,0 l/m 9,3 km/h (2 Bft) S-SW 192 0 min 0,0 UV-I 39 W/m -3,7 C -5,5 C 14,5 km/h (3 Bft)
20.01.2023 09:27 -2,4 C -2,2 C 91 % 1017,0 hPa 0,0 l/m 11,0 km/h (2 Bft) SW 215 0 min 0,0 UV-I 39 W/m -3,7 C -7,0 C 14,5 km/h (3 Bft)
20.01.2023 09:30 -2,4 C -2,2 C 91 % 1017,0 hPa 0,0 l/m 9,6 km/h (2 Bft) SW 214 0 min 0,0 UV-I 33 W/m -3,7 C -5,7 C 14,5 km/h (3 Bft)
20.01.2023 09:33 -2,4 C -2,2 C 91 % 1017,2 hPa 0,0 l/m 10,6 km/h (2 Bft) S 180 0 min 0,0 UV-I 29 W/m -3,7 C -6,6 C 17,7 km/h (3 Bft)
20.01.2023 09:36 -2,4 C -2,8 C 91 % 1017,1 hPa 0,0 l/m 9,9 km/h (2 Bft) S-SW 192 0 min 0,0 UV-I 30 W/m -3,7 C -6,0 C 17,7 km/h (3 Bft)
20.01.2023 09:39 -2,4 C -2,8 C 91 % 1017,1 hPa 0,0 l/m 9,5 km/h (2 Bft) S-SW 192 0 min 0,0 UV-I 37 W/m -3,7 C -5,6 C 16,1 km/h (3 Bft)
20.01.2023 09:42 -2,4 C -2,8 C 91 % 1017,2 hPa 0,0 l/m 7,2 km/h (2 Bft) S 173 0 min 0,0 UV-I 47 W/m -3,7 C -3,3 C 14,5 km/h (3 Bft)
20.01.2023 09:45 -2,4 C -2,2 C 91 % 1017,1 hPa 0,0 l/m 9,7 km/h (2 Bft) SW 222 0 min 0,0 UV-I 55 W/m -3,7 C -5,8 C 14,5 km/h (3 Bft)
20.01.2023 09:48 -2,4 C -2,2 C 91 % 1017,2 hPa 0,0 l/m 9,9 km/h (2 Bft) S-SW 213 0 min 0,0 UV-I 65 W/m -3,7 C -6,0 C 16,1 km/h (3 Bft)
20.01.2023 09:51 -2,4 C -2,2 C 91 % 1017,3 hPa 0,0 l/m 12,4 km/h (3 Bft) SW 221 0 min 0,0 UV-I 65 W/m -3,7 C -8,1 C 17,7 km/h (3 Bft)
20.01.2023 09:54 -2,4 C -2,2 C 91 % 1017,3 hPa 0,0 l/m 10,3 km/h (2 Bft) S-SW 207 0 min 0,0 UV-I 51 W/m -3,7 C -6,4 C 12,9 km/h (3 Bft)
20.01.2023 09:57 -2,4 C -2,2 C 91 % 1017,3 hPa 0,0 l/m 8,6 km/h (2 Bft) S 169 0 min 0,0 UV-I 39 W/m -3,7 C -4,8 C 16,1 km/h (3 Bft)
20.01.2023 10:00 -2,4 C -2,8 C 91 % 1017,3 hPa 0,0 l/m 8,2 km/h (2 Bft) S-SW 209 0 min 0,0 UV-I 32 W/m -3,7 C -4,4 C 16,1 km/h (3 Bft)
20.01.2023 10:03 -2,4 C -2,8 C 91 % 1017,3 hPa 0,0 l/m 10,5 km/h (2 Bft) S-SW 203 0 min 0,0 UV-I 33 W/m -3,7 C -6,5 C 16,1 km/h (3 Bft)
20.01.2023 10:06 -2,4 C -2,2 C 91 % 1017,3 hPa 0,0 l/m 9,2 km/h (2 Bft) S 190 0 min 0,0 UV-I 42 W/m -3,7 C -5,4 C 14,5 km/h (3 Bft)
20.01.2023 10:09 -2,4 C -2,2 C 91 % 1017,3 hPa 0,0 l/m 10,9 km/h (2 Bft) SW 221 0 min 0,0 UV-I 44 W/m -3,7 C -6,9 C 17,7 km/h (3 Bft)
20.01.2023 10:12 -2,4 C -2,2 C 91 % 1017,3 hPa 0,0 l/m 11,5 km/h (2 Bft) SW 217 0 min 0,0 UV-I 40 W/m -3,7 C -7,4 C 16,1 km/h (3 Bft)
20.01.2023 10:15 -2,4 C -2,2 C 91 % 1017,4 hPa 0,0 l/m 11,2 km/h (2 Bft) S 171 0 min 0,0 UV-I 41 W/m -3,7 C -7,1 C 17,7 km/h (3 Bft)
20.01.2023 10:18 -2,4 C -2,2 C 91 % 1017,3 hPa 0,0 l/m 10,4 km/h (2 Bft) S-SW 196 0 min 0,0 UV-I 41 W/m -3,7 C -6,5 C 17,7 km/h (3 Bft)
20.01.2023 10:21 -2,4 C -2,2 C 91 % 1017,4 hPa 0,0 l/m 7,9 km/h (2 Bft) S 171 0 min 0,0 UV-I 44 W/m -3,7 C -4,1 C 14,5 km/h (3 Bft)
20.01.2023 10:24 -2,3 C -2,2 C 91 % 1017,4 hPa 0,0 l/m 7,8 km/h (2 Bft) S-SW 192 0 min 0,0 UV-I 53 W/m -3,6 C -3,8 C 14,5 km/h (3 Bft)
20.01.2023 10:27 -2,3 C -2,2 C 91 % 1017,4 hPa 0,0 l/m 9,1 km/h (2 Bft) S-SO 163 0 min 0,0 UV-I 68 W/m -3,6 C -5,2 C 16,1 km/h (3 Bft)
20.01.2023 10:30 -2,3 C -2,2 C 91 % 1017,4 hPa 0,0 l/m 9,5 km/h (2 Bft) S-SO 168 0 min 0,0 UV-I 76 W/m -3,6 C -5,5 C 16,1 km/h (3 Bft)
20.01.2023 10:33 -2,3 C -2,2 C 91 % 1017,4 hPa 0,0 l/m 8,1 km/h (2 Bft) S 182 0 min 0,0 UV-I 82 W/m -3,6 C -4,2 C 14,5 km/h (3 Bft)
20.01.2023 10:36 -2,2 C -2,2 C 91 % 1017,4 hPa 0,0 l/m 7,3 km/h (2 Bft) S-SW 205 0 min 0,0 UV-I 89 W/m -3,5 C -3,2 C 14,5 km/h (3 Bft)
20.01.2023 10:39 -2,2 C -1,7 C 91 % 1017,4 hPa 0,0 l/m 10,2 km/h (2 Bft) S 185 0 min 0,0 UV-I 97 W/m -3,5 C -6,1 C 19,3 km/h (3 Bft)
20.01.2023 10:42 -2,2 C -1,7 C 91 % 1017,4 hPa 0,0 l/m 11,0 km/h (2 Bft) S-SO 159 0 min 0,0 UV-I 112 W/m -3,5 C -6,7 C 20,9 km/h (4 Bft)
20.01.2023 10:45 -2,2 C -1,7 C 91 % 1017,4 hPa 0,0 l/m 9,9 km/h (2 Bft) S-SW 213 0 min 0,0 UV-I 120 W/m -3,5 C -5,8 C 16,1 km/h (3 Bft)
20.01.2023 10:48 -2,2 C -1,7 C 91 % 1017,4 hPa 0,0 l/m 8,4 km/h (2 Bft) S 174 0 min 0,0 UV-I 126 W/m -3,5 C -4,4 C 16,1 km/h (3 Bft)
20.01.2023 10:51 -2,1 C -1,7 C 91 % 1017,5 hPa 0,0 l/m 8,8 km/h (2 Bft) S 190 0 min 0,0 UV-I 122 W/m -3,4 C -4,7 C 14,5 km/h (3 Bft)
20.01.2023 10:54 -2,1 C -1,7 C 91 % 1017,4 hPa 0,0 l/m 10,4 km/h (2 Bft) S-SW 192 0 min 0,0 UV-I 103 W/m -3,4 C -6,1 C 16,1 km/h (3 Bft)
20.01.2023 10:57 -2,1 C -1,7 C 91 % 1017,6 hPa 0,0 l/m 8,9 km/h (2 Bft) S 190 0 min 0,0 UV-I 90 W/m -3,4 C -4,8 C 14,5 km/h (3 Bft)
20.01.2023 11:00 -2,1 C -1,7 C 91 % 1017,6 hPa 0,0 l/m 8,9 km/h (2 Bft) S-SW 207 0 min 0,0 UV-I 83 W/m -3,4 C -4,8 C 19,3 km/h (3 Bft)
20.01.2023 11:03 -2,1 C -1,7 C 91 % 1017,5 hPa 0,0 l/m 9,7 km/h (2 Bft) S-SO 168 0 min 0,0 UV-I 68 W/m -3,4 C -5,5 C 14,5 km/h (3 Bft)
20.01.2023 11:06 -2,1 C -1,7 C 91 % 1017,5 hPa 0,0 l/m 6,9 km/h (2 Bft) S-SO 166 0 min 0,0 UV-I 61 W/m -3,4 C -2,6 C 11,3 km/h (2 Bft)
20.01.2023 11:09 -2,1 C -1,7 C 90 % 1017,5 hPa 0,0 l/m 12,6 km/h (3 Bft) S-SO 167 0 min 0,0 UV-I 74 W/m -3,5 C -7,9 C 24,1 km/h (4 Bft)
20.01.2023 11:12 -2,1 C -1,7 C 90 % 1017,5 hPa 0,0 l/m 8,5 km/h (2 Bft) S 182 0 min 0,0 UV-I 84 W/m -3,5 C -4,4 C 14,5 km/h (3 Bft)
20.01.2023 11:15 -2,0 C -1,7 C 90 % 1017,6 hPa 0,0 l/m 11,1 km/h (2 Bft) S-SW 193 0 min 0,5 UV-I 101 W/m -3,4 C -6,6 C 20,9 km/h (4 Bft)
20.01.2023 11:18 -1,9 C -1,7 C 90 % 1017,6 hPa 0,0 l/m 11,3 km/h (2 Bft) S 183 0 min 0,5 UV-I 118 W/m -3,3 C -6,6 C 19,3 km/h (3 Bft)
20.01.2023 11:21 -1,9 C -1,7 C 90 % 1017,6 hPa 0,0 l/m 8,4 km/h (2 Bft) S 178 0 min 0,0 UV-I 111 W/m -3,3 C -4,0 C 14,5 km/h (3 Bft)
20.01.2023 11:24 -1,9 C -1,1 C 90 % 1017,5 hPa 0,0 l/m 10,4 km/h (2 Bft) S 175 0 min 0,3 UV-I 118 W/m -3,3 C -5,9 C 17,7 km/h (3 Bft)
20.01.2023 11:27 -1,8 C -1,1 C 90 % 1017,6 hPa 0,0 l/m 10,3 km/h (2 Bft) SO 136 0 min 0,5 UV-I 122 W/m -3,2 C -5,7 C 19,3 km/h (3 Bft)
20.01.2023 11:30 -1,8 C -1,1 C 90 % 1017,6 hPa 0,0 l/m 10,9 km/h (2 Bft) S 175 0 min 0,2 UV-I 108 W/m -3,2 C -6,2 C 17,7 km/h (3 Bft)
20.01.2023 11:33 -1,8 C -1,7 C 90 % 1017,5 hPa 0,0 l/m 10,3 km/h (2 Bft) S-SW 198 0 min 0,2 UV-I 104 W/m -3,2 C -5,7 C 17,7 km/h (3 Bft)
20.01.2023 11:36 -1,8 C -1,1 C 90 % 1017,3 hPa 0,0 l/m 10,1 km/h (2 Bft) S 171 0 min 0,5 UV-I 117 W/m -3,2 C -5,5 C 17,7 km/h (3 Bft)
20.01.2023 11:39 -1,7 C -1,1 C 90 % 1017,4 hPa 0,0 l/m 10,5 km/h (2 Bft) S-SW 192 0 min 0,5 UV-I 123 W/m -3,1 C -5,8 C 17,7 km/h (3 Bft)
20.01.2023 11:42 -1,8 C -1,1 C 90 % 1017,3 hPa 0,0 l/m 10,4 km/h (2 Bft) SW 229 0 min 0,6 UV-I 138 W/m -3,2 C -5,8 C 14,5 km/h (3 Bft)
20.01.2023 11:45 -1,8 C -1,1 C 90 % 1017,3 hPa 0,0 l/m 9,9 km/h (2 Bft) S 175 0 min 0,6 UV-I 151 W/m -3,2 C -5,4 C 16,1 km/h (3 Bft)
20.01.2023 11:48 -1,8 C -1,1 C 90 % 1017,3 hPa 0,0 l/m 11,8 km/h (2 Bft) S-SO 157 0 min 0,7 UV-I 159 W/m -3,2 C -6,9 C 19,3 km/h (3 Bft)
20.01.2023 11:51 -1,7 C -0,6 C 90 % 1017,3 hPa 0,0 l/m 6,9 km/h (2 Bft) S-SW 200 0 min 0,7 UV-I 165 W/m -3,1 C -2,2 C 9,7 km/h (2 Bft)
20.01.2023 11:54 -1,7 C -0,6 C 90 % 1017,3 hPa 0,0 l/m 9,0 km/h (2 Bft) S 177 0 min 0,7 UV-I 159 W/m -3,1 C -4,4 C 19,3 km/h (3 Bft)
20.01.2023 11:57 -1,7 C -1,1 C 89 % 1017,2 hPa 0,0 l/m 12,3 km/h (3 Bft) S-SO 164 0 min 0,7 UV-I 162 W/m -3,3 C -7,2 C 20,9 km/h (4 Bft)
20.01.2023 12:00 -1,7 C -0,6 C 89 % 1017,1 hPa 0,0 l/m 10,7 km/h (2 Bft) S 172 0 min 0,7 UV-I 176 W/m -3,3 C -5,9 C 17,7 km/h (3 Bft)
20.01.2023 12:03 -1,6 C 0,0 C 89 % 1017,3 hPa 0,0 l/m 6,2 km/h (2 Bft) S 173 0 min 0,8 UV-I 212 W/m -3,2 C -1,6 C 9,7 km/h (2 Bft)
20.01.2023 12:06 -1,6 C 0,0 C 89 % 1017,2 hPa 0,0 l/m 8,9 km/h (2 Bft) S 184 0 min 0,9 UV-I 246 W/m -3,2 C -4,2 C 17,7 km/h (3 Bft)
20.01.2023 12:09 -1,6 C -0,6 C 89 % 1017,2 hPa 0,0 l/m 11,1 km/h (2 Bft) S-SO 165 0 min 0,8 UV-I 239 W/m -3,2 C -6,1 C 17,7 km/h (3 Bft)
20.01.2023 12:12 -1,5 C -0,6 C 89 % 1017,2 hPa 0,0 l/m 9,5 km/h (2 Bft) S 181 0 min 0,7 UV-I 190 W/m -3,1 C -4,7 C 14,5 km/h (3 Bft)
20.01.2023 12:15 -1,6 C -0,6 C 89 % 1017,2 hPa 0,0 l/m 12,1 km/h (2 Bft) S-SO 161 0 min 0,6 UV-I 149 W/m -3,2 C -6,9 C 20,9 km/h (4 Bft)
20.01.2023 12:18 -1,6 C -1,1 C 89 % 1017,1 hPa 0,0 l/m 9,4 km/h (2 Bft) S 169 0 min 0,3 UV-I 120 W/m -3,2 C -4,7 C 17,7 km/h (3 Bft)
20.01.2023 12:21 -1,6 C -1,1 C 89 % 1017,1 hPa 0,0 l/m 7,4 km/h (2 Bft) S-SO 159 0 min 0,0 UV-I 100 W/m -3,2 C -2,7 C 12,9 km/h (3 Bft)
20.01.2023 12:24 -1,6 C -1,1 C 89 % 1017,2 hPa 0,0 l/m 7,9 km/h (2 Bft) S 169 0 min 0,0 UV-I 93 W/m -3,2 C -3,2 C 14,5 km/h (3 Bft)
20.01.2023 12:27 -1,7 C -1,1 C 89 % 1017,1 hPa 0,0 l/m 7,7 km/h (2 Bft) S 184 0 min 0,0 UV-I 91 W/m -3,3 C -3,1 C 14,5 km/h (3 Bft)
20.01.2023 12:30 -1,7 C -1,1 C 89 % 1017,1 hPa 0,0 l/m 9,5 km/h (2 Bft) S-SO 167 0 min 0,0 UV-I 90 W/m -3,3 C -4,9 C 16,1 km/h (3 Bft)
20.01.2023 12:33 -1,7 C -1,1 C 89 % 1017,0 hPa 0,0 l/m 9,0 km/h (2 Bft) S-SO 157 0 min 0,0 UV-I 87 W/m -3,3 C -4,4 C 16,1 km/h (3 Bft)
20.01.2023 12:36 -1,7 C -1,1 C 89 % 1017,0 hPa 0,0 l/m 8,4 km/h (2 Bft) SO 146 0 min 0,0 UV-I 76 W/m -3,3 C -3,8 C 14,5 km/h (3 Bft)
20.01.2023 12:39 -1,7 C -1,1 C 89 % 1017,0 hPa 0,0 l/m 9,9 km/h (2 Bft) S 175 0 min 0,0 UV-I 76 W/m -3,3 C -5,2 C 17,7 km/h (3 Bft)
20.01.2023 12:42 -1,7 C -1,7 C 89 % 1017,1 hPa 0,0 l/m 9,6 km/h (2 Bft) S-SO 161 0 min 0,0 UV-I 82 W/m -3,3 C -5,0 C 16,1 km/h (3 Bft)
20.01.2023 12:45 -1,7 C -1,1 C 89 % 1017,0 hPa 0,0 l/m 7,9 km/h (2 Bft) S 169 0 min 0,0 UV-I 79 W/m -3,3 C -3,3 C 16,1 km/h (3 Bft)
20.01.2023 12:48 -1,7 C -1,7 C 89 % 1016,9 hPa 0,0 l/m 9,4 km/h (2 Bft) S 186 0 min 0,0 UV-I 73 W/m -3,3 C -4,8 C 16,1 km/h (3 Bft)
20.01.2023 12:51 -1,7 C -1,7 C 89 % 1017,1 hPa 0,0 l/m 8,5 km/h (2 Bft) S-SO 159 0 min 0,0 UV-I 69 W/m -3,3 C -3,9 C 16,1 km/h (3 Bft)
20.01.2023 12:54 -1,7 C -1,7 C 89 % 1016,9 hPa 0,0 l/m 10,3 km/h (2 Bft) S 173 0 min 0,0 UV-I 63 W/m -3,3 C -5,6 C 16,1 km/h (3 Bft)
20.01.2023 12:57 -1,7 C -1,7 C 89 % 1016,9 hPa 0,0 l/m 10,5 km/h (2 Bft) S-SO 167 0 min 0,0 UV-I 57 W/m -3,3 C -5,8 C 17,7 km/h (3 Bft)
20.01.2023 13:00 -1,7 C -1,7 C 89 % 1016,9 hPa 0,2 l/m 7,9 km/h (2 Bft) S-SO 163 0 min 0,0 UV-I 56 W/m -3,3 C -3,3 C 14,5 km/h (3 Bft)
20.01.2023 13:03 -1,7 C -1,7 C 89 % 1016,9 hPa 0,0 l/m 6,5 km/h (2 Bft) S-SO 153 0 min 0,0 UV-I 60 W/m -3,3 C -1,8 C 12,9 km/h (3 Bft)
20.01.2023 13:06 -1,7 C -1,7 C 89 % 1016,9 hPa 0,0 l/m 4,4 km/h (1 Bft) S 175 0 min 0,0 UV-I 62 W/m -3,3 C -1,7 C 9,7 km/h (2 Bft)
20.01.2023 13:09 -1,6 C -1,7 C 89 % 1016,9 hPa 0,0 l/m 8,6 km/h (2 Bft) S-SW 203 0 min 0,0 UV-I 63 W/m -3,2 C -3,9 C 16,1 km/h (3 Bft)
20.01.2023 13:12 -1,6 C -1,7 C 89 % 1016,8 hPa 0,0 l/m 8,5 km/h (2 Bft) S 175 0 min 0,0 UV-I 59 W/m -3,2 C -3,8 C 16,1 km/h (3 Bft)
20.01.2023 13:15 -1,7 C -1,7 C 89 % 1016,7 hPa 0,0 l/m 5,9 km/h (2 Bft) S 183 0 min 0,0 UV-I 48 W/m -3,3 C -1,7 C 9,7 km/h (2 Bft)
20.01.2023 13:18 -1,7 C -1,7 C 89 % 1016,8 hPa 0,2 l/m 8,2 km/h (2 Bft) S 181 0 min 0,0 UV-I 32 W/m -3,3 C -3,6 C 14,5 km/h (3 Bft)
20.01.2023 13:21 -1,7 C -2,2 C 89 % 1016,8 hPa 0,0 l/m 6,0 km/h (2 Bft) S 190 0 min 0,0 UV-I 22 W/m -3,3 C -1,7 C 11,3 km/h (2 Bft)
20.01.2023 13:24 -1,7 C -2,2 C 89 % 1016,8 hPa 0,0 l/m 5,8 km/h (2 Bft) S 180 0 min 0,0 UV-I 15 W/m -3,3 C -1,7 C 11,3 km/h (2 Bft)
20.01.2023 13:27 -1,8 C -2,2 C 89 % 1016,7 hPa 0,0 l/m 6,2 km/h (2 Bft) S-SO 162 0 min 0,0 UV-I 15 W/m -3,4 C -1,8 C 11,3 km/h (2 Bft)
20.01.2023 13:30 -1,8 C -2,2 C 89 % 1016,7 hPa 0,2 l/m 7,7 km/h (2 Bft) S 190 0 min 0,0 UV-I 20 W/m -3,4 C -3,2 C 11,3 km/h (2 Bft)
20.01.2023 13:33 -1,8 C -2,2 C 89 % 1016,6 hPa 0,0 l/m 5,6 km/h (1 Bft) S 180 0 min 0,0 UV-I 20 W/m -3,4 C -1,8 C 11,3 km/h (2 Bft)
20.01.2023 13:36 -1,8 C -1,7 C 90 % 1016,6 hPa 0,0 l/m 5,3 km/h (1 Bft) S-SO 150 0 min 0,0 UV-I 19 W/m -3,2 C -1,8 C 12,9 km/h (3 Bft)
20.01.2023 13:39 -1,8 C -1,7 C 90 % 1016,6 hPa 0,0 l/m 9,0 km/h (2 Bft) S 182 0 min 0,0 UV-I 19 W/m -3,2 C -4,5 C 17,7 km/h (3 Bft)
20.01.2023 13:42 -1,8 C -1,7 C 90 % 1016,6 hPa 0,2 l/m 8,6 km/h (2 Bft) S 171 0 min 0,0 UV-I 19 W/m -3,2 C -4,1 C 16,1 km/h (3 Bft)
20.01.2023 13:45 -1,8 C -1,7 C 90 % 1016,5 hPa 0,0 l/m 7,8 km/h (2 Bft) S 189 0 min 0,0 UV-I 20 W/m -3,2 C -3,3 C 12,9 km/h (3 Bft)
20.01.2023 13:48 -1,8 C -1,7 C 90 % 1016,6 hPa 0,0 l/m 9,6 km/h (2 Bft) S 177 0 min 0,0 UV-I 17 W/m -3,2 C -5,1 C 16,1 km/h (3 Bft)
20.01.2023 13:51 -1,8 C -1,7 C 90 % 1016,6 hPa 0,2 l/m 7,3 km/h (2 Bft) S 170 0 min 0,0 UV-I 13 W/m -3,2 C -2,8 C 14,5 km/h (3 Bft)
20.01.2023 13:54 -1,8 C -1,7 C 90 % 1016,5 hPa 0,0 l/m 6,5 km/h (2 Bft) S 173 0 min 0,0 UV-I 12 W/m -3,2 C -1,9 C 14,5 km/h (3 Bft)
20.01.2023 13:57 -1,8 C -1,1 C 90 % 1016,5 hPa 0,2 l/m 5,1 km/h (1 Bft) S 184 0 min 0,0 UV-I 13 W/m -3,2 C -1,8 C 9,7 km/h (2 Bft)
20.01.2023 14:00 -1,8 C -1,1 C 90 % 1016,4 hPa 0,0 l/m 4,9 km/h (1 Bft) S 179 0 min 0,0 UV-I 18 W/m -3,2 C -1,8 C 8,0 km/h (2 Bft)
20.01.2023 14:03 -1,8 C -1,1 C 90 % 1016,5 hPa 0,0 l/m 8,8 km/h (2 Bft) S-SW 192 0 min 0,0 UV-I 24 W/m -3,2 C -4,3 C 19,3 km/h (3 Bft)
20.01.2023 14:06 -1,8 C -1,1 C 90 % 1016,5 hPa 0,2 l/m 7,7 km/h (2 Bft) S 186 0 min 0,0 UV-I 28 W/m -3,2 C -3,2 C 11,3 km/h (2 Bft)
20.01.2023 14:09 -1,7 C -1,1 C 90 % 1016,4 hPa 0,0 l/m 10,1 km/h (2 Bft) S-SW 194 0 min 0,0 UV-I 31 W/m -3,1 C -5,4 C 17,7 km/h (3 Bft)
20.01.2023 14:12 -1,7 C -1,1 C 90 % 1016,3 hPa 0,0 l/m 7,8 km/h (2 Bft) S 169 0 min 0,0 UV-I 38 W/m -3,1 C -3,2 C 11,3 km/h (2 Bft)
20.01.2023 14:15 -1,6 C -1,1 C 90 % 1016,3 hPa 0,2 l/m 12,5 km/h (3 Bft) S 173 0 min 0,0 UV-I 38 W/m -3,0 C -7,2 C 25,7 km/h (4 Bft)
20.01.2023 14:18 -1,6 C -1,1 C 90 % 1016,4 hPa 0,0 l/m 9,4 km/h (2 Bft) S 169 0 min 0,0 UV-I 34 W/m -3,0 C -4,7 C 20,9 km/h (4 Bft)
20.01.2023 14:21 -1,6 C -1,1 C 90 % 1016,3 hPa 0,0 l/m 12,8 km/h (3 Bft) S-SW 201 0 min 0,0 UV-I 29 W/m -3,0 C -7,4 C 25,7 km/h (4 Bft)
20.01.2023 14:24 -1,6 C -1,1 C 90 % 1016,3 hPa 0,2 l/m 9,5 km/h (2 Bft) S 182 0 min 0,0 UV-I 30 W/m -3,0 C -4,8 C 16,1 km/h (3 Bft)
20.01.2023 14:27 -1,6 C -1,1 C 90 % 1016,3 hPa 0,0 l/m 8,0 km/h (2 Bft) S 175 0 min 0,0 UV-I 32 W/m -3,0 C -3,3 C 12,9 km/h (3 Bft)
20.01.2023 14:30 -1,6 C -1,1 C 90 % 1016,3 hPa 0,0 l/m 8,3 km/h (2 Bft) S-SO 166 0 min 0,0 UV-I 32 W/m -3,0 C -3,6 C 14,5 km/h (3 Bft)
20.01.2023 14:33 -1,5 C -0,6 C 90 % 1016,3 hPa 0,0 l/m 11,3 km/h (2 Bft) S 180 0 min 0,0 UV-I 32 W/m -2,9 C -6,2 C 19,3 km/h (3 Bft)
20.01.2023 14:36 -1,5 C -0,6 C 90 % 1016,2 hPa 0,0 l/m 9,8 km/h (2 Bft) S 169 0 min 0,0 UV-I 33 W/m -2,9 C -4,9 C 16,1 km/h (3 Bft)
20.01.2023 14:39 -1,4 C -0,6 C 90 % 1016,3 hPa 0,0 l/m 9,8 km/h (2 Bft) S-SO 155 0 min 0,0 UV-I 33 W/m -2,8 C -4,8 C 16,1 km/h (3 Bft)
20.01.2023 14:42 -1,4 C -0,6 C 90 % 1016,3 hPa 0,0 l/m 11,4 km/h (2 Bft) S-SO 157 0 min 0,0 UV-I 34 W/m -2,8 C -6,2 C 17,7 km/h (3 Bft)
20.01.2023 14:45 -1,4 C -0,6 C 90 % 1016,4 hPa 0,0 l/m 12,2 km/h (2 Bft) S-SO 159 0 min 0,0 UV-I 34 W/m -2,8 C -6,8 C 19,3 km/h (3 Bft)
20.01.2023 14:48 -1,4 C -0,6 C 90 % 1016,3 hPa 0,0 l/m 9,2 km/h (2 Bft) S-SO 164 0 min 0,0 UV-I 32 W/m -2,8 C -4,3 C 14,5 km/h (3 Bft)
20.01.2023 14:51 -1,4 C -0,6 C 90 % 1016,4 hPa 0,0 l/m 8,3 km/h (2 Bft) S-SO 165 0 min 0,0 UV-I 33 W/m -2,8 C -3,4 C 17,7 km/h (3 Bft)
20.01.2023 14:54 -1,3 C -0,6 C 90 % 1016,4 hPa 0,2 l/m 7,6 km/h (2 Bft) S 176 0 min 0,0 UV-I 30 W/m -2,7 C -2,6 C 14,5 km/h (3 Bft)
20.01.2023 14:57 -1,3 C -0,6 C 90 % 1016,4 hPa 0,0 l/m 8,7 km/h (2 Bft) S 175 0 min 0,0 UV-I 27 W/m -2,7 C -3,7 C 14,5 km/h (3 Bft)
20.01.2023 15:00 -1,3 C -0,6 C 90 % 1016,4 hPa 0,0 l/m 9,4 km/h (2 Bft) S 178 0 min 0,0 UV-I 26 W/m -2,7 C -4,4 C 20,9 km/h (4 Bft)
20.01.2023 15:03 -1,3 C -0,6 C 90 % 1016,4 hPa 0,0 l/m 9,5 km/h (2 Bft) S-SW 200 0 min 0,0 UV-I 29 W/m -2,7 C -4,4 C 14,5 km/h (3 Bft)
20.01.2023 15:06 -1,3 C -0,6 C 90 % 1016,4 hPa 0,0 l/m 10,0 km/h (2 Bft) S 185 0 min 0,0 UV-I 27 W/m -2,7 C -4,9 C 14,5 km/h (3 Bft)
20.01.2023 15:09 -1,3 C -0,6 C 90 % 1016,4 hPa 0,0 l/m 9,0 km/h (2 Bft) S 189 0 min 0,0 UV-I 24 W/m -2,7 C -4,0 C 16,1 km/h (3 Bft)
20.01.2023 15:12 -1,3 C -0,6 C 90 % 1016,4 hPa 0,0 l/m 8,5 km/h (2 Bft) S 191 0 min 0,0 UV-I 25 W/m -2,7 C -3,5 C 14,5 km/h (3 Bft)
20.01.2023 15:15 -1,3 C -0,6 C 90 % 1016,4 hPa 0,0 l/m 8,5 km/h (2 Bft) S-SW 195 0 min 0,0 UV-I 25 W/m -2,7 C -3,5 C 11,3 km/h (2 Bft)
20.01.2023 15:18 -1,3 C -0,6 C 90 % 1016,4 hPa 0,0 l/m 8,1 km/h (2 Bft) S 172 0 min 0,0 UV-I 25 W/m -2,7 C -3,1 C 12,9 km/h (3 Bft)
20.01.2023 15:21 -1,3 C -0,6 C 90 % 1016,3 hPa 0,2 l/m 9,1 km/h (2 Bft) S 173 0 min 0,0 UV-I 21 W/m -2,7 C -4,1 C 12,9 km/h (3 Bft)
20.01.2023 15:24 -1,3 C -0,6 C 90 % 1016,4 hPa 0,0 l/m 10,0 km/h (2 Bft) S-SW 213 0 min 0,0 UV-I 19 W/m -2,7 C -4,9 C 19,3 km/h (3 Bft)
20.01.2023 15:27 -1,3 C -0,6 C 90 % 1016,4 hPa 0,0 l/m 9,7 km/h (2 Bft) S 175 0 min 0,0 UV-I 18 W/m -2,7 C -4,6 C 14,5 km/h (3 Bft)
20.01.2023 15:30 -1,3 C -0,6 C 90 % 1016,4 hPa 0,0 l/m 10,3 km/h (2 Bft) S 173 0 min 0,0 UV-I 22 W/m -2,7 C -5,1 C 17,7 km/h (3 Bft)
20.01.2023 15:33 -1,3 C -0,6 C 90 % 1016,4 hPa 0,0 l/m 8,9 km/h (2 Bft) S-SW 207 0 min 0,0 UV-I 25 W/m -2,7 C -3,9 C 19,3 km/h (3 Bft)
20.01.2023 15:36 -1,2 C -0,6 C 90 % 1016,4 hPa 0,2 l/m 9,0 km/h (2 Bft) S-SW 194 0 min 0,0 UV-I 22 W/m -2,6 C -3,9 C 16,1 km/h (3 Bft)
20.01.2023 15:39 -1,2 C -0,6 C 90 % 1016,4 hPa 0,0 l/m 6,3 km/h (2 Bft) S 175 0 min 0,0 UV-I 19 W/m -2,6 C -1,2 C 12,9 km/h (3 Bft)
20.01.2023 15:42 -1,2 C -0,6 C 90 % 1016,5 hPa 0,0 l/m 8,5 km/h (2 Bft) S 180 0 min 0,0 UV-I 18 W/m -2,6 C -3,4 C 16,1 km/h (3 Bft)
20.01.2023 15:45 -1,2 C -0,6 C 90 % 1016,5 hPa 0,0 l/m 7,6 km/h (2 Bft) S 186 0 min 0,0 UV-I 19 W/m -2,6 C -2,5 C 11,3 km/h (2 Bft)
20.01.2023 15:48 -1,2 C -0,6 C 90 % 1016,6 hPa 0,0 l/m 8,0 km/h (2 Bft) S 184 0 min 0,0 UV-I 19 W/m -2,6 C -2,9 C 14,5 km/h (3 Bft)
20.01.2023 15:51 -1,2 C -0,6 C 90 % 1016,4 hPa 0,0 l/m 6,8 km/h (2 Bft) S-SW 194 0 min 0,0 UV-I 16 W/m -2,6 C -1,6 C 11,3 km/h (2 Bft)
20.01.2023 15:54 -1,2 C -0,6 C 90 % 1016,5 hPa 0,0 l/m 6,3 km/h (2 Bft) S-SW 192 0 min 0,0 UV-I 13 W/m -2,6 C -1,2 C 11,3 km/h (2 Bft)
20.01.2023 15:57 -1,2 C -0,6 C 91 % 1016,6 hPa 0,0 l/m 6,0 km/h (2 Bft) S-SW 202 0 min 0,0 UV-I 12 W/m -2,5 C -1,2 C 14,5 km/h (3 Bft)
20.01.2023 16:00 -1,2 C -0,6 C 91 % 1016,6 hPa 0,0 l/m 5,9 km/h (2 Bft) S-SW 200 0 min 0,0 UV-I 11 W/m -2,5 C -1,2 C 11,3 km/h (2 Bft)
20.01.2023 16:03 -1,1 C -0,6 C 91 % 1016,7 hPa 0,0 l/m 5,5 km/h (1 Bft) S 188 0 min 0,0 UV-I 8 W/m -2,4 C -1,1 C 8,0 km/h (2 Bft)
20.01.2023 16:06 -1,2 C -0,6 C 91 % 1016,8 hPa 0,2 l/m 6,6 km/h (2 Bft) S 182 0 min 0,0 UV-I 6 W/m -2,5 C -1,4 C 9,7 km/h (2 Bft)
20.01.2023 16:09 -1,2 C -0,6 C 90 % 1016,8 hPa 0,0 l/m 4,8 km/h (1 Bft) S 189 0 min 0,0 UV-I 5 W/m -2,6 C -1,2 C 8,0 km/h (2 Bft)
20.01.2023 16:12 -1,2 C -0,6 C 90 % 1016,8 hPa 0,2 l/m 3,7 km/h (1 Bft) S 188 0 min 0,0 UV-I 0 W/m -2,6 C -1,2 C 6,4 km/h (2 Bft)
20.01.2023 16:15 -1,1 C -0,6 C 91 % 1016,9 hPa 0,2 l/m 5,3 km/h (1 Bft) S 178 0 min 0,0 UV-I 0 W/m -2,4 C -1,1 C 8,0 km/h (2 Bft)
20.01.2023 16:18 -1,1 C -0,6 C 91 % 1017,0 hPa 0,0 l/m 6,4 km/h (2 Bft) S-SW 205 0 min 0,0 UV-I 0 W/m -2,4 C -1,1 C 11,3 km/h (2 Bft)
20.01.2023 16:21 -1,1 C -0,6 C 91 % 1017,0 hPa 0,2 l/m 7,3 km/h (2 Bft) SW 223 0 min 0,0 UV-I 0 W/m -2,4 C -2,1 C 11,3 km/h (2 Bft)
20.01.2023 16:24 -1,1 C -0,6 C 91 % 1017,0 hPa 0,0 l/m 4,1 km/h (1 Bft) SW 224 0 min 0,0 UV-I 0 W/m -2,4 C -1,1 C 8,0 km/h (2 Bft)
20.01.2023 16:27 -1,1 C -0,6 C 91 % 1017,1 hPa 0,2 l/m 4,4 km/h (1 Bft) S 177 0 min 0,0 UV-I 0 W/m -2,4 C -1,1 C 8,0 km/h (2 Bft)
20.01.2023 16:30 -1,1 C -0,6 C 91 % 1017,0 hPa 0,0 l/m 5,1 km/h (1 Bft) S 188 0 min 0,0 UV-I 0 W/m -2,4 C -1,1 C 8,0 km/h (2 Bft)
20.01.2023 16:33 -1,1 C -0,6 C 91 % 1017,1 hPa 0,0 l/m 3,5 km/h (1 Bft) S 186 0 min 0,0 UV-I 0 W/m -2,4 C -1,1 C 6,4 km/h (2 Bft)
20.01.2023 16:36 -1,1 C -0,6 C 91 % 1017,1 hPa 0,2 l/m 3,9 km/h (1 Bft) S 190 0 min 0,0 UV-I 0 W/m -2,4 C -1,1 C 6,4 km/h (2 Bft)
20.01.2023 16:39 -1,1 C -0,6 C 91 % 1017,1 hPa 0,0 l/m 5,8 km/h (2 Bft) S-SW 195 0 min 0,0 UV-I 0 W/m -2,4 C -1,1 C 8,0 km/h (2 Bft)
20.01.2023 16:42 -1,1 C -0,6 C 91 % 1017,2 hPa 0,0 l/m 5,6 km/h (1 Bft) S-SW 198 0 min 0,0 UV-I 0 W/m -2,4 C -1,1 C 8,0 km/h (2 Bft)
20.01.2023 16:45 -1,0 C -0,6 C 91 % 1017,3 hPa 0,0 l/m 6,2 km/h (2 Bft) SW 214 0 min 0,0 UV-I 0 W/m -2,3 C -1,0 C 8,0 km/h (2 Bft)
20.01.2023 16:48 -1,0 C -0,6 C 91 % 1017,2 hPa 0,0 l/m 5,0 km/h (1 Bft) S-SW 211 0 min 0,0 UV-I 0 W/m -2,3 C -1,0 C 6,4 km/h (2 Bft)
20.01.2023 16:51 -1,0 C -0,6 C 91 % 1017,2 hPa 0,0 l/m 5,3 km/h (1 Bft) S-SW 213 0 min 0,0 UV-I 0 W/m -2,3 C -1,0 C 8,0 km/h (2 Bft)
20.01.2023 16:54 -1,0 C -0,6 C 91 % 1017,2 hPa 0,2 l/m 5,0 km/h (1 Bft) S-SW 209 0 min 0,0 UV-I 0 W/m -2,3 C -1,0 C 8,0 km/h (2 Bft)
20.01.2023 16:57 -0,9 C -0,6 C 91 % 1017,1 hPa 0,0 l/m 5,3 km/h (1 Bft) S-SW 211 0 min 0,0 UV-I 0 W/m -2,2 C -0,9 C 8,0 km/h (2 Bft)
20.01.2023 17:00 -0,9 C -0,6 C 91 % 1017,2 hPa 0,0 l/m 4,7 km/h (1 Bft) SW 214 0 min 0,0 UV-I 0 W/m -2,2 C -0,9 C 8,0 km/h (2 Bft)
20.01.2023 17:03 -0,9 C -0,6 C 91 % 1017,3 hPa 0,0 l/m 6,4 km/h (2 Bft) S-SW 211 0 min 0,0 UV-I 0 W/m -2,2 C -0,9 C 9,7 km/h (2 Bft)
20.01.2023 17:06 -0,9 C -0,6 C 91 % 1017,3 hPa 0,0 l/m 6,5 km/h (2 Bft) S-SW 196 0 min 0,0 UV-I 0 W/m -2,2 C -1,0 C 11,3 km/h (2 Bft)
20.01.2023 17:09 -0,9 C -0,6 C 91 % 1017,3 hPa 0,0 l/m 4,3 km/h (1 Bft) S-SW 210 0 min 0,0 UV-I 0 W/m -2,2 C -0,9 C 8,0 km/h (2 Bft)
20.01.2023 17:12 -0,9 C -0,6 C 91 % 1017,3 hPa 0,0 l/m 5,1 km/h (1 Bft) S-SW 209 0 min 0,0 UV-I 0 W/m -2,2 C -0,9 C 8,0 km/h (2 Bft)
20.01.2023 17:15 -0,9 C -0,6 C 91 % 1017,4 hPa 0,0 l/m 6,8 km/h (2 Bft) S-SW 193 0 min 0,0 UV-I 0 W/m -2,2 C -1,3 C 9,7 km/h (2 Bft)
20.01.2023 17:18 -0,9 C -0,6 C 91 % 1017,5 hPa 0,0 l/m 5,0 km/h (1 Bft) S-SW 209 0 min 0,0 UV-I 0 W/m -2,2 C -0,9 C 9,7 km/h (2 Bft)
20.01.2023 17:21 -0,8 C -0,6 C 91 % 1017,5 hPa 0,0 l/m 2,9 km/h (1 Bft) SW 225 0 min 0,0 UV-I 0 W/m -2,1 C -0,8 C 6,4 km/h (2 Bft)
20.01.2023 17:24 -0,8 C -0,6 C 91 % 1017,6 hPa 0,0 l/m 5,1 km/h (1 Bft) S-SW 197 0 min 0,0 UV-I 0 W/m -2,1 C -0,8 C 8,0 km/h (2 Bft)
20.01.2023 17:27 -0,8 C -0,6 C 91 % 1017,6 hPa 0,0 l/m 6,0 km/h (2 Bft) S-SW 213 0 min 0,0 UV-I 0 W/m -2,1 C -0,8 C 8,0 km/h (2 Bft)
20.01.2023 17:30 -0,8 C -0,6 C 91 % 1017,6 hPa 0,0 l/m 6,6 km/h (2 Bft) SW 236 0 min 0,0 UV-I 0 W/m -2,1 C -1,0 C 9,7 km/h (2 Bft)
20.01.2023 17:33 -0,8 C -0,6 C 91 % 1017,7 hPa 0,0 l/m 4,8 km/h (1 Bft) SW 220 0 min 0,0 UV-I 0 W/m -2,1 C -0,8 C 9,7 km/h (2 Bft)
20.01.2023 17:36 -0,8 C -0,6 C 91 % 1017,7 hPa 0,0 l/m 1,9 km/h (1 Bft) SW 219 0 min 0,0 UV-I 0 W/m -2,1 C -0,8 C 6,4 km/h (2 Bft)
20.01.2023 17:39 -0,8 C -0,6 C 92 % 1017,7 hPa 0,0 l/m 4,2 km/h (1 Bft) SW 227 0 min 0,0 UV-I 0 W/m -1,9 C -0,8 C 11,3 km/h (2 Bft)
20.01.2023 17:42 -0,8 C -0,6 C 91 % 1017,6 hPa 0,0 l/m 3,5 km/h (1 Bft) SW 223 0 min 0,0 UV-I 0 W/m -2,1 C -0,8 C 6,4 km/h (2 Bft)
20.01.2023 17:45 -0,8 C -0,6 C 92 % 1017,7 hPa 0,0 l/m 3,1 km/h (1 Bft) W-SW 238 0 min 0,0 UV-I 0 W/m -1,9 C -0,8 C 8,0 km/h (2 Bft)
20.01.2023 17:48 -0,8 C -0,6 C 92 % 1017,8 hPa 0,0 l/m 2,3 km/h (1 Bft) W-SW 249 0 min 0,0 UV-I 0 W/m -1,9 C -0,8 C 6,4 km/h (2 Bft)
20.01.2023 17:51 -0,8 C -0,6 C 91 % 1017,8 hPa 0,0 l/m 0,6 km/h (0 Bft) W-SW 249 0 min 0,0 UV-I 0 W/m -2,1 C -0,8 C 3,2 km/h (1 Bft)
20.01.2023 17:54 -0,8 C -0,6 C 91 % 1017,8 hPa 0,0 l/m 0,5 km/h (0 Bft) W-SW 249 0 min 0,0 UV-I 0 W/m -2,1 C -0,8 C 3,2 km/h (1 Bft)
20.01.2023 17:57 -0,8 C -0,6 C 92 % 1017,8 hPa 0,0 l/m 0,0 km/h (0 Bft) W-SW 249 0 min 0,0 UV-I 0 W/m -1,9 C -0,8 C 0,0 km/h (0 Bft)
20.01.2023 18:00 -0,8 C -0,6 C 92 % 1018,0 hPa 0,0 l/m 0,0 km/h (0 Bft) W-SW 249 0 min 0,0 UV-I 0 W/m -1,9 C -0,8 C 1,6 km/h (1 Bft)
20.01.2023 18:03 -0,8 C -0,6 C 91 % 1018,0 hPa 0,2 l/m 0,1 km/h (0 Bft) W-SW 249 0 min 0,0 UV-I 0 W/m -2,1 C -0,8 C 1,6 km/h (1 Bft)
20.01.2023 18:06 -0,8 C -0,6 C 92 % 1018,0 hPa 0,0 l/m 0,0 km/h (0 Bft) W-SW 249 0 min 0,0 UV-I 0 W/m -1,9 C -0,8 C 0,0 km/h (0 Bft)
20.01.2023 18:09 -0,8 C -0,6 C 92 % 1018,0 hPa 0,0 l/m 0,0 km/h (0 Bft) W-SW 249 0 min 0,0 UV-I 0 W/m -1,9 C -0,8 C 0,0 km/h (0 Bft)
20.01.2023 18:12 -0,8 C -0,6 C 92 % 1018,1 hPa 0,0 l/m 0,0 km/h (0 Bft) W-SW 249 0 min 0,0 UV-I 0 W/m -1,9 C -0,8 C 0,0 km/h (0 Bft)
20.01.2023 18:15 -0,8 C -0,6 C 91 % 1018,0 hPa 0,2 l/m 0,0 km/h (0 Bft) W-SW 249 0 min 0,0 UV-I 0 W/m -2,1 C -0,8 C 0,0 km/h (0 Bft)
20.01.2023 18:18 -0,8 C -0,6 C 91 % 1018,2 hPa 0,0 l/m 0,0 km/h (0 Bft) W-SW 249 0 min 0,0 UV-I 0 W/m -2,1 C -0,8 C 0,0 km/h (0 Bft)
20.01.2023 18:21 -0,8 C -0,6 C 92 % 1018,2 hPa 0,0 l/m 0,0 km/h (0 Bft) W-SW 249 0 min 0,0 UV-I 0 W/m -1,9 C -0,8 C 0,0 km/h (0 Bft)
20.01.2023 18:24 -0,8 C -0,6 C 92 % 1018,2 hPa 0,0 l/m 0,0 km/h (0 Bft) W-SW 249 0 min 0,0 UV-I 0 W/m -1,9 C -0,8 C 0,0 km/h (0 Bft)
20.01.2023 18:27 -0,8 C -0,6 C 92 % 1018,3 hPa 0,0 l/m 0,0 km/h (0 Bft) W-SW 249 0 min 0,0 UV-I 0 W/m -1,9 C -0,8 C 0,0 km/h (0 Bft)
20.01.2023 18:30 -0,7 C -0,6 C 92 % 1018,3 hPa 0,0 l/m 0,0 km/h (0 Bft) W-SW 249 0 min 0,0 UV-I 0 W/m -1,8 C -0,7 C 0,0 km/h (0 Bft)
20.01.2023 18:33 -0,7 C -0,6 C 92 % 1018,3 hPa 0,0 l/m 0,0 km/h (0 Bft) W-SW 254 0 min 0,0 UV-I 0 W/m -1,8 C -0,7 C 0,0 km/h (0 Bft)
20.01.2023 18:36 -0,7 C -0,6 C 92 % 1018,4 hPa 0,0 l/m 1,1 km/h (1 Bft) N 355 0 min 0,0 UV-I 0 W/m -1,8 C -0,7 C 3,2 km/h (1 Bft)
20.01.2023 18:37 -0,7 C -0,6 C 92 % 1018,4 hPa 0,0 l/m 3,2 km/h (1 Bft) N 360 0 min 0,0 UV-I 0 W/m -1,8 C -0,7 C 4,8 km/h (1 Bft)
20.01.2023 18:38 -0,7 C -0,6 C 92 % 1018,4 hPa 0,0 l/m 3,2 km/h (1 Bft) N-NO 22 0 min 0,0 UV-I 0 W/m -1,8 C -0,7 C 4,8 km/h (1 Bft)
20.01.2023 18:39 -0,7 C -0,6 C 92 % 1018,5 hPa 0,2 l/m 3,2 km/h (1 Bft) N-NO 22 0 min 0,0 UV-I 0 W/m -1,8 C -0,7 C 6,4 km/h (2 Bft)
20.01.2023 18:42 -0,7 C -0,6 C 92 % 1018,5 hPa 0,0 l/m 3,7 km/h (1 Bft) NO 35 0 min 0,0 UV-I 0 W/m -1,8 C -0,7 C 6,4 km/h (2 Bft)
20.01.2023 18:45 -0,7 C -0,6 C 92 % 1018,6 hPa 0,0 l/m 1,6 km/h (1 Bft) NO 35 0 min 0,0 UV-I 0 W/m -1,8 C -0,7 C 3,2 km/h (1 Bft)
20.01.2023 18:48 -0,7 C -0,6 C 92 % 1018,6 hPa 0,0 l/m 0,0 km/h (0 Bft) NO 35 0 min 0,0 UV-I 0 W/m -1,8 C -0,7 C 1,6 km/h (1 Bft)
20.01.2023 18:51 -0,7 C -0,6 C 92 % 1018,6 hPa 0,2 l/m 0,8 km/h (0 Bft) NO 36 0 min 0,0 UV-I 0 W/m -1,8 C -0,7 C 3,2 km/h (1 Bft)
20.01.2023 18:54 -0,7 C -0,6 C 92 % 1018,7 hPa 0,0 l/m 1,4 km/h (1 Bft) NO 37 0 min 0,0 UV-I 0 W/m -1,8 C -0,7 C 4,8 km/h (1 Bft)
20.01.2023 18:57 -0,7 C -0,6 C 92 % 1018,7 hPa 0,0 l/m 4,4 km/h (1 Bft) NO 46 0 min 0,0 UV-I 0 W/m -1,8 C -0,7 C 8,0 km/h (2 Bft)
20.01.2023 19:00 -0,8 C -0,6 C 92 % 1018,8 hPa 0,0 l/m 4,9 km/h (1 Bft) NO 34 0 min 0,0 UV-I 0 W/m -1,9 C -0,8 C 8,0 km/h (2 Bft)
20.01.2023 19:03 -0,8 C -0,6 C 92 % 1018,9 hPa 0,0 l/m 6,3 km/h (2 Bft) N-NO 33 0 min 0,0 UV-I 0 W/m -1,9 C -0,8 C 9,7 km/h (2 Bft)
20.01.2023 19:06 -0,9 C -0,6 C 92 % 1018,9 hPa 0,0 l/m 4,4 km/h (1 Bft) N-NO 26 0 min 0,0 UV-I 0 W/m -2,0 C -0,9 C 8,0 km/h (2 Bft)
20.01.2023 19:09 -0,9 C -0,6 C 92 % 1018,9 hPa 0,0 l/m 5,0 km/h (1 Bft) N-NO 24 0 min 0,0 UV-I 0 W/m -2,0 C -0,9 C 6,4 km/h (2 Bft)
20.01.2023 19:12 -1,0 C -0,6 C 92 % 1018,9 hPa 0,2 l/m 3,8 km/h (1 Bft) NO 36 0 min 0,0 UV-I 0 W/m -2,1 C -1,0 C 6,4 km/h (2 Bft)
20.01.2023 19:15 -1,0 C -0,6 C 92 % 1019,0 hPa 0,0 l/m 2,6 km/h (1 Bft) N-NO 30 0 min 0,0 UV-I 0 W/m -2,1 C -1,0 C 4,8 km/h (1 Bft)
20.01.2023 19:18 -1,1 C -0,6 C 92 % 1018,9 hPa 0,0 l/m 1,5 km/h (1 Bft) N-NO 31 0 min 0,0 UV-I 0 W/m -2,2 C -1,1 C 4,8 km/h (1 Bft)
20.01.2023 19:21 -1,1 C -0,6 C 92 % 1019,0 hPa 0,0 l/m 0,0 km/h (0 Bft) N-NO 31 0 min 0,0 UV-I 0 W/m -2,2 C -1,1 C 0,0 km/h (0 Bft)
20.01.2023 19:24 -1,1 C -0,6 C 92 % 1019,0 hPa 0,0 l/m 0,5 km/h (0 Bft) N-NO 31 0 min 0,0 UV-I 0 W/m -2,2 C -1,1 C 3,2 km/h (1 Bft)
20.01.2023 19:27 -1,1 C -0,6 C 92 % 1019,0 hPa 0,0 l/m 1,1 km/h (1 Bft) N-NO 28 0 min 0,0 UV-I 0 W/m -2,2 C -1,1 C 4,8 km/h (1 Bft)
20.01.2023 19:30 -1,1 C -0,6 C 92 % 1019,0 hPa 0,0 l/m 2,1 km/h (1 Bft) N-NO 26 0 min 0,0 UV-I 0 W/m -2,2 C -1,1 C 4,8 km/h (1 Bft)
20.01.2023 19:33 -1,2 C -0,6 C 92 % 1019,1 hPa 0,0 l/m 4,2 km/h (1 Bft) N-NO 22 0 min 0,0 UV-I 0 W/m -2,3 C -1,2 C 6,4 km/h (2 Bft)
20.01.2023 19:36 -1,2 C -0,6 C 92 % 1019,1 hPa 0,0 l/m 2,7 km/h (1 Bft) N-NO 27 0 min 0,0 UV-I 0 W/m -2,3 C -1,2 C 6,4 km/h (2 Bft)
20.01.2023 19:39 -1,2 C -0,6 C 92 % 1019,1 hPa 0,0 l/m 3,6 km/h (1 Bft) NO 41 0 min 0,0 UV-I 0 W/m -2,3 C -1,2 C 6,4 km/h (2 Bft)
20.01.2023 19:42 -1,2 C -0,6 C 92 % 1019,1 hPa 0,0 l/m 2,8 km/h (1 Bft) NO 34 0 min 0,0 UV-I 0 W/m -2,3 C -1,2 C 4,8 km/h (1 Bft)
20.01.2023 19:45 -1,2 C -0,6 C 92 % 1019,1 hPa 0,0 l/m 1,7 km/h (1 Bft) N-NO 32 0 min 0,0 UV-I 0 W/m -2,3 C -1,2 C 4,8 km/h (1 Bft)
20.01.2023 19:48 -1,3 C -0,6 C 92 % 1019,1 hPa 0,0 l/m 0,5 km/h (0 Bft) N-NO 32 0 min 0,0 UV-I 0 W/m -2,4 C -1,3 C 3,2 km/h (1 Bft)
20.01.2023 19:51 -1,3 C -0,6 C 92 % 1019,1 hPa 0,0 l/m 0,9 km/h (0 Bft) N-NO 30 0 min 0,0 UV-I 0 W/m -2,4 C -1,3 C 3,2 km/h (1 Bft)
20.01.2023 19:54 -1,3 C -0,6 C 92 % 1019,2 hPa 0,0 l/m 1,7 km/h (1 Bft) N-NO 29 0 min 0,0 UV-I 0 W/m -2,4 C -1,3 C 4,8 km/h (1 Bft)
20.01.2023 19:57 -1,3 C -0,6 C 92 % 1019,2 hPa 0,0 l/m 0,6 km/h (0 Bft) N-NO 28 0 min 0,0 UV-I 0 W/m -2,4 C -1,3 C 3,2 km/h (1 Bft)
20.01.2023 20:00 -1,3 C -0,6 C 92 % 1019,1 hPa 0,0 l/m 0,5 km/h (0 Bft) N-NO 28 0 min 0,0 UV-I 0 W/m -2,4 C -1,3 C 3,2 km/h (1 Bft)
20.01.2023 20:03 -1,4 C -0,6 C 92 % 1019,1 hPa 0,0 l/m 0,7 km/h (0 Bft) N-NO 28 0 min 0,0 UV-I 0 W/m -2,5 C -1,4 C 3,2 km/h (1 Bft)
20.01.2023 20:06 -1,4 C -0,6 C 92 % 1019,3 hPa 0,0 l/m 2,2 km/h (1 Bft) N-NO 27 0 min 0,0 UV-I 0 W/m -2,5 C -1,4 C 4,8 km/h (1 Bft)
20.01.2023 20:09 -1,4 C -0,6 C 92 % 1019,2 hPa 0,0 l/m 0,9 km/h (0 Bft) N-NO 27 0 min 0,0 UV-I 0 W/m -2,5 C -1,4 C 3,2 km/h (1 Bft)
20.01.2023 20:12 -1,4 C -0,6 C 92 % 1019,3 hPa 0,0 l/m 1,5 km/h (1 Bft) N-NO 28 0 min 0,0 UV-I 0 W/m -2,5 C -1,4 C 4,8 km/h (1 Bft)
20.01.2023 20:15 -1,4 C -0,6 C 92 % 1019,3 hPa 0,0 l/m 1,7 km/h (1 Bft) N-NO 29 0 min 0,0 UV-I 0 W/m -2,5 C -1,4 C 4,8 km/h (1 Bft)
20.01.2023 20:18 -1,4 C -0,6 C 92 % 1019,3 hPa 0,0 l/m 1,8 km/h (1 Bft) N-NO 30 0 min 0,0 UV-I 0 W/m -2,5 C -1,4 C 4,8 km/h (1 Bft)
20.01.2023 20:21 -1,4 C -0,6 C 92 % 1019,3 hPa 0,0 l/m 2,7 km/h (1 Bft) NO 38 0 min 0,0 UV-I 0 W/m -2,5 C -1,4 C 4,8 km/h (1 Bft)
20.01.2023 20:24 -1,4 C -0,6 C 92 % 1019,5 hPa 0,0 l/m 4,0 km/h (1 Bft) NO 46 0 min 0,0 UV-I 0 W/m -2,5 C -1,4 C 8,0 km/h (2 Bft)
20.01.2023 20:27 -1,4 C -0,6 C 92 % 1019,6 hPa 0,0 l/m 4,2 km/h (1 Bft) N-NO 31 0 min 0,0 UV-I 0 W/m -2,5 C -1,4 C 6,4 km/h (2 Bft)
20.01.2023 20:30 -1,4 C -0,6 C 92 % 1019,6 hPa 0,0 l/m 8,0 km/h (2 Bft) NO 35 0 min 0,0 UV-I 0 W/m -2,5 C -3,1 C 12,9 km/h (3 Bft)
20.01.2023 20:33 -1,6 C -0,6 C 92 % 1019,6 hPa 0,0 l/m 7,6 km/h (2 Bft) NO 53 0 min 0,0 UV-I 0 W/m -2,7 C -2,9 C 12,9 km/h (3 Bft)
20.01.2023 20:36 -1,6 C -0,6 C 92 % 1019,6 hPa 0,0 l/m 4,3 km/h (1 Bft) NO 54 0 min 0,0 UV-I 0 W/m -2,7 C -1,6 C 8,0 km/h (2 Bft)
20.01.2023 20:39 -1,6 C -0,6 C 92 % 1019,6 hPa 0,0 l/m 4,6 km/h (1 Bft) NO 42 0 min 0,0 UV-I 0 W/m -2,7 C -1,6 C 8,0 km/h (2 Bft)
20.01.2023 20:42 -1,6 C -0,6 C 92 % 1019,7 hPa 0,0 l/m 5,4 km/h (1 Bft) NO 51 0 min 0,0 UV-I 0 W/m -2,7 C -1,6 C 8,0 km/h (2 Bft)
20.01.2023 20:45 -1,7 C -0,6 C 92 % 1019,7 hPa 0,0 l/m 6,8 km/h (2 Bft) N-NO 20 0 min 0,0 UV-I 0 W/m -2,8 C -2,1 C 12,9 km/h (3 Bft)
20.01.2023 20:48 -1,7 C -0,6 C 92 % 1019,8 hPa 0,0 l/m 8,9 km/h (2 Bft) NO 35 0 min 0,0 UV-I 0 W/m -2,8 C -4,3 C 16,1 km/h (3 Bft)
20.01.2023 20:51 -1,8 C -0,6 C 92 % 1019,9 hPa 0,0 l/m 10,6 km/h (2 Bft) N-NO 16 0 min 0,0 UV-I 0 W/m -2,9 C -6,0 C 14,5 km/h (3 Bft)
20.01.2023 20:54 -1,8 C -0,6 C 92 % 1019,9 hPa 0,0 l/m 12,9 km/h (3 Bft) NO 41 0 min 0,0 UV-I 0 W/m -2,9 C -7,7 C 17,7 km/h (3 Bft)
20.01.2023 20:57 -1,8 C -0,6 C 92 % 1020,0 hPa 0,0 l/m 9,6 km/h (2 Bft) NO 35 0 min 0,0 UV-I 0 W/m -2,9 C -5,1 C 16,1 km/h (3 Bft)
20.01.2023 20:58 -1,8 C -0,6 C 92 % 1020,0 hPa 0,0 l/m 9,7 km/h (2 Bft) NO 45 0 min 0,0 UV-I 0 W/m -2,9 C -5,2 C 14,5 km/h (3 Bft)
20.01.2023 20:59 -1,8 C -0,6 C 92 % 1020,0 hPa 0,0 l/m 9,7 km/h (2 Bft) NO 45 0 min 0,0 UV-I 0 W/m -2,9 C -5,2 C 14,5 km/h (3 Bft)
20.01.2023 21:00 -1,8 C -0,6 C 92 % 1020,0 hPa 0,0 l/m 8,0 km/h (2 Bft) NO 45 0 min 0,0 UV-I 0 W/m -2,9 C -3,5 C 12,9 km/h (3 Bft)
20.01.2023 21:01 -1,8 C -0,6 C 92 % 1020,0 hPa 0,0 l/m 8,0 km/h (2 Bft) NO 45 0 min 0,0 UV-I 0 W/m -2,9 C -3,5 C 11,3 km/h (2 Bft)
20.01.2023 21:02 -1,9 C -0,6 C 92 % 1020,0 hPa 0,0 l/m 11,3 km/h (2 Bft) N-NO 22 0 min 0,0 UV-I 0 W/m -3,0 C -6,6 C 14,5 km/h (3 Bft)
20.01.2023 21:03 -1,8 C -0,6 C 92 % 1020,0 hPa 0,0 l/m 9,7 km/h (2 Bft) NO 45 0 min 0,0 UV-I 0 W/m -2,9 C -5,2 C 14,5 km/h (3 Bft)
20.01.2023 21:06 -1,9 C -0,6 C 92 % 1020,0 hPa 0,0 l/m 9,4 km/h (2 Bft) N-NO 28 0 min 0,0 UV-I 0 W/m -3,0 C -5,0 C 14,5 km/h (3 Bft)
20.01.2023 21:09 -1,9 C -0,6 C 92 % 1020,1 hPa 0,0 l/m 6,2 km/h (2 Bft) NO 42 0 min 0,0 UV-I 0 W/m -3,0 C -1,9 C 9,7 km/h (2 Bft)
20.01.2023 21:12 -1,9 C -0,6 C 92 % 1020,1 hPa 0,0 l/m 6,5 km/h (2 Bft) NO 46 0 min 0,0 UV-I 0 W/m -3,0 C -2,0 C 9,7 km/h (2 Bft)
20.01.2023 21:15 -1,9 C -0,6 C 92 % 1020,2 hPa 0,0 l/m 6,7 km/h (2 Bft) N-NO 30 0 min 0,0 UV-I 0 W/m -3,0 C -2,2 C 9,7 km/h (2 Bft)
20.01.2023 21:18 -1,9 C -0,6 C 92 % 1020,2 hPa 0,0 l/m 9,5 km/h (2 Bft) N-NO 28 0 min 0,0 UV-I 0 W/m -3,0 C -5,1 C 16,1 km/h (3 Bft)
20.01.2023 21:21 -1,9 C -0,6 C 92 % 1020,4 hPa 0,0 l/m 7,7 km/h (2 Bft) NO 35 0 min 0,0 UV-I 0 W/m -3,0 C -3,3 C 12,9 km/h (3 Bft)
20.01.2023 21:24 -1,9 C -0,6 C 92 % 1020,4 hPa 0,0 l/m 8,6 km/h (2 Bft) NO 38 0 min 0,0 UV-I 0 W/m -3,0 C -4,2 C 14,5 km/h (3 Bft)
20.01.2023 21:27 -1,9 C -0,6 C 92 % 1020,4 hPa 0,0 l/m 7,2 km/h (2 Bft) NO 38 0 min 0,0 UV-I 0 W/m -3,0 C -2,8 C 9,7 km/h (2 Bft)
20.01.2023 21:30 -1,9 C -0,6 C 92 % 1020,5 hPa 0,0 l/m 6,2 km/h (2 Bft) N-NO 32 0 min 0,0 UV-I 0 W/m -3,0 C -1,9 C 9,7 km/h (2 Bft)
20.01.2023 21:33 -2,0 C -0,6 C 92 % 1020,5 hPa 0,0 l/m 6,3 km/h (2 Bft) N-NO 29 0 min 0,0 UV-I 0 W/m -3,1 C -2,0 C 9,7 km/h (2 Bft)
20.01.2023 21:36 -2,0 C -0,6 C 92 % 1020,6 hPa 0,0 l/m 7,2 km/h (2 Bft) NO 49 0 min 0,0 UV-I 0 W/m -3,1 C -2,9 C 12,9 km/h (3 Bft)
20.01.2023 21:39 -2,0 C -0,6 C 92 % 1020,6 hPa 0,0 l/m 6,6 km/h (2 Bft) NO 49 0 min 0,0 UV-I 0 W/m -3,1 C -2,2 C 9,7 km/h (2 Bft)
20.01.2023 21:42 -2,1 C -0,6 C 92 % 1020,7 hPa 0,0 l/m 5,9 km/h (2 Bft) N-NO 22 0 min 0,0 UV-I 0 W/m -3,2 C -2,1 C 11,3 km/h (2 Bft)
20.01.2023 21:45 -2,1 C -0,6 C 92 % 1020,6 hPa 0,0 l/m 7,8 km/h (2 Bft) N-NO 33 0 min 0,0 UV-I 0 W/m -3,2 C -3,6 C 12,9 km/h (3 Bft)
20.01.2023 21:48 -2,1 C -0,6 C 92 % 1020,7 hPa 0,0 l/m 7,9 km/h (2 Bft) NO 39 0 min 0,0 UV-I 0 W/m -3,2 C -3,7 C 14,5 km/h (3 Bft)
20.01.2023 21:51 -2,1 C -0,6 C 92 % 1020,7 hPa 0,0 l/m 7,9 km/h (2 Bft) NO 35 0 min 0,0 UV-I 0 W/m -3,2 C -3,7 C 12,9 km/h (3 Bft)
20.01.2023 21:54 -2,1 C -0,6 C 92 % 1020,8 hPa 0,0 l/m 10,0 km/h (2 Bft) O-NO 60 0 min 0,0 UV-I 0 W/m -3,2 C -5,8 C 16,1 km/h (3 Bft)
20.01.2023 21:57 -2,1 C -0,6 C 92 % 1020,8 hPa 0,0 l/m 7,3 km/h (2 Bft) NO 36 0 min 0,0 UV-I 0 W/m -3,2 C -3,1 C 14,5 km/h (3 Bft)
20.01.2023 22:00 -2,2 C -0,6 C 92 % 1020,9 hPa 0,0 l/m 7,3 km/h (2 Bft) NO 35 0 min 0,0 UV-I 0 W/m -3,3 C -3,2 C 12,9 km/h (3 Bft)
20.01.2023 22:03 -2,2 C -1,1 C 92 % 1020,9 hPa 0,0 l/m 8,8 km/h (2 Bft) NO 39 0 min 0,0 UV-I 0 W/m -3,3 C -4,8 C 14,5 km/h (3 Bft)
20.01.2023 22:06 -2,2 C -1,1 C 92 % 1020,9 hPa 0,0 l/m 12,2 km/h (2 Bft) N-NO 19 0 min 0,0 UV-I 0 W/m -3,3 C -7,7 C 17,7 km/h (3 Bft)
20.01.2023 22:09 -2,2 C -1,1 C 92 % 1021,0 hPa 0,0 l/m 12,2 km/h (2 Bft) N-NO 30 0 min 0,0 UV-I 0 W/m -3,3 C -7,7 C 17,7 km/h (3 Bft)
20.01.2023 22:12 -2,2 C -1,1 C 92 % 1021,0 hPa 0,0 l/m 12,2 km/h (2 Bft) N-NO 20 0 min 0,0 UV-I 0 W/m -3,3 C -7,7 C 17,7 km/h (3 Bft)
20.01.2023 22:15 -2,2 C -1,1 C 92 % 1021,1 hPa 0,0 l/m 11,6 km/h (2 Bft) N-NO 22 0 min 0,0 UV-I 0 W/m -3,3 C -7,2 C 19,3 km/h (3 Bft)
20.01.2023 22:18 -2,3 C -1,1 C 92 % 1021,2 hPa 0,0 l/m 13,9 km/h (3 Bft) NO 49 0 min 0,0 UV-I 0 W/m -3,4 C -9,0 C 22,5 km/h (4 Bft)
20.01.2023 22:21 -2,3 C -1,1 C 92 % 1021,2 hPa 0,0 l/m 12,6 km/h (3 Bft) N-NO 22 0 min 0,0 UV-I 0 W/m -3,4 C -8,1 C 19,3 km/h (3 Bft)
20.01.2023 22:24 -2,3 C -1,1 C 92 % 1021,3 hPa 0,0 l/m 12,6 km/h (3 Bft) N-NO 19 0 min 0,0 UV-I 0 W/m -3,4 C -8,1 C 17,7 km/h (3 Bft)
20.01.2023 22:27 -2,3 C -1,1 C 92 % 1021,4 hPa 0,0 l/m 13,1 km/h (3 Bft) NO 38 0 min 0,0 UV-I 0 W/m -3,4 C -8,5 C 17,7 km/h (3 Bft)
20.01.2023 22:30 -2,4 C -1,1 C 92 % 1021,4 hPa 0,0 l/m 12,3 km/h (3 Bft) NO 34 0 min 0,0 UV-I 0 W/m -3,5 C -8,0 C 16,1 km/h (3 Bft)
20.01.2023 22:33 -2,4 C -1,1 C 92 % 1021,5 hPa 0,0 l/m 10,3 km/h (2 Bft) N-NO 32 0 min 0,0 UV-I 0 W/m -3,5 C -6,4 C 16,1 km/h (3 Bft)
20.01.2023 22:36 -2,4 C -1,1 C 92 % 1021,5 hPa 0,0 l/m 15,6 km/h (3 Bft) NO 36 0 min 0,0 UV-I 0 W/m -3,5 C -10,3 C 20,9 km/h (4 Bft)
20.01.2023 22:39 -2,4 C -1,1 C 92 % 1021,6 hPa 0,0 l/m 15,7 km/h (3 Bft) N-NO 27 0 min 0,0 UV-I 0 W/m -3,5 C -10,3 C 20,9 km/h (4 Bft)
20.01.2023 22:42 -2,5 C -1,1 C 92 % 1021,6 hPa 0,0 l/m 13,3 km/h (3 Bft) N-NO 32 0 min 0,0 UV-I 0 W/m -3,6 C -8,9 C 19,3 km/h (3 Bft)
20.01.2023 22:45 -2,5 C -1,1 C 92 % 1021,6 hPa 0,0 l/m 13,2 km/h (3 Bft) N-NO 32 0 min 0,0 UV-I 0 W/m -3,6 C -8,8 C 17,7 km/h (3 Bft)
20.01.2023 22:48 -2,5 C -1,1 C 92 % 1021,7 hPa 0,0 l/m 13,1 km/h (3 Bft) N-NO 21 0 min 0,0 UV-I 0 W/m -3,6 C -8,7 C 17,7 km/h (3 Bft)
20.01.2023 22:51 -2,5 C -1,1 C 92 % 1021,7 hPa 0,0 l/m 13,7 km/h (3 Bft) NO 47 0 min 0,0 UV-I 0 W/m -3,6 C -9,1 C 19,3 km/h (3 Bft)
20.01.2023 22:54 -2,5 C -1,1 C 92 % 1021,7 hPa 0,0 l/m 13,1 km/h (3 Bft) N-NO 25 0 min 0,0 UV-I 0 W/m -3,6 C -8,7 C 19,3 km/h (3 Bft)
20.01.2023 22:57 -2,5 C -1,1 C 92 % 1021,8 hPa 0,0 l/m 13,9 km/h (3 Bft) N-NO 31 0 min 0,0 UV-I 0 W/m -3,6 C -9,3 C 20,9 km/h (4 Bft)
20.01.2023 23:00 -2,5 C -1,1 C 92 % 1021,8 hPa 0,0 l/m 15,8 km/h (3 Bft) N-NO 26 0 min 0,0 UV-I 0 W/m -3,6 C -10,5 C 22,5 km/h (4 Bft)
20.01.2023 23:03 -2,5 C -1,1 C 92 % 1022,0 hPa 0,0 l/m 17,1 km/h (3 Bft) NO 42 0 min 0,0 UV-I 0 W/m -3,6 C -11,3 C 22,5 km/h (4 Bft)
20.01.2023 23:06 -2,5 C -1,1 C 92 % 1022,0 hPa 0,0 l/m 12,7 km/h (3 Bft) N 5 0 min 0,0 UV-I 0 W/m -3,6 C -8,4 C 19,3 km/h (3 Bft)
20.01.2023 23:09 -2,5 C -1,1 C 91 % 1022,0 hPa 0,0 l/m 10,5 km/h (2 Bft) N-NO 30 0 min 0,0 UV-I 0 W/m -3,8 C -6,7 C 16,1 km/h (3 Bft)
20.01.2023 23:12 -2,5 C -1,1 C 91 % 1022,1 hPa 0,0 l/m 11,2 km/h (2 Bft) NO 34 0 min 0,0 UV-I 0 W/m -3,8 C -7,2 C 20,9 km/h (4 Bft)
20.01.2023 23:15 -2,5 C -1,1 C 92 % 1022,0 hPa 0,0 l/m 11,3 km/h (2 Bft) NO 36 0 min 0,0 UV-I 0 W/m -3,6 C -7,3 C 20,9 km/h (4 Bft)
20.01.2023 23:18 -2,6 C -1,1 C 91 % 1022,0 hPa 0,0 l/m 14,0 km/h (3 Bft) N-NO 22 0 min 0,0 UV-I 0 W/m -3,9 C -9,5 C 19,3 km/h (3 Bft)
20.01.2023 23:21 -2,5 C -1,1 C 91 % 1022,1 hPa 0,0 l/m 12,4 km/h (3 Bft) N-NO 21 0 min 0,0 UV-I 0 W/m -3,8 C -8,2 C 16,1 km/h (3 Bft)
20.01.2023 23:24 -2,5 C -1,1 C 91 % 1022,1 hPa 0,0 l/m 12,9 km/h (3 Bft) NO 40 0 min 0,0 UV-I 0 W/m -3,8 C -8,6 C 19,3 km/h (3 Bft)
20.01.2023 23:27 -2,6 C -1,7 C 91 % 1022,2 hPa 0,0 l/m 12,5 km/h (3 Bft) N-NO 26 0 min 0,0 UV-I 0 W/m -3,9 C -8,4 C 19,3 km/h (3 Bft)
20.01.2023 23:30 -2,5 C -1,7 C 91 % 1022,2 hPa 0,0 l/m 16,5 km/h (3 Bft) N-NO 25 0 min 0,0 UV-I 0 W/m -3,8 C -10,9 C 25,7 km/h (4 Bft)
20.01.2023 23:33 -2,5 C -1,7 C 91 % 1022,4 hPa 0,0 l/m 16,5 km/h (3 Bft) N-NO 22 0 min 0,0 UV-I 0 W/m -3,8 C -10,9 C 24,1 km/h (4 Bft)
20.01.2023 23:36 -2,5 C -1,7 C 91 % 1022,5 hPa 0,0 l/m 15,3 km/h (3 Bft) N 11 0 min 0,0 UV-I 0 W/m -3,8 C -10,2 C 22,5 km/h (4 Bft)
20.01.2023 23:39 -2,5 C -1,7 C 91 % 1022,5 hPa 0,0 l/m 15,2 km/h (3 Bft) N-NO 28 0 min 0,0 UV-I 0 W/m -3,8 C -10,1 C 22,5 km/h (4 Bft)
20.01.2023 23:42 -2,5 C -1,7 C 91 % 1022,6 hPa 0,0 l/m 17,3 km/h (3 Bft) N-NO 27 0 min 0,0 UV-I 0 W/m -3,8 C -11,4 C 25,7 km/h (4 Bft)
20.01.2023 23:45 -2,5 C -1,7 C 91 % 1022,7 hPa 0,0 l/m 18,3 km/h (3 Bft) NO 34 0 min 0,0 UV-I 0 W/m -3,8 C -12,0 C 27,4 km/h (4 Bft)
20.01.2023 23:48 -2,5 C -1,7 C 91 % 1022,7 hPa 0,0 l/m 16,7 km/h (3 Bft) N-NO 21 0 min 0,0 UV-I 0 W/m -3,8 C -11,1 C 22,5 km/h (4 Bft)
20.01.2023 23:51 -2,5 C -1,7 C 91 % 1022,8 hPa 0,0 l/m 14,5 km/h (3 Bft) NO 34 0 min 0,0 UV-I 0 W/m -3,8 C -9,7 C 22,5 km/h (4 Bft)
20.01.2023 23:54 -2,5 C -1,7 C 91 % 1022,7 hPa 0,0 l/m 13,7 km/h (3 Bft) N-NO 29 0 min 0,0 UV-I 0 W/m -3,8 C -9,1 C 22,5 km/h (4 Bft)
20.01.2023 23:57 -2,5 C -1,7 C 91 % 1022,8 hPa 0,0 l/m 16,4 km/h (3 Bft) NO 40 0 min 0,0 UV-I 0 W/m -3,8 C -10,9 C 20,9 km/h (4 Bft)
20.01.2023 23:58 -2,5 C -1,7 C 91 % 1022,8 hPa 0,0 l/m 12,9 km/h (3 Bft) N-NO 22 0 min 0,0 UV-I 0 W/m -3,8 C -8,6 C 16,1 km/h (3 Bft)
20.01.2023 23:59 -2,5 C -1,7 C 91 % 1022,8 hPa 0,0 l/m 16,1 km/h (3 Bft) N-NO 22 0 min 0,0 UV-I 0 W/m -3,8 C -10,7 C 19,3 km/h (3 Bft)
_ Min-Zeit 02:16 02:06 05:28 00:04 - 00:15 - - - - - 02:16 23:45 00:23
Minimum _ -3,2 C -5,6 C 89 % 1012,5 hPa - 0,0 km/h (0 Bft) - - - - - -4,6 C -12,0 C 0,0 km/h (0 Bft)
_ Max-Zeit 18:30 12:03 17:39 23:51 13:00 23:45 - - 00:00 12:06 12:06 18:30 18:30 23:45
Maximum _ -0,7 C 0,0 C 92 % 1022,8 hPa 0,2 l/m 18,3 km/h
NO (3 Bft)
- - 0 min 0,9 UV-I 246 W/m -1,8 C -0,7 C 27,4 km/h
NO (4 Bft)
Durchschnitt _ -2,0 C -1,8 C 91 % 1016,8 hPa #4,8 l/m 6,3 km/h (2 Bft) W-SW - #0 min. 0,6 UV-I 57 W/m -3,3 C -3,7 C 10,9 km/h (2 Bft)